[[{"header":{"parameterUnit":"m.s-1","parameterCategory":1,"la1":30.6,"la2":29.2853,"lo1":-89.7004,"lo2":-87.6739,"dy":0.0162,"dx":0.0183,"nx":112,"ny":82,"refTime":"2026-05-08T12:00:00:Z","depth":0,"parameterNumber":2,"parameterNumberName":"U-component_of_WINDS"},"data":[0.0,0.0,0.0,0.0,0.0,0.0,0.0,0.0,0.0,0.0,0.0,0.0,0.0,0.0,0.0,0.0,0.0,0.0,0.0,0.0,0.0,0.0,0.0,0.0,0.0,0.0,0.0,0.0,0.0,0.0,0.0,0.0,0.0,0.0,0.0,0.0,0.0,0.0,0.0,0.0,0.0,0.0,0.0,0.0,0.0,0.0,0.0,0.0,0.0,0.0,0.0,0.0,0.0,0.0,0.0,0.0,0.0,0.0,0.0,0.0,0.0,0.0,0.0,0.0,0.0,0.0,0.0,0.0,0.0,0.0,0.0,0.0,0.0,0.0,0.0,0.0,0.0,0.0,0.0,0.0,0.0,0.0,0.0,0.0,0.0,0.0,0.0,0.0,0.0,0.0,-0.8696,-1.1235,-1.3666,-1.4462,-1.2912,-1.33,-1.2009,-0.8221,0.0,0.0,0.0,0.0,0.0,0.0,0.0,0.0,0.0,0.0,0.0,0.0,0.0,0.0,0.0,0.0,0.0,0.0,0.0,0.0,0.0,0.0,0.0,0.0,0.0,0.0,0.0,0.0,0.0,0.0,0.0,0.0,0.0,0.0,0.0,0.0,0.0,0.0,0.0,0.0,0.0,0.0,0.0,0.0,0.0,0.0,0.0,0.0,0.0,0.0,0.0,0.0,0.0,0.0,0.0,0.0,0.0,0.0,0.0,0.0,0.0,0.0,0.0,0.0,0.0,0.0,0.0,0.0,0.0,0.0,0.0,0.0,0.0,0.0,0.0,0.0,0.0,0.0,0.0,0.0,0.0,0.0,0.0,0.0,0.0,0.0,0.0,0.0,0.0,0.0,0.0,0.0,0.0,0.0,0.0,0.0,0.0,0.0,0.0,0.0,0.0,0.0,0.0,0.0,-0.9346,-1.2112,-1.4023,-1.4695,-1.3704,-1.3106,-1.1913,-0.9842,0.0,0.0,0.0,0.0,0.0,0.0,0.0,0.0,0.0,0.0,0.0,0.0,0.0,0.0,0.0,0.0,0.0,0.0,0.0,0.0,0.0,0.0,0.0,0.0,0.0,0.0,0.0,0.0,0.0,0.0,0.0,0.0,0.0,0.0,0.0,0.0,0.0,0.0,0.0,0.0,0.0,0.0,0.0,0.0,0.0,0.0,0.0,0.0,0.0,0.0,0.0,0.0,0.0,0.0,0.0,0.0,0.0,0.0,0.0,0.0,0.0,0.0,0.0,0.0,0.0,0.0,0.0,0.0,0.0,0.0,0.0,0.0,0.0,0.0,0.0,0.0,0.0,0.0,0.0,0.0,0.0,0.0,0.0,0.0,0.0,0.0,0.0,0.0,0.0,0.0,0.0,0.0,0.0,0.0,0.0,0.0,0.0,0.0,0.0,0.0,0.0,0.0,0.0,-0.9724,-1.0658,-1.2415,-1.4099,-1.4577,-1.3258,-1.2816,-1.1484,-0.8846,-0.8689,0.0,0.0,0.0,0.0,0.0,0.0,0.0,0.0,0.0,0.0,0.0,0.0,0.0,0.0,0.0,0.0,0.0,0.0,0.0,0.0,0.0,0.0,0.0,0.0,0.0,0.0,0.0,0.0,0.0,0.0,0.0,0.0,0.0,0.0,0.0,0.0,0.0,0.0,0.0,0.0,0.0,0.0,0.0,0.0,0.0,0.0,0.0,0.0,0.0,0.0,0.0,0.0,0.0,0.0,0.0,0.0,0.0,0.0,0.0,0.0,0.0,0.0,0.0,0.0,0.0,0.0,0.0,0.0,0.0,0.0,0.0,0.0,0.0,0.0,0.0,0.0,0.0,0.0,0.0,0.0,0.0,0.0,0.0,0.0,0.0,0.0,0.0,0.0,0.0,0.0,0.0,0.0,0.0,0.0,0.0,0.0,0.0,0.0,0.0,0.0,0.0,0.0,-1.0314,-1.1861,-1.253,-1.3927,-1.4195,-1.274,-1.2243,-1.0718,-0.7697,-0.7506,0.0,0.0,0.0,0.0,0.0,0.0,0.0,0.0,0.0,0.0,0.0,0.0,0.0,0.0,0.0,0.0,0.0,0.0,0.0,0.0,0.0,0.0,0.0,0.0,0.0,0.0,0.0,0.0,0.0,0.0,0.0,0.0,0.0,0.0,0.0,0.0,0.0,0.0,0.0,0.0,0.0,0.0,0.0,0.0,0.0,0.0,0.0,0.0,0.0,0.0,0.0,0.0,0.0,0.0,0.0,0.0,0.0,0.0,0.0,0.0,0.0,0.0,0.0,0.0,0.0,0.0,0.0,0.0,0.0,0.0,0.0,0.0,0.0,0.0,0.0,0.0,0.0,0.0,0.0,0.0,0.0,0.0,0.0,0.0,0.0,0.0,0.0,0.0,0.0,0.0,0.0,0.0,0.0,0.0,0.0,0.0,0.0,0.0,0.0,0.0,0.0,0.0,-1.0467,-1.253,-1.2584,-1.3376,-1.3548,-1.2663,-1.116,-0.9482,-0.7623,-0.7506,0.0,0.0,0.0,0.0,0.0,0.0,0.0,0.0,0.0,0.0,0.0,0.0,0.0,0.0,0.0,0.0,0.0,0.0,0.0,0.0,0.0,0.0,0.0,0.0,0.0,0.0,0.0,0.0,0.0,0.0,0.0,0.0,0.0,0.0,0.0,0.0,0.0,0.0,0.0,0.0,0.0,0.0,0.0,0.0,0.0,0.0,0.0,0.0,0.0,0.0,0.0,0.0,0.0,0.0,0.0,0.0,0.0,0.0,0.0,0.0,0.0,0.0,0.0,0.0,0.0,0.0,0.0,0.0,0.0,0.0,0.0,0.0,0.0,0.0,0.0,0.0,0.0,0.0,0.0,0.0,0.0,0.0,0.0,0.0,0.0,0.0,0.0,0.0,0.0,0.0,0.0,0.0,0.0,0.0,0.0,0.0,0.0,0.0,0.0,0.0,0.0,0.0,-1.0008,-1.1995,0.0,-1.3319,-1.3472,-1.2663,-1.152,-0.9898,-0.764,0.0,0.0,0.0,0.0,0.0,0.0,0.0,0.0,0.0,0.0,0.0,0.0,0.0,0.0,0.0,0.0,0.0,0.0,0.0,0.0,0.0,0.0,0.0,0.0,0.0,0.0,0.0,0.0,0.0,0.0,0.0,0.0,0.0,0.0,0.0,0.0,0.0,0.0,0.0,0.0,0.0,0.0,0.0,0.0,0.0,0.0,0.0,0.0,0.0,0.0,0.0,0.0,0.0,0.0,0.0,0.0,0.0,0.0,0.0,0.0,0.0,0.0,0.0,0.0,0.0,0.0,0.0,0.0,0.0,0.0,0.0,0.0,0.0,0.0,0.0,0.0,0.0,0.0,0.0,0.0,0.0,0.0,0.0,0.0,0.0,0.0,0.0,0.0,0.0,0.0,0.0,0.0,0.0,0.0,0.0,0.0,0.0,0.0,0.0,0.0,0.0,0.0,-0.7812,-1.0142,-1.2036,0.0,-1.3239,-1.3201,-1.2644,-1.1307,-0.9645,-0.7621,0.0,0.0,0.0,0.0,0.0,0.0,0.0,0.0,0.0,0.0,0.0,0.0,0.0,0.0,0.0,0.0,0.0,0.0,0.0,0.0,0.0,0.0,0.0,0.0,0.0,0.0,0.0,0.0,0.0,0.0,0.0,0.0,0.0,0.0,0.0,0.0,0.0,0.0,0.0,0.0,0.0,0.0,0.0,0.0,0.0,0.0,0.0,0.0,0.0,0.0,0.0,0.0,0.0,0.0,0.0,0.0,0.0,0.0,0.0,0.0,0.0,0.0,0.0,0.0,0.0,0.0,0.0,0.0,0.0,0.0,0.0,0.0,0.0,0.0,0.0,0.0,0.0,0.0,0.0,0.0,0.0,0.0,0.0,0.0,0.0,0.0,0.0,0.0,0.0,0.0,0.0,0.0,0.0,0.0,0.0,0.0,0.0,0.0,0.0,0.0,0.0,0.0,-0.861,-1.1018,-1.2915,-1.3704,-1.3087,-1.2603,-1.2603,-1.0273,-0.844,0.0,0.0,0.0,0.0,0.0,0.0,0.0,0.0,0.0,0.0,0.0,0.0,0.0,0.0,0.0,0.0,0.0,0.0,0.0,0.0,0.0,0.0,0.0,0.0,0.0,0.0,0.0,0.0,0.0,0.0,0.0,0.0,0.0,0.0,0.0,0.0,0.0,0.0,0.0,0.0,0.0,0.0,0.0,0.0,0.0,0.0,0.0,0.0,0.0,0.0,0.0,0.0,0.0,0.0,0.0,0.0,0.0,0.0,0.0,0.0,0.0,0.0,0.0,0.0,0.0,0.0,0.0,0.0,0.0,0.0,0.0,0.0,0.0,0.0,0.0,0.0,0.0,0.0,0.0,0.0,0.0,0.0,0.0,0.0,0.0,0.0,0.0,0.0,0.0,0.0,0.0,0.0,0.0,0.0,0.0,0.0,0.0,0.0,0.0,0.0,0.0,0.0,0.0,-0.8674,-1.1013,-1.2915,-1.3704,-1.3087,-1.2603,-1.2603,-1.0835,-0.9077,-0.7602,0.0,0.0,0.0,0.0,0.0,0.0,0.0,0.0,0.0,0.0,0.0,0.0,0.0,0.0,0.0,0.0,0.0,0.0,0.0,0.0,0.0,0.0,0.0,0.0,0.0,0.0,0.0,0.0,0.0,0.0,0.0,0.0,0.0,0.0,0.0,0.0,0.0,0.0,0.0,0.0,0.0,0.0,0.0,0.0,0.0,0.0,0.0,0.0,0.0,0.0,0.0,0.0,0.0,0.0,0.0,0.0,0.0,0.0,0.0,0.0,0.0,0.0,0.0,0.0,0.0,0.0,0.0,0.0,0.0,0.0,0.0,0.0,0.0,0.0,0.0,0.0,0.0,0.0,0.0,0.0,0.0,0.0,0.0,0.0,0.0,0.0,0.0,0.0,0.0,0.0,0.0,0.0,0.0,0.0,0.0,0.0,0.0,0.0,0.0,0.0,0.0,0.0,-0.9157,-1.0942,-1.2666,-1.416,-1.3297,-1.2603,-1.2603,-1.137,-0.969,-0.7623,0.0,0.0,0.0,0.0,0.0,0.0,0.0,0.0,0.0,0.0,0.0,0.0,0.0,0.0,0.0,0.0,0.0,0.0,0.0,0.0,0.0,0.0,0.0,0.0,0.0,0.0,0.0,0.0,0.0,0.0,0.0,0.0,0.0,0.0,0.0,0.0,0.0,0.0,0.0,0.0,0.0,0.0,0.0,0.0,0.0,0.0,0.0,0.0,0.0,0.0,0.0,0.0,0.0,0.0,0.0,0.0,0.0,0.0,0.0,0.0,0.0,0.0,0.0,0.0,0.0,0.0,0.0,0.0,0.0,0.0,0.0,0.0,0.0,0.0,0.0,0.0,0.0,0.0,0.0,0.0,0.0,0.0,0.0,0.0,0.0,0.0,0.0,0.0,0.0,0.0,0.0,0.0,0.0,0.0,0.0,0.0,0.0,0.0,0.0,0.0,0.0,0.0,-0.9879,-1.0873,-1.2361,-1.4848,-1.3599,-1.2603,-1.2603,-1.173,-1.0164,-0.7774,0.0,0.0,0.0,0.0,0.0,0.0,0.0,0.0,0.0,0.0,0.0,0.0,0.0,0.0,0.0,0.0,0.0,0.0,0.0,0.0,0.0,0.0,0.0,0.0,0.0,0.0,0.0,0.0,0.0,0.0,0.0,0.0,0.0,0.0,0.0,0.0,0.0,0.0,0.0,0.0,0.0,0.0,0.0,0.0,0.0,0.0,0.0,0.0,0.0,0.0,0.0,0.0,0.0,0.0,0.0,0.0,0.0,0.0,0.0,0.0,-0.7167,0.0,0.0,0.0,0.0,0.0,0.0,0.0,0.0,0.0,0.0,0.0,0.0,0.0,0.0,0.0,0.0,0.0,0.0,0.0,0.0,0.0,0.0,0.0,0.0,0.0,0.0,0.0,0.0,0.0,0.0,0.0,0.0,0.0,0.0,0.0,0.0,0.0,0.0,0.0,0.0,0.0,-0.9865,-1.1362,-1.3045,-1.4901,-1.3599,-1.2603,-1.2603,-1.1217,-0.9824,-0.8593,-0.7375,0.0,0.0,0.0,0.0,0.0,0.0,0.0,0.0,0.0,0.0,0.0,0.0,0.0,0.0,0.0,0.0,0.0,0.0,0.0,0.0,0.0,0.0,0.0,0.0,0.0,0.0,0.0,0.0,0.0,0.0,0.0,0.0,0.0,0.0,0.0,0.0,0.0,0.0,0.0,0.0,0.0,0.0,0.0,0.0,0.0,0.0,0.0,0.0,0.0,0.0,0.0,0.0,0.0,0.0,0.0,0.0,0.0,0.0,0.0,0.0,-0.9186,0.0,0.0,0.0,0.0,0.0,0.0,0.0,0.0,0.0,0.0,0.0,0.0,0.0,0.0,0.0,0.0,0.0,0.0,0.0,0.0,0.0,0.0,0.0,0.0,0.0,0.0,0.0,0.0,0.0,0.0,0.0,0.0,0.0,0.0,0.0,0.0,0.0,0.0,0.0,0.0,-1.0383,-1.1403,-1.2772,-1.4835,-1.3586,-1.2603,-1.2603,-1.1427,-1.0135,-0.8886,-0.8118,0.0,0.0,0.0,0.0,0.0,0.0,0.0,0.0,0.0,0.0,0.0,0.0,0.0,0.0,0.0,0.0,0.0,0.0,0.0,0.0,0.0,0.0,0.0,0.0,0.0,0.0,0.0,0.0,0.0,0.0,0.0,0.0,0.0,0.0,0.0,0.0,0.0,0.0,0.0,0.0,0.0,0.0,0.0,0.0,0.0,0.0,0.0,0.0,0.0,0.0,0.0,0.0,0.0,-1.1089,-1.1089,-1.1089,-1.1089,-1.1089,-1.1089,-1.1089,-1.0759,-1.0195,-1.0195,0.0,0.0,0.0,0.0,0.0,0.0,0.0,0.0,0.0,0.0,0.0,0.0,0.0,0.0,0.0,0.0,0.0,0.0,0.0,0.0,0.0,0.0,0.0,0.0,-1.2276,-1.2224,0.0,0.0,0.0,0.0,0.0,0.0,0.0,0.0,0.0,0.0,0.0,0.0,-1.0957,-1.1377,-1.235,-1.4555,-1.3468,-1.2537,-1.2393,-1.1599,-1.0507,-0.9124,-0.8904,-0.7899,0.0,0.0,0.0,0.0,0.0,0.0,0.0,0.0,0.0,0.0,0.0,0.0,0.0,0.0,0.0,0.0,0.0,0.0,0.0,0.0,0.0,0.0,0.0,0.0,0.0,0.0,0.0,0.0,0.0,0.0,0.0,0.0,-0.2225,-0.8236,0.0,0.0,0.0,0.0,0.0,0.0,0.0,0.0,0.0,0.0,0.0,0.0,0.0,-1.2995,-0.9554,-1.247,-1.4181,-1.4626,-1.4626,-1.4626,-1.4626,-1.4626,-1.4626,-1.4626,-1.4626,0.0,-1.0195,-1.0195,0.0,0.0,0.0,0.0,0.0,0.0,0.0,0.0,0.0,0.0,0.0,0.0,0.0,0.0,0.0,0.0,0.0,0.0,0.0,0.0,0.0,0.0,-1.3248,-1.2648,-1.2552,-1.2549,0.0,-1.1861,-1.0865,-0.871,-0.7307,0.0,0.0,0.0,0.0,0.0,0.0,0.0,-1.0989,-1.1873,-1.2762,-1.3847,-1.3089,-1.2224,-1.1534,-1.0732,-1.0157,-0.9944,-0.9277,-0.8739,-0.8408,-0.7326,0.0,0.0,0.0,0.0,0.0,0.0,0.0,0.0,0.0,0.0,0.0,0.0,0.0,0.0,0.0,0.0,0.0,0.0,0.0,0.0,0.0,0.0,0.0,0.0,0.0,0.0,0.0,0.0,0.0,-0.546,-0.6851,-0.9892,-1.0247,-0.9641,0.0,0.0,0.0,0.0,0.0,0.0,0.0,0.0,0.0,-1.0254,-1.3519,-1.4588,-1.3071,-1.4549,-1.5306,-1.5306,-1.5306,-1.5306,-1.5306,-1.5306,-1.5306,-1.5306,-1.5306,-1.4452,-1.3071,-1.3071,-1.1925,-1.039,0.0,0.0,0.0,0.0,-1.2799,-1.2488,-1.2916,-1.4008,0.0,-1.2978,0.0,0.0,0.0,0.0,0.0,0.0,0.0,0.0,0.0,0.0,-1.3553,-1.3322,-1.3641,-1.4004,-1.4004,-1.3793,-1.2931,0.0,-1.0101,-0.9548,-0.8097,0.0,0.0,0.0,0.0,-1.0706,-1.2346,-1.2908,-1.3512,-1.4373,-1.3294,-1.2376,-1.2063,-1.0849,-1.0129,-1.0152,-0.9827,-0.9436,-0.8978,-0.8322,-0.7366,0.0,0.0,0.0,0.0,0.0,0.0,0.0,0.0,0.0,0.0,0.0,0.0,0.0,0.0,0.0,0.0,0.0,0.0,0.0,0.0,0.0,0.0,0.0,0.0,0.0,0.0,0.0,0.0,-0.7282,-0.9219,-1.0099,-1.0195,-1.0195,0.0,0.0,0.0,0.0,0.0,0.0,-1.0195,-1.3442,-1.4121,-1.1595,-1.3966,-1.5306,-1.5306,-1.5306,-1.5306,-1.5306,-1.5306,-1.5306,-1.5306,-1.5306,-1.5306,-1.5306,-1.5306,-1.5306,-1.5306,-1.5306,-1.3791,-1.177,-1.4316,-1.5306,-1.5306,-1.5306,-1.3694,-1.1867,-1.4413,-1.5306,-1.4879,-1.2333,0.0,-1.5306,-1.5306,0.0,0.0,0.0,0.0,-1.527,-1.5198,-1.4512,-1.3905,-1.4086,-1.4637,-1.5096,-1.5096,-1.5106,-1.4498,0.0,-1.2457,-1.223,-1.0081,0.0,0.0,0.0,0.0,-1.2014,-1.3449,-1.3663,-1.3959,-1.4612,-1.338,-1.2432,-1.2293,-1.0951,-1.0131,-1.0208,-1.0195,-0.9932,-0.9326,-0.9258,-0.8633,-0.7358,0.0,0.0,0.0,0.0,0.0,0.0,0.0,0.0,0.0,0.0,0.0,0.0,0.0,0.0,0.0,0.0,0.0,0.0,0.0,0.0,0.0,0.0,0.0,0.0,0.0,0.0,0.0,0.0,0.0,-0.9813,-1.0195,0.0,0.0,0.0,0.0,-1.4782,-1.2042,-1.0195,-1.0195,-1.3442,-1.5229,-1.5054,-1.5209,-1.5306,-1.5306,-1.5306,-1.5306,-1.5306,-1.5306,-1.5306,-1.5306,-1.5306,-1.5306,-1.5306,-1.5306,-1.5306,-1.5306,-1.5306,-1.519,-1.5054,-1.5229,-1.5306,-1.5306,-1.5306,-1.519,-1.5073,-1.5248,-1.5306,-1.5267,-1.5093,-1.5151,-1.5306,-1.5306,-1.517,0.0,0.0,-1.5169,-1.5261,-1.5137,-1.5108,-1.5098,-1.5052,-1.5077,-1.5096,-1.5096,-1.5156,-1.4884,0.0,-1.3707,-1.343,-1.2389,0.0,-1.2355,-1.2286,-1.2313,-1.267,-1.3572,-1.3693,-1.3743,-1.3841,-1.3039,-1.222,-1.1519,-1.0614,-1.0138,-1.0208,-1.0205,-1.0175,-1.0137,-1.0136,-0.9704,-0.882,-0.7413,0.0,0.0,0.0,0.0,0.0,0.0,0.0,0.0,0.0,0.0,0.0,0.0,0.0,0.0,0.0,0.0,0.0,0.0,0.0,0.0,0.0,0.0,0.0,0.0,0.0,0.0,0.0,0.0,-1.0068,-1.0195,0.0,-1.0195,-1.2197,-1.3985,-1.5209,-1.416,-1.348,-1.348,-1.4646,-1.5306,-1.5306,-1.5306,-1.5306,-1.5306,-1.5306,-1.5306,-1.5306,-1.5306,-1.5306,-1.5306,-1.5306,-1.5306,-1.5306,-1.5306,-1.5306,-1.5306,-1.5306,-1.5306,-1.5306,-1.5306,-1.5306,-1.5306,-1.5306,-1.5306,-1.5306,-1.5306,-1.5306,-1.5306,-1.5306,-1.6821,-1.8605,-1.8438,-1.6881,-1.5165,-1.5165,-1.5165,-1.5417,-1.6437,-1.5936,-1.5276,-1.5803,-1.5513,-1.5096,-1.5096,-1.5129,-1.5047,-1.4699,-1.4638,-1.4334,-1.3406,-1.3682,-1.3859,-1.3262,-1.3657,-1.4135,-1.4498,-1.4548,-1.4587,-1.4698,-1.3415,-1.2478,-1.2258,-1.0963,-1.0178,-1.0205,-1.0192,-1.0195,-1.0195,-1.0195,-0.9553,-0.8152,-0.7628,-0.6608,0.0,0.0,0.0,0.0,0.0,0.0,0.0,0.0,0.0,0.0,0.0,0.0,0.0,0.0,0.0,0.0,0.0,0.0,0.0,0.0,0.0,0.0,0.0,0.0,0.0,0.0,-1.0676,-1.1797,-1.1925,-1.1925,-1.1925,-1.3966,-1.5306,-1.5306,-1.5306,-1.5306,-1.5306,-1.5306,-1.5306,-1.5306,-1.5306,-1.585,-1.7033,-1.7052,-1.7052,-1.7052,-1.7052,-1.7052,-1.7052,-1.7052,-1.7052,-1.7052,-1.7052,-1.7052,-1.713,-1.8298,-1.8103,-1.6938,-1.5753,-1.5306,-1.5306,-1.5306,-1.5306,-1.5306,-1.5306,-1.5306,-1.5306,-1.5306,-1.686,-1.8935,-1.9929,-1.7822,-1.5341,-1.6468,-1.6793,-1.7041,-1.8153,-1.7614,-1.6659,-1.6086,-1.5737,-1.5464,-1.52,-1.5136,-1.513,-1.5101,-1.5105,-1.4899,-1.428,-1.4612,-1.476,-1.4194,-1.4596,-1.498,-1.5038,-1.5054,-1.499,-1.4814,-1.3499,-1.2535,-1.2303,-1.1007,-1.0198,-1.0194,-1.0195,-1.0195,-1.0195,-0.9944,-0.9265,-0.816,-0.7842,-0.7038,-0.5671,0.0,0.0,0.0,0.0,0.0,0.0,0.0,0.0,0.0,0.0,0.0,0.0,0.0,0.0,0.0,0.0,0.0,0.0,0.0,0.0,0.0,0.0,0.0,-1.0305,-1.0342,-1.1599,-1.4919,-1.5306,-1.5306,-1.5306,-1.5306,-1.5306,-1.5306,-1.5306,-1.5306,-1.5306,-1.5306,-1.5306,-1.5306,-1.5403,-1.7072,-2.0468,-2.0507,-2.0507,-2.0507,-2.0507,-2.0565,-2.0663,-2.0663,-2.0663,-2.0663,-2.0663,-2.0663,-2.0915,-2.4239,-2.3656,-2.0313,-1.6821,-1.5462,-1.5462,-1.5462,-1.5462,-1.5462,-1.5462,-1.5462,-1.5462,-1.5462,-1.5462,-1.6083,-1.9478,-1.8048,-1.5948,-1.919,-2.0107,-2.0107,-2.0107,-2.0102,-1.9281,-1.5979,-1.5807,-1.6183,-1.5366,-1.5193,-1.5171,-1.5126,-1.5108,-1.5098,-1.5095,-1.5095,-1.5101,-1.5103,-1.511,0.0,-1.5091,-1.5167,-1.4893,-1.4085,-1.3217,-1.2374,-1.1574,-1.0708,-1.0198,-1.0194,-1.0195,-1.0195,-1.0195,-0.9462,-0.9017,-0.8998,-0.8153,-0.7406,-0.6834,0.0,0.0,0.0,0.0,0.0,0.0,0.0,0.0,0.0,0.0,0.0,0.0,0.0,0.0,0.0,0.0,0.0,0.0,0.0,0.0,0.0,-1.0305,-1.0305,-1.0305,-1.242,-1.4292,-1.5184,-1.5306,-1.5306,-1.5306,-1.5306,-1.5306,-1.5306,-1.5306,-1.5306,-1.5306,-1.5306,-1.5306,-1.5306,-1.7752,-1.9536,-2.0488,-2.0507,-2.0507,-2.0507,-2.0507,-2.1811,-2.42,-2.42,-2.42,-2.42,-2.42,-2.42,-2.4277,-2.5213,-2.5057,-2.385,-2.0412,-1.9072,-1.9072,-1.9072,-1.9072,-1.9072,-1.9072,-1.9072,-1.9072,-1.9072,-1.9072,-1.9245,-2.0216,-1.9806,-1.9212,-2.013,-2.0398,-2.0398,-2.0398,-2.0327,-1.9707,-1.7578,-1.6762,-1.6231,-1.5378,-1.5193,-1.5206,-1.5236,-1.5255,-1.521,-1.5124,-1.5101,-1.5092,-1.5101,-1.5137,0.0,-1.5171,-1.5238,-1.496,-1.4163,-1.329,-1.2439,-1.1577,-1.0698,-1.019,-1.0194,-1.0195,-1.0195,-1.0195,-0.9983,-0.9597,-0.9018,-0.8153,-0.7594,0.0,0.0,0.0,0.0,0.0,0.0,0.0,0.0,0.0,0.0,0.0,0.0,0.0,0.0,0.0,0.0,0.0,0.0,0.0,0.0,0.0,0.0,-1.15,-1.2422,-1.2397,-1.4115,-1.5336,-1.5297,-1.5306,-1.5301,-1.5305,-1.5303,-1.5303,-1.5303,-1.5299,-1.5306,-1.5306,-1.5306,-1.5967,-1.7422,-1.9439,-2.0507,-2.0507,-2.1927,-2.2646,-2.2646,-2.2646,-2.3675,-2.5601,-2.5601,-2.5601,0.0,-2.5601,-2.5601,-2.5601,-2.5601,-2.5601,0.0,0.0,0.0,0.0,0.0,-2.2646,-2.2432,-2.0993,-2.0507,-2.0507,-2.0507,-2.0507,-2.0507,-2.0507,-2.0507,-2.0507,-2.0507,-2.0507,-2.0507,-2.0507,-2.0435,-2.0146,-1.9162,-1.7951,-1.6819,-1.5968,-1.5495,-1.5255,-1.5287,-1.5291,0.0,-1.5196,-1.5188,-1.5188,-1.5188,-1.5228,-1.5248,-1.5231,-1.5289,-1.4997,-1.4196,-1.3655,-1.2841,-1.1617,-1.1033,0.0,0.0,0.0,-1.004,-0.9712,-0.9693,0.0,0.0,0.0,0.0,0.0,0.0,0.0,0.0,-0.8883,-0.8656,0.0,0.0,0.0,0.0,0.0,0.0,0.0,0.0,0.0,0.0,0.0,0.0,0.0,0.0,0.0,0.0,-1.3417,-1.5387,-1.5329,-1.5308,-1.5301,-1.5301,-1.5301,-1.5307,-1.531,-1.5291,-1.5293,-1.5293,-1.5309,-1.5462,-1.587,0.0,0.0,0.0,0.0,-2.107,-2.107,-2.4083,-2.5601,-2.5601,-2.5601,-2.5601,-2.5601,-2.5601,-2.5601,-2.5601,-2.5601,-2.5601,-2.5601,-2.5601,-2.5601,-2.5601,-2.5601,-2.5601,-2.5601,-2.5601,-2.5368,-2.4588,-2.1556,0.0,0.0,-2.0507,-2.0507,-2.0507,-2.0507,-2.0507,-2.0507,-2.0507,-2.0507,-2.0507,-2.0507,-2.0507,-2.0488,-2.0371,-1.9124,-1.7704,-1.6803,-1.599,-1.5423,-1.5319,-1.5303,-1.5305,-1.5299,-1.5305,-1.5297,-1.5297,-1.5309,-1.5297,-1.5297,-1.5303,-1.4995,-1.4197,0.0,0.0,-1.1656,-1.15,-1.113,-1.0254,-1.0195,-0.9886,-0.9172,-0.9133,-0.9133,-0.9133,-0.9133,-0.948,-1.0192,-1.0227,-1.024,-1.0219,-0.8553,-0.8213,0.0,0.0,0.0,0.0,0.0,0.0,0.0,0.0,0.0,0.0,0.0,0.0,0.0,0.0,0.0,-1.4413,-1.4961,-1.5409,-1.5386,-1.5331,-1.53,-1.53,-1.53,-1.5295,-1.5306,-1.5297,-1.5297,-1.5297,-1.5303,-1.653,-1.9342,-1.9436,-1.9743,-2.0485,-2.317,-2.4608,-2.4608,-2.5271,-2.5601,-2.5601,0.0,0.0,-2.5601,-2.5601,-2.5601,-2.5601,-2.5601,-2.5601,-2.5601,-2.5601,-2.5601,-2.5601,-2.5601,-2.5601,-2.5601,-2.5601,-2.385,-2.1381,-2.0721,-2.0507,-2.0507,-2.0507,-2.0507,-2.0507,-2.0507,-2.0507,0.0,-2.0507,-2.0507,-2.0507,-2.0507,-2.0507,-2.0313,-1.9618,-1.9187,-1.8503,-1.6934,-1.6472,-1.6145,-1.5442,-1.5306,-1.5306,-1.5305,-1.5303,-1.5301,-1.5301,-1.5303,-1.5305,-1.5305,-1.5306,-1.4995,-1.4197,-1.41,-1.3382,-1.1656,-1.15,-1.113,-1.0254,-1.0195,-1.0137,-0.9983,-0.9963,-0.9963,-0.9963,-0.9963,-1.0035,-1.0195,-1.0831,-1.1147,-1.113,-1.0076,-0.9693,0.0,0.0,0.0,0.0,0.0,0.0,0.0,0.0,0.0,0.0,0.0,-1.2844,-1.2844,0.0,-1.5404,-1.5407,-1.539,-1.539,-1.5406,-1.5349,-1.5306,-1.5306,-1.5306,-1.5295,-1.5297,-1.5299,-1.5299,-1.5299,-1.6883,-1.8603,-2.0369,-2.0417,-2.0429,-2.0505,-2.216,-2.387,-2.5582,-2.5601,-2.5601,-2.5601,-2.5601,-2.5601,-2.5601,-2.5601,-2.5601,-2.5601,-2.5601,-2.5601,-2.5601,-2.5601,-2.5601,-2.5504,-2.4649,-2.3795,-2.3151,-2.3989,-2.2685,-2.0507,-2.0507,-2.0507,-2.0507,-2.0507,-2.0507,-2.0507,-2.0507,-2.0507,-2.0507,-2.0507,-2.0507,-2.0507,-2.0507,-2.0507,-2.0391,-1.9946,-1.9172,-1.8317,-1.7445,-1.6571,-1.5813,-1.5386,-1.5306,-1.5306,-1.5306,-1.5306,-1.5306,-1.5306,-1.5306,-1.5306,-1.5306,-1.5306,-1.5151,-1.4743,-1.4704,-1.418,-1.2917,-1.2004,-1.1305,-1.0876,-1.0448,-1.0195,-1.0195,-1.0195,-1.0195,-1.0195,-1.0624,-1.0853,-1.0846,-1.1652,-1.2044,-1.2033,-1.1573,-1.1351,0.0,0.0,0.0,0.0,0.0,0.0,0.0,-1.2955,-1.5402,-1.5402,-1.5402,-1.5402,-1.5402,-1.5948,-1.6183,-1.5502,-1.5409,-1.5391,-1.5391,-1.536,-1.5305,-1.5291,-1.5306,-1.53,-1.5294,-1.5306,-1.5577,-1.6232,-1.8838,-2.0405,-2.0392,-2.0405,-2.0429,-2.0505,-2.1148,-2.2801,-2.5562,-2.5601,-2.5601,-2.5601,-2.5601,-2.5601,-2.5601,-2.5601,-2.5601,-2.5601,-2.5601,-2.5601,-2.5601,-2.5601,-2.5601,-2.5446,-2.3814,-2.2202,-2.0976,-2.2105,-2.1655,-2.0507,-2.0507,-2.0507,-2.0507,-2.0507,-2.0507,-2.0507,-2.0507,-2.0507,-2.0507,-2.0507,-2.0507,-2.0507,-2.0507,-2.0507,-2.0468,-2.0294,-1.9169,-1.8062,-1.7715,-1.653,-1.5502,-1.5326,-1.5306,-1.5306,-1.5306,-1.5306,-1.5306,-1.5306,-1.5306,-1.5306,-1.5306,-1.5306,-1.5306,-1.5306,-1.5306,-1.4918,-1.3927,-1.2393,-1.1423,-1.1266,-1.0585,-1.0195,-1.0195,-1.0351,-1.0448,-1.0448,-1.1305,-1.1753,-1.1753,-1.2556,-1.2951,-1.2942,-1.3043,-1.2921,-1.4825,-1.4826,-1.4748,-1.4358,-1.2547,-1.0775,0.0,0.0,-1.5402,-1.5402,-1.5402,-1.5402,-1.5402,-1.7939,-1.8996,-1.5898,-1.5391,-1.5391,-1.5391,-1.539,-1.5374,-1.5306,-1.5306,-1.5308,-1.5293,-1.5308,-1.6561,-1.9609,-2.0189,-2.0395,-2.0408,-2.0398,-2.0429,-2.0505,-2.3442,-2.5213,-2.5601,-2.5601,-2.5601,-2.5601,-2.5601,-2.5601,-2.5601,-2.5601,-2.5601,-2.5601,-2.5601,-2.5601,-2.5601,-2.5601,-2.5601,-2.5485,-2.4261,-2.3079,-2.1913,-2.1073,-2.0663,-2.0507,-2.0507,-2.0507,-2.0507,-2.0507,-2.0507,-2.0507,-2.0507,-2.0507,-2.0507,-2.0507,-2.0507,-2.0507,-2.0507,-2.0507,-2.0294,-1.9521,-1.9193,-1.863,-1.7078,-1.6592,-1.6223,-1.5444,-1.5306,-1.5306,-1.5306,-1.5306,-1.5306,-1.5306,-1.5306,-1.5306,-1.5306,-1.5306,-1.5306,-1.5306,-1.5306,-1.4667,-1.3077,-1.2065,-1.1169,-1.039,-1.0254,-1.0195,-1.0195,-1.0935,-1.1344,-1.1344,-1.2201,-1.2649,-1.2669,-1.3466,-1.3816,-1.3778,-1.4549,-1.4089,-1.5391,-1.4651,-1.4125,-1.5157,-1.4339,-1.3272,-1.3266,-1.4365,-1.5402,-1.5402,-1.5402,-1.5402,-1.5402,-1.8251,-1.9465,0.0,-1.5391,-1.5391,-1.5391,-1.5391,-1.6131,-1.8146,-1.6564,-1.5306,-1.5306,-1.71,-1.8858,-2.0286,-2.0402,-2.0408,-2.0404,-2.0444,-2.0914,-2.1927,-2.4339,-2.5601,-2.5601,-2.5601,-2.5601,-2.5601,-2.5601,-2.5601,-2.5601,-2.5601,-2.5601,-2.5601,-2.5601,-2.5601,-2.5601,-2.5601,-2.5601,-2.5504,-2.4511,-2.3523,-2.2554,-2.1558,-2.0896,-2.0507,-2.0507,-2.0507,-2.0507,-2.0507,-2.0507,-2.0507,-2.0507,-2.0507,-2.0507,-2.0507,-2.0507,-2.0507,-2.0507,-2.0507,-2.0274,-1.9405,-1.8803,-1.8103,-1.6864,-1.6203,-1.5735,-1.5366,-1.5306,-1.5306,-1.5306,-1.5306,-1.5306,-1.5306,-1.5306,-1.5306,-1.5306,-1.5306,-1.5306,-1.5306,-1.5306,-1.4822,-1.3657,-1.2765,-1.1889,-1.1014,-1.0487,-1.0195,-1.0195,-1.1033,-1.15,-1.15,-1.2841,-1.356,-1.356,-1.4363,-1.4714,-1.4673,-1.5038,-1.4782,-1.5994,-1.4845,-1.3813,-1.5079,-1.6112,-1.6819,-1.6817,-1.6824,-1.6827,-1.6827,-1.6066,-1.5402,-1.5402,-1.7452,-1.8332,-1.5819,-1.541,-1.539,-1.5391,-1.5391,-1.6678,-2.0123,-1.8261,-1.658,-1.6271,-1.8335,-1.988,-2.0363,-2.0402,-2.0402,-2.0408,-2.0452,-2.1043,-2.228,-2.4455,-2.5601,-2.5601,-2.5601,-2.5601,-2.5601,-2.5601,-2.5601,-2.5601,-2.5601,-2.5601,-2.5601,-2.5601,-2.5601,-2.5601,-2.5601,-2.5601,-2.5504,-2.4646,-2.3908,-2.3212,-2.2102,-2.1325,-2.0837,-2.0837,-2.0837,-2.0837,-2.0837,-2.0682,-2.0507,-2.0507,-2.0507,-2.0507,-2.0507,-2.0507,-2.0507,-2.0507,-2.0507,-2.0274,-1.9405,-1.8531,-1.7657,-1.6786,-1.591,-1.5306,-1.5306,-1.5306,-1.5306,-1.5306,-1.5306,-1.5306,-1.5306,-1.5306,-1.5306,-1.5306,-1.5306,-1.5306,-1.5306,-1.5306,-1.4976,-1.4178,-1.3307,-1.2436,-1.1559,-1.0682,-1.0312,-1.0545,-1.1402,-1.1967,-1.2218,-1.3675,-1.4431,-1.4431,-1.5012,-1.5276,-1.5238,-1.5215,-1.5168,-1.7455,-1.6656,-1.5332,-1.5391,-1.7886,-2.0344,-2.0344,-2.0404,-2.0437,-2.0437,-1.7744,-1.5402,-1.5402,-1.5499,-1.5519,-1.5422,-1.5402,-1.5406,-1.5391,-1.5391,-1.6646,-2.0009,-2.0308,-1.9802,0.0,-1.8164,-1.8587,-2.0266,-2.0402,-2.0408,-2.0407,-2.0396,-2.0457,-2.0565,-2.3831,-2.5601,-2.5601,-2.5601,-2.5601,-2.5601,-2.5601,-2.5601,-2.5601,-2.5601,-2.5601,-2.5601,-2.5601,-2.5601,-2.5601,-2.5601,-2.5601,-2.5504,-2.4646,-2.4275,-2.4042,-2.2335,-2.1675,-2.1655,-2.1655,-2.1655,-2.1655,-2.1655,-2.1131,-2.0507,-2.0507,-2.0507,-2.0507,-2.0507,-2.0507,-2.0507,-2.0507,-2.0507,-2.0274,-1.9405,-1.8531,-1.7657,-1.6786,-1.591,-1.5306,-1.5306,-1.5306,-1.5306,-1.5306,-1.5306,-1.5306,-1.5306,-1.5306,-1.5306,-1.5306,-1.5306,-1.5306,-1.5306,-1.5306,-1.4976,-1.4178,-1.3307,-1.2436,-1.1559,-1.0682,-1.0585,-1.1423,-1.2298,-1.3153,-1.4003,-1.484,-1.5267,-1.5267,-1.5287,-1.5292,-1.5298,-1.5238,-1.5196,-1.611,-1.6695,-1.6851,-1.5683,-1.6268,-1.7711,-1.9972,-1.8764,-1.7803,-2.0125,-1.7822,-1.5402,-1.5402,-1.5402,-1.5402,-1.5402,-1.5402,-1.5405,-1.5391,-1.7308,-1.9136,-2.0273,-1.9728,0.0,0.0,0.0,0.0,-1.9532,-2.0073,-2.0402,-2.0408,-2.0396,-2.0687,-2.1283,-2.2405,-2.3578,-2.4724,-2.4744,-2.5035,-2.5601,-2.5601,-2.5601,-2.5601,-2.5601,-2.5601,-2.5601,-2.5601,-2.5601,-2.5601,-2.5601,-2.5601,-2.5562,-2.5287,-2.4802,-2.4158,-2.2998,-2.2552,-2.2396,-2.1286,-2.0896,-2.0896,-2.0896,-2.0721,-2.0507,-2.0507,-2.0507,-2.0507,-2.0507,-2.0507,-2.0507,-2.0507,-2.0507,-2.0274,-1.9405,-1.898,-1.8511,-1.7657,-1.6784,-1.6165,-1.6165,-1.5697,-1.5306,-1.5306,-1.5306,-1.5306,-1.5306,-1.5306,-1.5306,-1.5306,-1.5306,-1.5306,-1.5306,-1.5306,-1.4976,-1.4178,-1.383,-1.3288,-1.2415,-1.2085,-1.2065,-1.2357,-1.3191,-1.3791,-1.4081,-1.4898,-1.5306,-1.5306,-1.5306,-1.5292,-1.53,-1.5286,-1.5241,-1.6169,-1.7143,-1.7864,-1.7359,-1.7224,-1.7634,-1.9237,-1.7908,-1.6788,-1.8407,-1.6964,-1.5402,-1.5402,-1.5402,-1.5402,-1.5402,-1.5911,-1.6323,-1.6327,-1.8704,-2.0426,-2.0399,-1.9751,-1.9593,0.0,0.0,0.0,-1.9609,-2.0073,-2.0402,-2.0392,-2.0693,-2.1117,-2.1685,-2.2305,-2.317,-2.4294,-2.4608,-2.5054,-2.5601,-2.5601,-2.5601,-2.5601,-2.5601,-2.5601,-2.5601,-2.5601,-2.5601,-2.5601,-2.5601,-2.5601,-2.5601,-2.5601,-2.5268,-2.4627,-2.3445,-2.3001,-2.2804,-2.1403,-2.0934,-2.0934,-2.0934,-2.0721,-2.0507,-2.0507,-2.0507,-2.0507,-2.0507,-2.0507,-2.0507,-2.0507,-2.0507,-2.0352,-1.9791,-1.9424,-1.9057,-1.8492,-1.7445,-1.6592,-1.6592,-1.5891,-1.5306,-1.5306,-1.5306,-1.5306,-1.5306,-1.5306,-1.5306,-1.5306,-1.5306,-1.5306,-1.5306,-1.5306,-1.5093,-1.4568,-1.4275,-1.3869,-1.3307,-1.298,-1.2941,-1.325,-1.3791,-1.4236,-1.4528,-1.5034,-1.5306,-1.5306,-1.5306,-1.5297,-1.5297,-1.5304,-1.5286,-1.7435,-1.7981,-1.8508,-2.0109,-2.05,-2.0074,-1.8485,-1.8068,-1.751,-1.5753,-1.5324,-1.5246,0.0,0.0,-1.5402,-1.5402,-1.6869,-1.8023,-1.812,-1.9502,-2.0476,0.0,0.0,0.0,0.0,0.0,0.0,-2.0537,0.0,-2.0488,-2.0523,-2.1321,-2.1762,-2.177,-2.3376,-2.4255,-2.4294,-2.5151,-2.5601,-2.5601,-2.5601,-2.5601,-2.5601,-2.5601,-2.5601,-2.5601,-2.5601,-2.5601,-2.5601,-2.5601,-2.5601,-2.5601,-2.5601,-2.5601,-2.5387,-2.3698,-2.304,-2.2884,-2.2008,-2.1675,-2.1636,-2.1636,-2.1112,-2.0507,-2.0507,-2.0507,-2.0507,-2.0507,-2.0507,-2.0507,-2.0507,-2.0507,-2.0507,-2.0507,-1.9869,-1.9271,-1.9271,-1.7892,-1.667,-1.667,-1.593,-1.5306,-1.5306,-1.5306,-1.5306,-1.5306,-1.5306,-1.5306,-1.5306,-1.5306,-1.5306,-1.5306,-1.5306,-1.5306,-1.5306,-1.4607,-1.4159,-1.4159,-1.3385,-1.3309,-1.4139,-1.4159,-1.4528,-1.5287,-1.5306,-1.5306,-1.5306,-1.5306,-1.5306,-1.5306,-1.5297,-1.5302,-1.6286,-1.7925,-1.9972,-2.0381,-2.0507,-2.0394,-1.9959,-1.8903,-1.751,-1.5753,-1.4407,-1.3137,-1.1848,-1.3684,-1.5403,-1.5406,-1.6869,0.0,-1.9756,-2.0252,0.0,-2.0404,0.0,-2.0651,-2.1304,-2.1375,0.0,0.0,-2.1743,-2.1649,-2.2311,-2.2551,-2.2666,-2.2666,-2.3107,-2.3637,-2.4294,-2.5151,-2.5601,-2.5601,-2.5601,-2.5601,-2.5601,-2.5601,-2.5601,-2.5601,-2.5601,-2.5601,-2.5601,-2.5601,-2.5601,-2.5601,-2.5601,-2.5601,-2.5465,-2.4375,-2.3562,-2.2884,-2.2008,-2.1306,-2.0818,-2.0818,-2.0663,-2.0507,-2.0507,-2.0507,-2.0507,-2.0507,-2.0507,-2.0507,-2.0507,-2.0507,-2.0507,-2.0507,-2.0332,-2.0179,-2.0179,-1.88,-1.7579,-1.7579,-1.6336,-1.5306,-1.5306,-1.5306,-1.5306,-1.5306,-1.5306,-1.5306,-1.5306,-1.5306,-1.5306,-1.5306,-1.5306,-1.5306,-1.5306,-1.5112,-1.4995,-1.4995,-1.4784,-1.4764,-1.4976,-1.4995,-1.5093,-1.5306,-1.5306,-1.5306,-1.5306,-1.5306,-1.5306,-1.5306,-1.5299,-1.5295,-1.7769,-1.9037,-2.0498,-2.0498,-2.0504,-2.0237,-1.9243,-1.7887,-1.6157,-1.3663,-1.2806,-1.2044,-1.0578,-1.2687,-1.4641,0.0,0.0,0.0,-1.9325,-2.0057,-2.0483,0.0,-2.0426,0.0,-2.1614,-2.1694,-2.2204,0.0,-2.2756,-2.2475,-2.2972,-2.3359,-2.3564,-2.3567,-2.3945,-2.4377,-2.488,-2.5365,-2.5601,-2.5601,-2.5601,-2.5601,-2.5601,-2.5601,-2.5601,-2.5601,0.0,-2.5601,-2.5601,-2.5601,-2.5601,-2.5601,-2.5601,-2.5601,-2.5485,-2.4627,-2.3986,-2.3387,-2.2141,-2.1403,-2.0973,-2.0604,-2.0507,-2.0507,-2.0507,-2.0507,-2.0507,-2.0507,-2.0507,-2.0507,-2.0507,-2.0507,-2.0507,-2.0507,-2.0507,-2.0507,-2.0507,-1.9422,-1.8239,-1.7482,-1.6239,-1.5306,-1.5306,-1.5306,-1.5306,-1.5306,-1.5306,-1.5306,-1.5306,-1.5306,-1.5306,-1.5306,-1.5306,-1.5306,-1.5306,-1.5306,-1.5306,-1.5306,-1.5306,-1.5306,-1.5306,-1.5306,-1.5306,-1.5306,-1.5306,-1.5306,-1.5306,-1.5306,-1.5306,-1.5306,-1.5306,-1.5306,-2.0226,-2.0498,-2.0498,-2.0498,-2.0498,-1.986,-1.7436,-1.611,-1.4354,-1.0712,-1.093,-1.1438,-1.0285,-1.1906,-1.3468,-1.3585,0.0,-1.7744,-1.7979,-1.9353,-2.0389,-2.0499,-2.0446,-2.0794,-2.1788,-2.1878,-2.2566,-2.4251,-2.3731,-2.3357,-2.3345,-2.405,-2.4463,-2.4469,-2.521,-2.5601,-2.5601,-2.5601,-2.5601,-2.5601,-2.5601,-2.5601,-2.5601,-2.5601,-2.5601,-2.5601,-2.5601,0.0,-2.5601,-2.5601,-2.5601,-2.5601,-2.5601,-2.5601,-2.5504,-2.4744,-2.4391,-2.408,-2.2568,-2.1889,-2.1578,-2.076,-2.0507,-2.0507,-2.0507,-2.0507,-2.0507,-2.0507,-2.0507,-2.0507,-2.0507,-2.0507,-2.0507,-2.0507,-2.0507,-2.0507,-2.0507,-1.9713,-1.8552,-1.6922,-1.5891,-1.5306,-1.5306,-1.5306,-1.5306,-1.5306,-1.5306,-1.5306,-1.5306,-1.5306,-1.5306,-1.5306,-1.5306,-1.5306,-1.5306,-1.5306,-1.5306,-1.5306,-1.5306,-1.5306,-1.5306,-1.5306,-1.5306,-1.5306,-1.5306,-1.5306,-1.5306,-1.5306,-1.5306,-1.5306,-1.5306,-1.5306,-2.044,-2.0498,-2.0498,-2.0498,-2.0498,-1.9662,-1.6428,-1.5541,-1.4027,-0.9149,-0.9462,-1.0244,-0.9095,-1.0579,-1.22,-1.2925,-1.4623,-1.6359,-1.7805,-1.8864,-1.9746,0.0,-2.048,-2.1081,-2.2627,-2.2775,0.0,0.0,0.0,-2.5147,-2.5153,-2.5301,-2.5365,-2.5365,-2.5523,-2.5601,-2.5601,-2.5601,-2.5601,-2.5601,-2.5601,-2.5601,-2.5601,-2.5601,-2.5601,-2.5601,-2.5601,0.0,-2.5601,-2.5601,-2.5601,-2.5601,-2.5601,-2.5601,-2.5582,-2.5423,-2.4918,-2.4255,-2.3945,-2.2918,-2.1578,-2.076,-2.0507,-2.0507,-2.0507,-2.0507,-2.0507,-2.0507,-2.0507,-2.0507,-2.0507,-2.0507,-2.0507,-2.0507,-2.0507,-2.0507,-2.0507,-1.9247,-1.7812,-1.6806,-1.5891,-1.5306,-1.5306,-1.5306,-1.5306,-1.5306,-1.5306,-1.5306,-1.5306,-1.5306,-1.5306,-1.5306,-1.5306,-1.5306,-1.5306,-1.5306,-1.5306,-1.5306,-1.5306,-1.5306,-1.5306,-1.5306,-1.5306,-1.5306,-1.5306,-1.5306,-1.5306,-1.5306,-1.5306,-1.5306,-1.5306,-1.5306,-2.0498,-2.0498,-2.0498,-2.0498,-1.9836,-1.8295,-1.4826,0.0,0.0,-0.8523,-0.909,-0.9852,-0.8392,-1.0033,-1.1732,-1.2163,-1.3626,-1.5323,-1.7081,-1.8047,-1.9056,-2.0344,-2.046,-2.1126,-2.284,-2.2998,-2.3712,-2.546,0.0,-2.5609,-2.5609,-2.5595,-2.5601,-2.5601,-2.5601,-2.5601,-2.5601,-2.5601,-2.5601,-2.5601,-2.5601,-2.5601,-2.5601,-2.5601,-2.5601,-2.5601,-2.5601,0.0,-2.5601,-2.5601,-2.5601,-2.5601,-2.5601,-2.5601,-2.5601,-2.5601,-2.5346,-2.4918,-2.4449,-2.3462,-2.2241,-2.1403,-2.0837,-2.0585,-2.0995,-2.0837,-2.0507,-2.0507,-2.0507,-2.0507,-2.0507,-2.0507,-2.0507,-2.0507,-2.0507,-2.0507,-2.0507,-1.9131,-1.7771,-1.7365,-1.6202,-1.5306,-1.5306,-1.5306,-1.5306,-1.5306,-1.5306,-1.5306,-1.5306,-1.5306,-1.5306,-1.5306,-1.5306,-1.5306,-1.5306,-1.5306,-1.5306,-1.5306,-1.5306,-1.5306,-1.5306,-1.5306,-1.5306,-1.5306,-1.5306,-1.5306,-1.5306,-1.5306,-1.5306,-1.5306,-1.5306,-1.5306,-2.0498,-2.0498,-2.0498,-2.0498,-1.8958,-1.6656,-1.3676,-1.247,-1.1246,-0.8541,-0.9227,-0.9833,-0.8255,-0.9818,-1.138,-1.1575,-1.2863,-1.4445,-1.6184,-1.7283,-1.8493,-2.0045,-2.0338,0.0,-2.2827,-2.2991,0.0,-2.5466,0.0,0.0,-2.5601,-2.5601,-2.5601,-2.5601,-2.5601,-2.5601,-2.5601,-2.5601,-2.5601,-2.5601,-2.5601,-2.5601,-2.5601,-2.5601,-2.5601,-2.5601,-2.5601,0.0,0.0,-2.5601,-2.5601,-2.5601,-2.5601,-2.5601,-2.5601,-2.5601,-2.5601,-2.5504,-2.4821,-2.3892,-2.2923,-2.2413,-2.1461,-2.0624,-2.1248,-2.0993,-2.0507,-2.0507,-2.0507,-2.0507,-2.0507,-2.0507,-2.0507,-2.0507,-2.0507,-2.0507,-2.0507,-1.9286,-1.8121,-1.7946,-1.6647,-1.5522,-1.5327,-1.5306,-1.5306,-1.5306,-1.5306,-1.5306,-1.5306,-1.5306,-1.5306,-1.5306,-1.5306,-1.5306,-1.5306,-1.5306,-1.5306,-1.5306,-1.5306,-1.5306,-1.5306,-1.5306,-1.5306,-1.5306,-1.5306,-1.5306,-1.5306,-1.5306,-1.5306,-1.5306,-1.5306,-1.5306,-2.0498,-2.0498,-2.0498,-2.0498,-1.8042,-1.5273,-1.3929,0.0,-1.1402,-0.9321,-0.9636,-1.0009,-0.9057,-0.972,-1.0676,-1.1477,-1.2396,-1.3609,-1.5273,-1.6953,-1.8313,-1.9209,0.0,0.0,-2.2843,-2.2996,0.0,0.0,0.0,0.0,-2.5601,-2.5601,-2.5601,-2.5601,-2.5601,-2.5601,-2.5601,-2.5601,-2.5601,-2.5601,-2.5601,-2.5601,-2.5601,-2.5601,-2.5601,-2.5601,-2.5601,0.0,0.0,-2.5601,-2.5601,-2.5601,-2.5601,-2.5601,-2.5601,-2.5601,-2.5601,-2.5582,-2.5504,-2.4397,-2.3115,-2.3831,-2.2449,-2.0507,-2.0585,-2.0565,-2.0507,-2.0507,-2.0507,-2.0507,-2.0507,-2.0507,-2.0507,-2.0507,-2.0507,-2.0507,-2.0507,-1.9752,-1.8841,-1.8043,-1.7134,-1.6223,-1.5444,-1.5306,-1.5306,-1.5306,-1.5306,-1.5306,-1.5306,-1.5306,-1.5306,-1.5306,-1.5306,-1.5306,-1.5306,-1.5306,-1.5306,-1.5306,-1.5306,-1.5306,-1.5306,-1.5306,-1.5306,-1.5306,-1.5306,-1.5306,-1.5306,-1.5306,-1.5306,-1.5306,-1.5306,-1.5306,-2.0498,-2.0498,-2.0498,-2.0498,-1.8452,-1.5956,-1.4123,-1.3073,-1.1828,-0.9473,-0.9693,-1.0028,-0.9152,-0.929,-0.9798,-1.0676,-1.0677,-1.1343,-1.3572,-1.4902,-1.6342,-1.8208,-1.9182,0.0,0.0,0.0,-2.3722,0.0,0.0,0.0,-2.5601,-2.5601,-2.5601,-2.5601,-2.5601,-2.5601,-2.5601,-2.5601,-2.5601,-2.5601,-2.5601,-2.5601,-2.5601,-2.5601,-2.5601,-2.5601,-2.5601,0.0,0.0,-2.4821,-2.4511,-2.4047,-2.4047,-2.4047,-2.4105,-2.4627,-2.4821,-2.4899,-2.5423,-2.4455,-2.3059,-2.3406,-2.2141,-2.0585,-2.1073,-2.0876,-2.0507,-2.0507,-2.0507,-2.0507,-2.0507,-2.0507,-2.0507,-2.0507,-2.0507,-2.0507,-2.0507,-1.981,-1.9096,-1.8744,-1.7561,-1.6495,-1.6145,-1.5658,-1.5306,-1.5306,-1.5306,-1.5306,-1.5306,-1.5306,-1.5306,-1.5306,-1.5306,-1.5306,-1.5306,-1.5306,-1.5306,-1.5306,-1.5306,-1.5306,-1.5306,-1.5306,-1.5306,-1.5306,-1.5306,-1.5306,-1.5306,-1.5306,-1.5306,-1.5306,-1.5306,-1.558,-2.0226,-2.0148,-1.9797,-1.9953,-1.8276,-1.6112,-1.424,-1.3287,-1.2159,-0.9862,-0.9672,-0.9734,-0.9112,-0.8997,-0.9194,-0.9817,-0.9838,-1.0503,-1.2575,-1.3809,-1.5248,-1.7276,0.0,-2.0109,0.0,-2.3315,0.0,0.0,0.0,0.0,-2.5601,-2.5601,-2.5601,-2.5601,-2.5601,-2.5601,-2.5601,-2.5601,-2.5601,-2.5601,-2.5601,-2.5601,-2.5601,-2.5601,-2.5601,-2.5582,-2.5232,0.0,0.0,-2.4025,-2.3542,-2.3001,-2.3001,-2.3001,-2.3117,-2.3986,-2.4294,-2.4411,-2.5307,-2.4455,-2.3001,-2.3001,-2.1872,-2.0604,-2.117,-2.0954,-2.0507,-2.0507,-2.0507,-2.0507,-2.0507,-2.0507,-2.0507,-2.0507,-2.0507,-2.0507,-2.0507,-2.0024,-1.9502,-1.9252,-1.8203,-1.7214,-1.6689,-1.6087,-1.5599,-1.5347,-1.5306,-1.5306,-1.5306,-1.5306,-1.5306,-1.5306,-1.5306,-1.5306,-1.5306,-1.5306,-1.5306,-1.5306,-1.5306,-1.5306,-1.5306,-1.5306,-1.5306,-1.5306,-1.5541,-1.5677,-1.5697,-1.5947,-1.6064,-1.6064,-1.6064,-1.6532,-1.9583,-1.9289,-1.8156,-1.8685,-1.7107,-1.5196,-1.43,-1.3423,-1.2315,-1.0625,-0.9613,-0.9011,-0.8994,-0.8997,-0.8999,-0.9018,-1.0443,-1.1852,-1.2695,-1.4296,-1.5697,0.0,0.0,-1.9867,-2.1544,0.0,0.0,0.0,0.0,0.0,-2.5601,-2.5601,-2.5601,-2.5601,-2.5601,-2.5601,-2.5601,-2.5601,-2.5601,-2.5601,-2.5601,-2.5601,-2.5601,-2.5601,-2.5601,0.0,0.0,0.0,0.0,-2.3367,-2.302,-2.3001,-2.3001,-2.3001,-2.3117,-2.3986,-2.4294,-2.4411,-2.5307,-2.4455,-2.3001,-2.3001,-2.1872,-2.0507,-2.0507,-2.0507,-2.0507,-2.0507,-2.0507,-2.0507,-2.0507,-2.0507,-2.0507,-2.0507,-2.0507,-2.0507,-2.0507,-2.0488,-2.0238,-1.9366,-1.9193,-1.863,-1.6903,-1.6592,-1.6281,-1.5425,-1.5306,-1.5306,-1.5306,-1.5306,-1.5306,-1.5306,-1.5306,-1.5306,-1.5306,-1.5306,-1.5306,-1.5306,-1.5306,-1.5306,-1.5306,-1.5306,-1.5306,-1.5306,-1.6145,-1.6592,-1.6592,-1.7443,-1.7868,-1.7868,-1.7868,-1.8336,-1.5986,-1.6613,-1.7007,-1.6579,-1.5488,-1.428,-1.3404,-1.257,-1.1657,-1.0529,-1.0085,-0.9893,-0.9894,-0.9408,-0.9389,-1.058,-1.0735,-1.1207,-1.2598,0.0,0.0,-1.6496,-1.9685,-2.2,0.0,0.0,0.0,0.0,0.0,0.0,-2.5601,-2.5601,-2.5601,-2.5601,-2.5601,-2.5601,-2.5601,-2.5601,-2.5601,-2.5601,-2.5601,-2.5601,-2.5601,-2.5601,-2.5601,0.0,0.0,0.0,0.0,-2.3367,-2.2649,-2.2105,-2.2105,-2.2105,-2.2144,-2.2413,-2.2899,-2.3445,-2.3736,-2.3076,-2.2105,-2.2105,-2.1384,-2.0507,-2.0507,-2.0507,-2.0507,-2.0507,-2.0507,-2.0507,-2.0507,-2.0507,-2.0507,-2.0507,-2.0507,-2.0507,-2.0507,-2.0507,-2.041,-2.0141,-1.9618,-1.9018,-1.8475,-1.7872,-1.719,-1.632,-1.6184,-1.597,-1.5386,-1.5306,-1.5306,-1.5306,-1.5306,-1.5306,-1.5306,-1.5306,-1.5306,-1.5306,-1.5306,-1.5306,-1.5306,-1.5306,-1.558,-1.6184,-1.6456,-1.6883,-1.7482,-1.7771,-1.7907,-1.7907,-1.8511,-1.8941,-1.3665,-1.4393,-1.5177,-1.4962,-1.4241,-1.3384,-1.2508,-1.1927,-1.1325,-1.047,-1.0045,-0.9815,-0.9816,-0.9369,-0.935,-1.0443,-1.0699,-1.123,0.0,0.0,0.0,-1.7409,0.0,0.0,0.0,0.0,0.0,0.0,0.0,0.0,-2.5601,-2.5601,-2.5601,-2.5601,-2.5601,-2.5601,-2.5601,-2.5601,-2.5601,-2.5601,-2.5601,-2.5601,-2.5601,-2.5601,-2.5601,0.0,0.0,0.0,0.0,-2.3367,-2.2687,-2.2182,-2.2182,-2.1988,-2.1772,-2.2432,-2.2607,-2.259,-2.3251,-2.2707,-2.1694,-2.1694,-2.117,-2.0507,-2.0507,-2.0507,-2.0507,-2.0507,-2.0507,-2.0507,-2.0507,-2.0507,-2.0507,-2.0507,-2.0507,-2.0507,-2.0507,-2.0507,-2.0507,-2.0507,-2.0063,-1.9599,-1.9252,-1.8744,-1.8084,-1.7212,-1.6806,-1.6398,-1.5852,-1.5502,-1.5306,-1.5306,-1.5306,-1.5306,-1.5306,-1.5306,-1.5306,-1.5306,-1.5306,-1.5306,-1.5306,-1.5306,-1.5716,-1.6573,-1.6922,-1.7523,-1.8395,-1.8723,-1.8878,-1.8898,-1.9441,-1.9696,0.0,-1.2624,-1.2898,-1.3637,-1.3228,-1.2411,-1.1593,-1.1418,0.0,-1.0451,-0.9653,-0.9109,-0.917,-0.9135,-0.9156,-0.9331,-1.0625,-1.1933,0.0,-1.4561,0.0,0.0,-2.0063,0.0,0.0,0.0,0.0,0.0,0.0,0.0,-2.5601,-2.5601,-2.5601,-2.5601,-2.5601,-2.5601,-2.5601,-2.5601,-2.5601,-2.5601,-2.5601,-2.5601,-2.5601,-2.5601,-2.5601,0.0,0.0,0.0,0.0,-2.3445,-2.3098,-2.3098,-2.3098,-2.2552,-2.1986,-2.3539,-2.3093,-2.1927,-2.3498,-2.3015,-2.1694,-2.1694,-2.1151,-2.049,-2.049,-2.051,-2.0507,-2.0507,-2.0507,-2.0507,-2.0507,-2.0507,-2.0507,-2.0507,-2.0507,-2.0507,-2.0507,-2.0507,-2.0507,-2.0507,-2.0507,-2.0238,-1.9424,-1.929,-1.8997,-1.8121,-1.7309,-1.6767,-1.6709,-1.593,-1.5386,-1.5386,-1.5347,-1.5306,-1.5306,-1.5306,-1.5306,-1.5306,-1.5306,-1.5306,-1.5306,-1.5366,-1.5794,-1.6689,-1.7618,-1.8472,-1.929,-2.0102,-2.0507,-2.0507,-2.0507,-2.0527,-1.0001,0.0,-1.171,-1.1301,-1.1048,-1.0834,0.0,-1.0586,-1.0532,-1.0338,-1.0146,-1.0206,-1.0871,-1.0447,-1.0624,-1.2571,-1.2676,-1.3256,-1.5479,0.0,0.0,-2.0035,-2.0922,0.0,0.0,0.0,0.0,0.0,0.0,-2.5601,-2.5601,-2.5601,-2.5601,-2.5601,-2.5601,-2.5601,-2.5601,-2.5601,-2.5601,-2.5601,-2.5601,-2.5601,-2.5601,-2.5601,-2.5601,0.0,0.0,0.0,-2.5229,-2.4355,-2.3986,-2.3986,-2.3986,-2.3462,-2.2668,-2.2413,-2.2044,-2.1675,-2.1459,-2.1539,-2.1694,-2.1694,-2.1165,-2.05,-2.05,-2.0504,-2.0507,-2.0507,-2.0507,-2.0507,-2.0507,-2.0507,-2.0507,-2.0507,-2.0507,-2.0507,-2.0507,-2.0507,-2.0507,-2.0507,-2.0507,-2.043,-2.0238,-2.0199,-1.9908,-1.9036,-1.8727,-1.8358,-1.7676,-1.6823,-1.6281,-1.6281,-1.5697,-1.5306,-1.5306,-1.5306,-1.5306,-1.5306,-1.5306,-1.5306,-1.5306,-1.593,-1.6707,-1.7579,-1.9111,-1.9983,-2.0199,-2.0391,-2.0507,-2.0507,-2.0507,-2.0837,-0.9666,-1.0495,-1.1398,-1.0951,-1.0561,-1.0406,-1.0775,-1.0255,-0.9811,-1.0222,-1.0303,-1.056,-1.1404,-1.1172,-1.1426,-1.3203,-1.3781,0.0,0.0,0.0,-1.9521,-2.0391,0.0,0.0,0.0,0.0,0.0,0.0,0.0,-2.5601,-2.5601,-2.5601,-2.5601,-2.5601,-2.5601,-2.5601,-2.5601,-2.5601,-2.5601,-2.5601,-2.5601,-2.5601,-2.5601,-2.5601,-2.5601,0.0,0.0,0.0,-2.5562,-2.5093,-2.4899,-2.4899,-2.4899,-2.4125,-2.3001,-2.2918,-2.2141,-2.1131,-2.1073,-2.1092,-2.1211,-2.1612,-2.1178,-2.0509,-2.0499,-2.0508,-2.0506,-2.0506,-2.0497,-2.0507,-2.0507,-2.0507,-2.0507,-2.0507,-2.0507,-2.0507,-2.0507,-2.0507,-2.0507,-2.0507,-2.0507,-2.0507,-2.0507,-2.0507,-2.0332,-1.9869,-1.9463,-1.9038,-1.857,-1.7734,-1.7037,-1.6631,-1.6184,-1.5735,-1.5326,-1.5306,-1.5306,-1.5306,-1.5677,-1.5891,-1.5891,-1.6726,-1.762,-1.8472,-1.983,-2.0507,-2.0507,-2.0507,-2.0507,-2.0507,-2.0876,-2.1286,-1.0366,-1.1021,-1.1632,-1.1378,-1.0892,-1.0658,-1.1339,-1.0312,-0.944,-1.0319,-1.0498,-1.0738,-1.1543,-1.1698,0.0,-1.3211,0.0,0.0,-1.8904,-1.931,-1.9677,0.0,0.0,0.0,0.0,0.0,0.0,0.0,0.0,-2.5465,-2.5582,-2.5465,-2.5465,-2.5601,-2.5601,-2.5601,-2.5601,-2.5601,-2.5601,-2.5601,-2.5601,-2.5601,-2.5601,-2.5601,-2.5601,-2.5601,0.0,0.0,-2.5601,-2.5601,-2.5601,-2.5601,-2.5601,-2.461,-2.327,-2.3889,-2.2743,-2.0993,-2.1811,-2.1558,-2.0998,-2.1744,-2.1405,-2.0671,-2.0536,-2.051,-2.0492,-2.0492,-2.0493,-2.0507,-2.0507,-2.0507,-2.0507,-2.0507,-2.0507,-2.0507,-2.0507,-2.0507,-2.0507,-2.0507,-2.0507,-2.0507,-2.0507,-2.0507,-2.0507,-2.0507,-1.9869,-1.9405,-1.9405,-1.8647,-1.7812,-1.7078,-1.6883,-1.6493,-1.5753,-1.5695,-1.5636,-1.5502,-1.6184,-1.6728,-1.6981,-1.7715,-1.8511,-1.9385,-2.0121,-2.0507,-2.0507,-2.0507,-2.0565,-2.0701,-2.1384,-2.183,-1.1107,-1.1936,-1.2255,-1.0834,-1.0892,-1.136,-1.1476,-1.0762,-1.0358,-1.1216,-1.1396,-1.1656,-1.2441,-1.2595,-1.3372,0.0,0.0,-1.8741,0.0,0.0,0.0,0.0,0.0,0.0,0.0,0.0,0.0,0.0,0.0,-2.4821,-2.5562,-2.4899,-2.4841,-2.5582,-2.5601,-2.5601,-2.5601,-2.5601,-2.5601,-2.5601,-2.5601,-2.5601,-2.5601,-2.5601,-2.5601,-2.5601,0.0,-2.5601,-2.5601,-2.5601,-2.5601,-2.5601,-2.5601,-2.4996,-2.4025,-2.3426,-2.294,-2.2746,-2.3598,-2.3345,-2.2634,-2.277,-2.2265,-2.1466,-2.0724,-2.0506,-2.0495,-2.0495,-2.0506,-2.0507,-2.0507,-2.0507,-2.0507,-2.0507,-2.0507,-2.0507,-2.0507,-2.0507,-2.0507,-2.0507,-2.0507,-2.0507,-2.0507,-2.0507,-2.0507,-2.0507,-2.0391,-2.0294,-2.0294,-1.9541,-1.896,-1.8824,-1.8142,-1.7655,-1.7519,-1.7499,-1.719,-1.6456,-1.6534,-1.7253,-1.8747,-1.8921,-1.9405,-2.0274,-2.043,-2.0507,-2.0507,-2.0507,-2.0857,-2.152,-2.1636,-2.2491,-1.0726,-1.1454,-1.1807,-1.06,-1.1262,-1.2333,-1.2801,-1.1929,-1.1233,-1.2089,-1.2258,-1.2519,0.0,0.0,-1.5045,-1.7624,0.0,-1.9366,0.0,0.0,0.0,0.0,0.0,0.0,0.0,0.0,0.0,0.0,0.0,0.0,-2.4164,-2.4258,-2.4488,-2.488,-2.5346,-2.5601,-2.5601,-2.5601,-2.5601,-2.5601,-2.5601,-2.5601,-2.5601,-2.5601,-2.5601,-2.5601,0.0,-2.5601,-2.5601,-2.5601,-2.5601,-2.5601,-2.5601,-2.5074,-2.4197,-2.3328,-2.3001,-2.3115,-2.4006,-2.3734,-2.3003,-2.3004,-2.2462,-2.1645,-2.0766,-2.051,-2.0498,-2.0498,-2.0508,-2.0507,-2.0507,-2.0507,-2.0507,-2.0507,-2.0507,-2.0507,-2.0507,-2.0507,-2.0507,-2.0507,-2.0507,-2.0507,-2.0507,-2.0507,-2.0507,-2.0507,-2.0507,-2.0507,-2.0507,-2.016,-1.9716,-1.9252,-1.8841,-1.8414,-1.7946,-1.7907,-1.7929,-1.8008,-1.7561,-1.8084,-1.983,-1.9908,-2.0082,-2.0488,-2.0507,-2.0507,-2.0507,-2.0507,-2.0915,-2.1714,-2.2182,-2.3073,-1.0459,-1.0892,-1.1165,-1.0931,-1.169,-1.2782,-1.384,-1.2949,-1.2231,-1.3462,-1.3709,-1.3846,0.0,-1.5279,0.0,-1.8846,-1.9366,-1.9735,0.0,0.0,0.0,0.0,0.0,0.0,0.0,0.0,0.0,0.0,0.0,0.0,-2.2981,-2.3637,-2.4083,-2.4294,-2.5151,-2.5601,-2.5601,-2.5601,-2.5601,-2.5601,-2.5601,-2.5601,-2.5601,-2.5601,-2.5601,-2.5601,-2.5601,-2.5601,-2.5601,-2.5601,-2.5601,-2.5601,-2.5601,-2.5074,-2.4236,-2.3775,-2.3484,-2.3426,-2.4297,-2.4161,-2.3586,-2.3373,-2.289,-2.2249,-2.1366,-2.111,-2.1102,-2.1096,-2.0932,-2.074,-2.0546,-2.0507,-2.0507,-2.0507,-2.0507,-2.0507,-2.0507,-2.0507,-2.0507,-2.0507,-2.0507,-2.0507,-2.0507,-2.0507,-2.0507,-2.0507,-2.0507,-2.0507,-2.0507,-2.0507,-2.0235,-1.958,-1.9502,-1.923,-1.8567,-1.8315,-1.8589,-1.9444,-1.8686,-1.8898,-2.0449,-2.0507,-2.0507,-2.0507,-2.0507,-2.0507,-2.0507,-2.0507,-2.1015,-2.2027,-2.2687,-2.3581,-1.0965,-1.0912,-1.0756,-1.2255,-1.2099,-1.2027,-1.3722,-1.3373,-1.3415,-1.5918,-1.6424,-1.6182,0.0,-1.664,-1.8045,-1.9038,-1.9888,0.0,0.0,0.0,0.0,0.0,0.0,0.0,0.0,0.0,0.0,0.0,0.0,0.0,-2.2962,-2.3059,-2.3464,-2.4275,-2.5151,-2.5601,-2.5601,-2.5601,-2.5601,-2.5601,-2.5601,-2.5601,-2.5601,-2.5601,-2.5601,-2.5601,-2.5601,-2.5601,-2.5601,-2.5601,-2.5601,-2.5601,-2.5601,-2.5074,-2.4391,-2.5132,-2.4899,-2.4336,-2.519,-2.5465,-2.5274,-2.4462,-2.4218,-2.4043,-2.3182,-2.2911,-2.2909,-2.2845,-2.2238,-2.1442,-2.0682,-2.0507,-2.0507,-2.0507,-2.0507,-2.0507,-2.0507,-2.0507,-2.0507,-2.0507,-2.0507,-2.0507,-2.0507,-2.0507,-2.0507,-2.0507,-2.0507,-2.0507,-2.0507,-2.0507,-2.0488,-2.041,-2.041,-2.0371,-2.0313,-1.958,-1.9482,-2.0352,-1.9599,-1.9521,-2.0468,-2.0507,-2.0507,-2.0507,-2.0507,-2.0507,-2.0507,-2.0507,-2.1325,-2.2904,-2.2962,-2.3892,-1.042,-1.0522,-1.0561,-1.171,-1.2158,-1.2768,-1.4502,-1.5071,-1.5659,-1.7187,-1.7477,-1.7515,-1.7712,0.0,-1.8997,-1.9869,0.0,0.0,0.0,0.0,0.0,0.0,0.0,0.0,0.0,0.0,0.0,0.0,0.0,0.0,0.0,-2.193,-2.259,-2.3464,-2.4336,-2.5054,-2.5582,-2.5601,-2.5601,-2.5601,-2.5601,-2.5601,-2.5601,-2.5601,-2.5601,-2.5601,-2.5601,-2.5601,-2.5601,-2.5601,-2.5601,-2.5601,-2.5601,-2.5404,-2.5151,-2.5485,-2.5385,-2.5151,-2.5485,-2.5601,-2.5465,-2.458,-2.4329,-2.4174,-2.3296,-2.3043,-2.3024,-2.3013,-2.2763,-2.2435,-2.2124,-2.1655,-2.1248,-2.1248,-2.1248,-2.1112,-2.0604,-2.0507,-2.0507,-2.0507,-2.0507,-2.0507,-2.0507,-2.0507,-2.0507,-2.0507,-2.0507,-2.0507,-2.0507,-2.0507,-2.0507,-2.0507,-2.0507,-2.0507,-2.0507,-2.0199,-2.016,-2.0488,-1.9677,-1.9599,-2.0468,-2.0507,-2.0507,-2.0507,-2.0507,-2.0507,-2.0507,-2.0993,-2.185,-2.302,-2.3562,-2.4452,-1.0127,-1.0308,-1.0561,-1.1632,-1.2573,-1.3675,-1.5404,-1.6264,-1.7106,-1.8535,-1.8545,-1.8572,-1.9454,0.0,0.0,0.0,0.0,0.0,0.0,0.0,0.0,0.0,0.0,0.0,0.0,0.0,0.0,0.0,0.0,0.0,0.0,-2.1267,-2.2105,-2.2962,-2.385,-2.4724,-2.5582,-2.5601,-2.5601,-2.5601,-2.5601,-2.5601,-2.5601,-2.5601,-2.5601,-2.5601,-2.5601,-2.5601,-2.5601,-2.5601,-2.5601,-2.5601,-2.5601,-2.5601,-2.5601,-2.5601,-2.5601,-2.5601,-2.5601,-2.5601,-2.5504,-2.4899,-2.4705,-2.4608,-2.3996,-2.3823,-2.3828,-2.3818,-2.3611,-2.3464,-2.3756,-2.2979,-2.2105,-2.2105,-2.1908,-2.1558,-2.0995,-2.0682,-2.0507,-2.0507,-2.0507,-2.0507,-2.0507,-2.0507,-2.0507,-2.0507,-2.0507,-2.0507,-2.0507,-2.0507,-2.0507,-2.0507,-2.0507,-2.0507,-2.0507,-2.0507,-2.0507,-2.0507,-1.9946,-1.9888,-2.0488,-2.0507,-2.0507,-2.0507,-2.074,-2.0876,-2.0876,-2.1714,-2.2552,-2.3426,-2.4025,-2.4763,-1.0283,-1.0308,-1.0717,-1.2392,-1.3461,-1.4586,-1.6327,-1.6718,-1.7461,-2.0069,-1.9857,-1.9474,-2.0342,-1.9791,0.0,-2.0352,0.0,0.0,0.0,0.0,0.0,0.0,0.0,0.0,0.0,0.0,0.0,0.0,0.0,0.0,0.0,-2.1267,-2.2105,-2.2962,-2.385,-2.4724,-2.5582,-2.5601,-2.5601,-2.5601,-2.5601,-2.5601,-2.5601,-2.5601,-2.5601,-2.5601,-2.5601,-2.5601,-2.5601,-2.5601,-2.5601,-2.5601,-2.5601,-2.5601,-2.5601,-2.5601,-2.5601,-2.5601,-2.5601,-2.5601,-2.5601,-2.5601,-2.5604,-2.5603,-2.559,-2.5604,-2.5603,-2.559,-2.4977,-2.4511,-2.5385,-2.4319,-2.302,-2.302,-2.2357,-2.1714,-2.1694,-2.1073,-2.0507,-2.0507,-2.0507,-2.0507,-2.0507,-2.0507,-2.0507,-2.0507,-2.0507,-2.0507,-2.0507,-2.0507,-2.0507,-2.0507,-2.0507,-2.0507,-2.0507,-2.0507,-2.0507,-2.0507,-2.0507,-2.0507,-2.0507,-2.0507,-2.0507,-2.0507,-2.1286,-2.1694,-2.1714,-2.259,-2.3464,-2.4294,-2.4313,-2.4763,-1.0127,-1.0717,-1.1554,-1.3287,-1.4824,-1.6399,-1.8123,-1.8535,-1.8903,-2.0246,-2.0311,-2.0195,-2.0458,-2.0294,0.0,0.0,0.0,0.0,0.0,0.0,0.0,0.0,0.0,0.0,0.0,0.0,0.0,0.0,0.0,0.0,0.0,-2.1267,-2.2105,-2.2962,-2.385,-2.4724,-2.5582,-2.5601,-2.5601,-2.5601,-2.5601,-2.5601,-2.5601,-2.5601,-2.5601,-2.5601,-2.5601,-2.5601,-2.5601,-2.5601,-2.5601,-2.5601,-2.5601,-2.5601,-2.5601,-2.5601,-2.5601,-2.5601,-2.5601,-2.5601,-2.5601,-2.5601,-2.5607,-2.5593,-2.5604,-2.5607,-2.5593,-2.5604,-2.5404,-2.5268,-2.5523,-2.5213,-2.4669,-2.4064,-2.3251,-2.2454,-2.183,-2.1073,-2.0507,-2.0507,-2.0507,-2.0507,-2.0507,-2.0507,-2.0507,-2.0507,-2.0507,-2.0507,-2.0507,-2.0507,-2.0507,-2.0507,-2.0507,-2.0507,-2.0507,-2.0507,-2.0507,-2.0507,-2.0507,-2.0507,-2.0507,-2.0507,-2.076,-2.1325,-2.1578,-2.2008,-2.261,-2.3481,-2.4044,-2.4313,-2.4938,-2.5346,-1.0537,-1.1379,-1.2528,-1.4612,-1.5921,-1.7243,-1.9336,0.0,0.0,0.0,-2.0498,-2.0506,-2.0497,-2.0507,0.0,0.0,0.0,0.0,0.0,0.0,0.0,0.0,0.0,0.0,0.0,0.0,0.0,0.0,0.0,0.0,0.0,-2.1267,-2.2105,-2.2962,-2.385,-2.4724,-2.5582,-2.5601,-2.5601,-2.5601,-2.5601,-2.5601,-2.5601,-2.5601,-2.5601,-2.5601,-2.5601,-2.5601,-2.5601,-2.5601,-2.5601,-2.5601,-2.5601,-2.5601,-2.5601,-2.5601,-2.5601,-2.5601,-2.5601,-2.5601,-2.5601,-2.5601,-2.5601,-2.5601,-2.5601,-2.5601,-2.5601,-2.5601,-2.5601,-2.5601,-2.5601,-2.5601,-2.5465,-2.4938,-2.4142,-2.329,-2.2396,-2.1558,-2.0876,-2.0565,-2.0507,-2.0507,-2.0507,-2.0507,-2.0507,-2.0507,-2.0507,-2.0507,-2.0507,-2.0507,-2.0507,-2.0507,-2.0507,-2.0682,-2.1131,-2.0762,-2.0643,-2.0954,-2.0682,-2.0643,-2.0954,-2.0663,-2.0876,-2.1675,-2.2046,-2.2649,-2.3523,-2.4394,-2.4821,-2.4821,-2.5365,-2.5601,-1.1238,-1.2137,-1.3423,-1.6052,-1.6862,0.0,-2.005,-2.0594,-2.0589,-2.0507,0.0,-2.0508,-2.0502,-2.051,0.0,0.0,0.0,0.0,0.0,0.0,0.0,0.0,0.0,0.0,0.0,0.0,0.0,0.0,0.0,0.0,0.0,-2.1345,-2.2182,-2.2962,-2.3928,-2.4802,-2.5582,-2.5601,-2.5601,-2.5601,-2.5601,-2.5601,-2.5601,-2.5601,-2.5601,-2.5601,-2.5601,-2.5601,-2.5601,-2.5601,-2.5601,-2.5601,-2.5601,-2.5601,-2.5601,-2.5601,-2.5601,-2.5601,-2.5601,-2.5601,-2.5601,-2.5601,-2.5601,-2.5601,-2.5601,-2.5601,-2.5601,-2.5601,-2.5601,-2.5601,-2.5601,-2.5601,-2.5601,-2.5601,-2.4938,-2.4083,-2.329,-2.2396,-2.152,-2.076,-2.0546,-2.0507,-2.0507,-2.0507,-2.0507,-2.0507,-2.0507,-2.0507,-2.0507,-2.0507,-2.0507,-2.0507,-2.0507,-2.1053,-2.2399,-2.1558,-2.1209,-2.1772,-2.1092,-2.0995,-2.1791,-2.1034,-2.1032,-2.1927,-2.2707,-2.3542,-2.4411,-2.521,-2.5601,-2.5601,-2.5601,-2.5601,-1.1093,-1.2132,0.0,-1.6052,-1.8207,-1.9843,-2.0462,-2.0594,-2.0571,-2.0517,-2.0506,-2.0492,-2.0506,0.0,0.0,0.0,0.0,0.0,0.0,0.0,0.0,0.0,0.0,0.0,0.0,0.0,0.0,0.0,0.0,0.0,-2.0507,-2.1911,-2.2804,-2.2981,-2.4513,-2.5404,-2.5601,-2.5601,-2.5601,0.0,-2.5601,-2.5601,-2.5601,-2.5601,-2.5601,-2.5601,-2.5601,-2.5601,-2.5601,-2.5601,-2.5601,-2.5601,-2.5601,-2.5601,-2.5601,-2.5601,-2.5601,-2.5601,-2.5601,-2.5601,-2.5601,-2.5601,-2.5601,-2.5601,-2.5601,-2.5601,-2.5601,-2.5601,-2.5601,-2.5601,-2.5601,-2.5601,-2.5601,-2.5601,-2.4938,-2.4255,-2.4064,-2.2998,-2.1949,-2.1539,-2.0934,-2.0507,-2.0507,-2.0507,-2.0507,-2.0507,-2.0507,-2.0507,-2.0507,-2.0507,-2.0507,-2.0507,-2.0507,-2.1694,-2.461,-2.4649,-2.3989,-2.2804,-2.2166,-2.2107,-2.2707,-2.1908,-2.218,-2.3711,-2.3928,-2.4452,-2.5326,-2.5504,-2.5601,-2.5601,-2.5601,-2.5601,-1.0938,-1.2132,0.0,-1.6207,0.0,-1.9842,-2.0462,-2.0594,-2.0592,-2.0567,-2.0517,-2.0501,-2.0494,0.0,0.0,0.0,0.0,0.0,0.0,0.0,0.0,0.0,0.0,0.0,0.0,0.0,0.0,0.0,0.0,-2.0507,-2.0507,-2.1694,-2.2571,-2.2981,-2.43,-2.4977,-2.4977,-2.4977,-2.4977,-2.4977,-2.4977,-2.519,-2.5601,-2.5601,-2.5601,-2.5601,-2.5601,-2.5601,-2.5601,-2.5601,-2.5601,-2.5601,-2.5601,-2.5601,-2.5601,-2.5601,-2.5601,-2.5601,-2.5601,-2.5601,-2.5601,-2.5601,-2.5601,-2.5601,-2.5601,-2.5601,-2.5601,-2.5601,-2.5601,-2.5601,-2.5601,-2.5601,-2.5601,-2.5601,-2.5249,-2.4763,-2.4239,-2.3969,-2.329,-2.1481,-2.0799,-2.0507,-2.0507,-2.0507,-2.0507,-2.0507,-2.0507,-2.0507,-2.0507,-2.0507,-2.1129,-2.2763,-2.2937,-2.3656,-2.5446,-2.5601,-2.5213,-2.43,-2.3467,-2.3137,-2.3428,-2.3112,-2.3365,-2.4275,-2.4294,-2.4724,-2.5601,-2.5601,-2.5601,-2.5601,-2.5601,-2.5601,-1.0374,-1.1997,-1.3626,-1.6416,-1.8095,0.0,-2.0365,-2.0594,-2.0594,-2.0594,-2.0546,-2.0492,0.0,0.0,0.0,0.0,0.0,0.0,0.0,0.0,0.0,0.0,0.0,0.0,0.0,0.0,0.0,0.0,0.0,-2.0507,-2.0507,-2.1267,-2.2027,-2.2746,-2.3617,-2.4083,-2.4083,-2.4216,-2.4216,-2.4083,-2.4236,-2.4763,-2.5601,-2.5601,-2.5601,-2.5601,-2.5601,-2.5601,-2.5601,-2.5601,-2.5601,-2.5601,-2.5601,-2.5601,-2.5601,-2.5601,-2.5601,-2.5601,-2.5601,-2.5601,-2.5601,-2.5601,-2.5601,-2.5601,-2.5601,-2.5601,-2.5601,-2.5601,-2.5601,-2.5601,-2.5601,-2.5601,-2.5601,-2.5601,-2.5601,-2.5349,-2.4397,-2.4921,-2.4666,-2.1539,-2.0701,-2.0507,-2.0507,-2.0507,-2.0507,-2.0507,-2.0507,-2.0507,-2.0507,-2.0507,-2.1811,-2.5232,-2.5601,-2.5601,-2.5601,-2.5601,-2.5601,-2.5601,-2.4727,-2.4183,-2.4183,-2.4413,-2.453,-2.453,-2.453,-2.488,-2.5601,-2.5601,-2.5601,-2.5601,-2.5601,-2.5601,-0.863,0.0,-1.415,0.0,-1.8709,-2.0329,0.0,0.0,-2.0594,0.0,-2.0546,0.0,0.0,0.0,0.0,0.0,0.0,0.0,0.0,0.0,0.0,0.0,0.0,0.0,0.0,0.0,0.0,0.0,-2.0507,-2.0507,-2.0507,-2.1267,-2.1753,-2.1869,-2.2726,-2.3173,-2.3173,-2.3928,-2.3928,-2.3173,-2.3947,-2.4763,-2.5601,-2.5601,-2.5601,-2.5601,-2.5601,-2.5601,-2.5601,-2.5601,-2.5601,-2.5601,-2.5601,-2.5601,-2.5601,-2.5601,-2.5601,-2.5601,-2.5601,-2.5601,-2.5601,-2.5601,-2.5601,-2.5601,-2.5601,-2.5601,-2.5601,-2.5601,-2.5601,-2.5601,-2.5601,-2.5601,-2.5601,-2.5601,-2.5601,-2.5562,-2.5407,-2.5485,-2.5018,-2.3057,-2.1481,-2.0507,-2.0507,-2.0507,-2.0507,-2.0507,-2.0507,-2.0507,-2.0507,-2.0507,-2.1811,-2.5232,-2.5601,-2.5601,-2.5601,-2.5601,-2.5601,-2.5601,-2.5465,-2.5368,-2.5368,-2.5407,-2.5423,-2.5423,-2.5423,-2.5485,-2.5601,-2.5601,-2.5601,-2.5601,-2.5601,-2.5601,-0.9026,-1.1212,-1.3285,0.0,-1.6902,-1.8155,-2.0097,-2.0562,-2.0594,-2.0594,0.0,0.0,0.0,0.0,0.0,0.0,0.0,0.0,0.0,0.0,0.0,0.0,0.0,0.0,0.0,0.0,0.0,0.0,-2.0507,-2.0507,-2.0507,-2.0837,-2.1228,-2.1694,-2.2066,-2.228,-2.228,-2.2646,-2.2646,-2.2299,-2.3656,-2.4239,-2.4164,-2.4646,-2.488,-2.4899,-2.5385,-2.5326,-2.4918,-2.5404,-2.5601,-2.5601,-2.5601,-2.5601,-2.5601,-2.5601,-2.5601,-2.5601,-2.5601,-2.5601,-2.5601,-2.5601,-2.5601,-2.5601,-2.5601,-2.5601,-2.5601,-2.5601,-2.5601,-2.5601,-2.5601,-2.5601,-2.5601,-2.5601,-2.5601,-2.5601,-2.5601,-2.5601,-2.5368,-2.461,-2.3853,-2.2743,-2.0837,-2.0507,-2.1148,-2.3073,-2.3365,-2.3365,-2.3365,-2.3365,-2.3928,-2.5446,-2.5601,-2.5601,-2.5601,-2.5601,-2.5601,-2.5601,-2.5601,-2.5601,-2.5601,-2.5601,-2.5601,-2.5601,-2.5601,-2.5601,-2.5601,-2.5601,-2.5601,-2.5601,-2.5601,-2.5609,-0.9148,-1.0045,-1.1078,-1.4531,-1.5391,-1.6065,0.0,0.0,-2.0168,0.0,0.0,0.0,0.0,0.0,0.0,0.0,0.0,0.0,0.0,0.0,0.0,0.0,0.0,0.0,0.0,0.0,0.0,0.0,-2.0507,-2.0507,-2.0507,-2.0507,-2.0779,-2.1384,-2.1403,-2.1403,-2.1403,-2.1403,-2.1617,-2.2046,-2.3345,-2.3753,-2.3367,-2.4236,-2.4388,-2.4019,-2.4899,-2.4899,-2.4352,-2.4996,-2.5404,-2.5601,-2.5601,-2.5601,-2.5601,-2.5601,-2.5601,-2.5601,-2.5601,-2.5601,-2.5601,-2.5601,-2.5601,-2.5601,-2.5601,-2.5601,-2.5601,-2.5601,-2.5601,-2.5601,-2.5601,-2.5601,-2.5601,-2.5601,-2.5601,-2.5601,-2.5601,-2.5601,-2.5601,-2.5601,-2.5601,-2.4782,-2.2238,-2.1811,-2.2665,-2.5213,-2.5601,-2.5601,-2.5601,-2.5601,-2.5601,-2.5601,-2.5601,-2.5601,-2.5601,-2.5601,-2.5601,-2.5601,-2.5601,-2.5601,-2.5601,-2.5601,-2.5601,-2.5601,-2.5601,-2.5601,-2.5601,-2.5601,-2.5604,-2.5593,-2.5598,-2.5593,-0.7978,-0.7067,-0.705,-1.3734,-1.5391,-1.5458,0.0,0.0,0.0,0.0,0.0,0.0,0.0,0.0,0.0,0.0,0.0,0.0,0.0,0.0,0.0,0.0,0.0,0.0,0.0,0.0,0.0,0.0,-2.0507,-2.0507,-2.0507,-2.0507,-2.0527,-2.0565,-2.0565,-2.0565,-2.0565,-2.0565,-2.1364,-2.2923,-2.302,-2.3484,-2.4255,-2.5137,-2.4629,-2.3115,-2.4,-2.4333,-2.4294,-2.4352,-2.4841,-2.5601,-2.5601,-2.5601,-2.5601,-2.5601,-2.5601,-2.5601,-2.5601,-2.5601,-2.5601,-2.5601,-2.5601,-2.5601,-2.5601,-2.5601,-2.5601,-2.5601,-2.5601,-2.5601,-2.5601,-2.5601,-2.5601,-2.5601,-2.5601,-2.5601,-2.5601,-2.5601,-2.5601,-2.5601,-2.5601,-2.5543,-2.5368,-2.5329,-2.5407,-2.5562,-2.5601,-2.5601,-2.5601,-2.5601,-2.5601,-2.5601,-2.5601,-2.5601,-2.5601,-2.5601,-2.5601,-2.5601,-2.5601,-2.5601,-2.5601,-2.5601,-2.5601,-2.5601,-2.5601,-2.5601,-2.5601,-2.5601,-2.5596,-2.5605,-2.5608,-2.56,-0.6093,-0.5725,0.0,-1.0894,-1.3737,-1.5398,-1.5399,-1.7167,-1.8905,0.0,0.0,0.0,0.0,0.0,0.0,0.0,0.0,0.0,0.0,0.0,0.0,0.0,0.0,0.0,0.0,0.0,0.0,0.0,0.0,-2.0507,-2.0507,-2.0507,-2.0507,-2.0507,-2.0507,-2.0507,-2.0507,-2.1578,-2.1872,-2.1422,-2.3054,-2.3403,-2.2685,-2.4116,-2.4111,-2.3057,-2.3911,-2.3985,-2.3553,-2.4639,-2.526,-2.5535,-2.5583,-2.5605,-2.5605,-2.5598,-2.5601,-2.5601,-2.5601,-2.5601,-2.5601,-2.5601,-2.5601,-2.5601,-2.5601,-2.5601,-2.5601,-2.5601,-2.5601,-2.5601,-2.5601,-2.5601,-2.5601,-2.5601,-2.5601,-2.5601,-2.5601,-2.5601,-2.5601,-2.5601,-2.5601,-2.5601,-2.5601,-2.5601,-2.5601,-2.5601,-2.5601,-2.5601,-2.5601,-2.5601,-2.5601,-2.5601,-2.5601,-2.5601,-2.5601,-2.5601,-2.5601,-2.5601,-2.5601,-2.5601,-2.5601,-2.5601,-2.5601,-2.5601,-2.5601,-2.5601,-2.5601,-2.5601,-2.5599,-2.561,-2.5604,-2.5913,-0.557,-0.5397,-0.5922,0.0,0.0,-1.3965,-1.5137,0.0,0.0,0.0,0.0,0.0,0.0,0.0,0.0,0.0,0.0,0.0,0.0,0.0,0.0,0.0,0.0,0.0,0.0,0.0,0.0,0.0,0.0,0.0,-2.0507,-2.0507,-2.0507,-2.0507,-2.0507,-2.0507,-2.0507,-2.1597,-2.1733,-2.0934,-2.2918,-2.3403,-2.2627,-2.4078,-2.4266,-2.3464,-2.4012,-2.3944,-2.3495,-2.46,-2.5243,-2.5518,-2.5573,-2.5599,-2.5599,-2.5595,-2.5601,-2.5601,-2.5601,-2.5601,-2.5601,-2.5601,-2.5601,-2.5601,-2.5601,-2.5601,-2.5601,-2.5601,-2.5601,-2.5601,-2.5601,-2.6456,-2.7019,-2.5873,-2.5601,-2.5601,-2.5601,-2.5601,-2.5601,-2.5601,-2.5601,-2.5601,-2.5601,-2.5601,-2.5601,-2.5601,-2.5601,-2.5601,-2.5601,-2.5601,-2.5601,-2.5601,-2.5601,-2.5601,-2.5601,-2.5601,-2.5601,-2.5601,-2.5601,-2.5601,-2.5601,-2.5601,-2.5601,-2.5601,-2.5601,-2.5607,-2.5599,-2.5599,-2.5593,-2.56,-2.5623,-2.6286,0.0,0.0,0.0,0.0,0.0,0.0,-1.4482,0.0,0.0,0.0,0.0,0.0,0.0,0.0,0.0,0.0,0.0,0.0,0.0,0.0,0.0,0.0,0.0,0.0,0.0,0.0,0.0,0.0,-2.0508,-2.0497,-2.049,-2.0507,-2.0507,-2.0507,-2.0507,-2.0507,-2.0507,-2.0527,-2.0934,-2.1714,-2.261,-2.3484,-2.4333,-2.5195,-2.5133,-2.4321,-2.4261,-2.4235,-2.4248,-2.4209,-2.4713,-2.5515,-2.557,-2.5596,-2.5599,-2.5595,-2.5601,-2.5601,-2.5601,-2.5601,-2.5601,-2.5601,-2.5601,-2.5601,-2.5601,-2.5601,-2.5601,-2.5601,-2.5601,-2.5601,-2.5601,-2.8068,-2.9703,-2.6398,-2.5601,-2.5601,-2.5601,-2.5601,-2.5601,-2.5601,-2.5601,-2.5601,-2.5601,-2.5601,-2.5601,-2.5601,-2.5601,-2.5601,-2.5601,-2.5601,-2.5601,-2.5601,-2.5601,-2.5601,-2.5601,-2.5601,-2.5601,-2.5601,-2.5601,-2.5601,-2.5601,-2.5601,-2.5601,-2.5601,-2.5601,-2.5599,-2.5608,-2.5608,-2.56,-2.5601,-2.5722,-2.6672,-0.8492,0.0,0.0,0.0,0.0,0.0,0.0,0.0,0.0,0.0,0.0,0.0,0.0,0.0,0.0,0.0,0.0,0.0,0.0,0.0,0.0,0.0,0.0,0.0,0.0,0.0,0.0,0.0,-2.0498,-2.0504,-2.0497,-2.0499,-2.0507,-2.0507,-2.0507,-2.0507,-2.0507,-2.1073,-2.1481,-2.1714,-2.3229,-2.4064,-2.4333,-2.5207,-2.5473,-2.525,-2.5221,-2.5182,-2.5099,-2.4466,-2.4701,-2.549,-2.5515,-2.5567,-2.5599,-2.5595,-2.5601,-2.5601,-2.5601,-2.5601,-2.5601,-2.5601,-2.5601,-2.5601,-2.5601,-2.5601,-2.5601,-2.5601,-2.5601,-2.5601,-2.5601,-2.63,-2.6767,-2.5815,-2.5601,-2.5601,-2.5601,-2.5601,-2.5601,-2.5601,-2.5601,-2.5601,-2.5601,-2.5601,-2.5601,-2.5601,-2.5601,-2.5601,-2.5601,-2.5601,-2.5601,-2.5601,-2.5601,-2.5601,-2.5601,-2.5601,-2.5601,-2.5601,-2.5601,-2.5601,-2.5601,-2.5601,-2.5601,-2.5601,-2.5601,-2.5599,-2.5608,-2.5608,-2.5611,-2.5702,-2.6985,-2.7831,-0.9013,-1.0426,-1.1007,-0.9999,0.0,0.0,0.0,-1.2063,0.0,0.0,0.0,0.0,0.0,0.0,0.0,0.0,0.0,0.0,0.0,0.0,0.0,0.0,0.0,0.0,0.0,-2.0545,-2.0521,-2.0509,-2.0498,-2.0505,-2.0508,-2.0502,-2.0507,-2.0507,-2.0507,-2.0507,-2.0507,-2.0973,-2.1558,-2.2241,-2.2899,-2.3792,-2.4821,-2.463,-2.4915,-2.5567,-2.4826,-2.4907,-2.5466,-2.4596,-2.474,-2.5499,-2.5534,-2.557,-2.5599,-2.5595,-2.5601,-2.5601,-2.5601,-2.5601,-2.5601,-2.5601,-2.5601,-2.5601,-2.5601,-2.5601,-2.5601,-2.5601,-2.5601,-2.5601,-2.5601,-2.5601,-2.5601,-2.5601,-2.5601,-2.5601,-2.5601,-2.5601,-2.5601,-2.5601,-2.5601,-2.5601,-2.5601,-2.5601,-2.5601,-2.5601,-2.5601,-2.5601,-2.5601,-2.5601,-2.5601,-2.5601,-2.5601,-2.5601,-2.5601,-2.5601,-2.5601,-2.5601,-2.5601,-2.5601,-2.5601,-2.5601,-2.5601,-2.5601,-2.5596,-2.5603,-2.5638,-2.5609,-2.5822,-2.6285,-2.7656,-2.8498,-0.9104,-1.1021,-1.257,-1.1606,-1.0854,0.0,-1.2057,-1.2431,-1.2989,0.0,0.0,0.0,0.0,0.0,0.0,0.0,0.0,0.0,0.0,0.0,0.0,0.0,0.0,0.0,-2.0594,-2.0594,-2.057,-2.0519,-2.0497,-2.0504,-2.0509,-2.0506,-2.049,-2.0507,-2.0507,-2.0507,-2.0507,-2.0585,-2.1422,-2.2981,-2.2318,-2.3268,-2.5543,-2.4008,-2.4125,-2.5501,-2.3958,-2.4163,-2.5538,-2.4765,-2.4865,-2.5529,-2.5583,-2.5599,-2.5602,-2.5595,-2.5601,-2.5601,-2.5601,-2.5601,-2.5601,-2.5601,-2.5601,-2.5601,-2.5601,-2.5601,-2.5601,-2.5601,-2.5601,-2.5698,-2.6067,-2.5873,-2.5601,-2.5601,-2.5601,-2.5601,-2.5601,-2.5601,-2.5718,-2.6087,-2.6164,-2.617,-2.6185,-2.6173,-2.6164,-2.6164,-2.6164,-2.6028,-2.5659,-2.5601,-2.5601,-2.5601,-2.5601,-2.5601,-2.5601,-2.5601,-2.5601,-2.5601,-2.5601,-2.5601,-2.5601,-2.5601,-2.5601,-2.5607,-2.56,-2.5636,-2.571,-2.5733,-2.6172,-2.7016,-2.7991,-2.8869,-1.1794,-1.2686,-1.2941,-1.095,0.0,0.0,-0.991,-1.0205,-1.0992,0.0,0.0,0.0,0.0,0.0,0.0,0.0,0.0,0.0,0.0,0.0,0.0,0.0,0.0,0.0,-2.0594,-2.0594,-2.057,-2.0519,-2.0509,-2.0494,-2.0508,-2.0502,-2.0491,-2.0507,-2.0507,-2.0507,-2.0507,-2.1151,-2.1988,-2.302,-2.3539,-2.4433,-2.5582,-2.5251,-2.5271,-2.5582,-2.5249,-2.5298,-2.5599,-2.5411,-2.5447,-2.5586,-2.5596,-2.5605,-2.5595,-2.5598,-2.5601,-2.5601,-2.5601,-2.5601,-2.5601,-2.5601,-2.5601,-2.5601,-2.5601,-2.5601,-2.5601,-2.5601,-2.5601,-2.6223,-2.8981,-2.766,-2.5601,-2.5601,-2.5601,-2.5601,-2.5601,-2.5601,-2.6417,-2.9175,-2.9703,-2.9718,-2.9782,-2.9732,-2.9703,-2.9703,-2.9703,-2.8709,-2.5951,-2.5601,-2.5601,-2.5601,-2.5601,-2.5601,-2.5601,-2.5601,-2.5601,-2.5601,-2.5601,-2.5601,-2.5601,-2.5601,-2.5593,-2.56,-2.5642,-2.5683,-2.571,-2.6381,-2.6816,-2.7035,-2.8616,-2.9436,-1.3229,-1.3773,-1.4065,-1.2494,0.0,0.0,0.0,-1.0849,-1.1203,-1.2486,0.0,0.0,0.0,0.0,0.0,0.0,0.0,0.0,0.0,0.0,0.0,0.0,0.0,0.0,-2.0594,-2.0594,-2.057,-2.0519,-2.0493,-2.0503,-2.0505,-2.0494,-2.0502,-2.0508,-2.0495,-2.0507,-2.0507,-2.1306,-2.2144,-2.302,-2.3445,-2.4339,-2.5562,-2.4708,-2.4785,-2.5582,-2.5132,-2.5207,-2.5609,-2.5598,-2.5595,-2.5609,-2.5609,-2.5595,-2.5601,-2.5601,-2.5601,-2.5601,-2.5601,-2.5601,-2.5601,-2.5601,-2.5601,-2.5601,-2.5601,-2.5601,-2.5601,-2.5601,-2.5601,-2.599,-2.7718,-2.6883,-2.5601,-2.5601,-2.5601,-2.5601,-2.5601,-2.6941,-2.8651,-3.0364,-3.0694,-3.0714,-3.0735,-3.0745,-3.0747,-3.0704,-3.0694,-3.0072,-2.8359,-2.8146,-2.7485,-2.5776,-2.5601,-2.5601,-2.5601,-2.5601,-2.5601,-2.5601,-2.5601,-2.5601,-2.5601,-2.5596,-2.5625,-2.5642,-2.5681,-2.5908,-2.6344,-2.7227,-2.766,-2.7679,-2.8987,-2.9807,0.0,-1.4716,0.0,0.0,0.0,-1.3291,0.0,0.0,0.0,-1.3501,0.0,0.0,0.0,0.0,0.0,0.0,0.0,0.0,0.0,0.0,0.0,0.0,0.0,0.0,0.0,-2.0206,-2.022,-2.0503,-2.0204,-2.016,-2.0483,-2.0501,-2.0508,-2.0508,-2.0502,-2.0507,-2.0507,-2.1306,-2.2046,-2.2746,-2.2923,-2.3736,-2.5057,-2.3814,-2.4028,-2.5326,-2.4782,-2.4957,-2.5601,-2.5601,-2.5601,-2.5601,-2.5601,-2.5601,-2.5601,-2.5601,-2.5601,-2.5601,-2.5601,-2.5601,-2.5601,-2.5601,-2.5601,-2.5601,-2.5601,-2.5601,-2.5601,-2.5601,-2.5601,-2.5601,-2.5601,-2.5601,-2.5601,-2.5601,-2.5601,-2.5601,-2.5601,-2.7777,-2.9917,-3.0577,-3.0694,-3.0694,-3.0694,-3.0754,-3.0785,-3.0728,-3.0711,-3.0694,-3.0694,-3.013,-2.8651,-2.5892,-2.5601,-2.5601,-2.5601,-2.5601,-2.5601,-2.5601,-2.5601,-2.5604,-2.559,-2.5605,-2.564,-2.5708,-2.5692,-2.6129,-2.6996,-2.7874,-2.8381,-2.8576,-2.9435,-3.0177,0.0,0.0,0.0,0.0,-1.4525,0.0,0.0,0.0,-1.3558,-1.2978,0.0,0.0,0.0,0.0,0.0,0.0,0.0,0.0,0.0,0.0,0.0,0.0,0.0,0.0,0.0,-1.8749,-1.8938,-2.0475,-1.909,-1.8866,-2.0418,-2.0508,-2.0508,-2.0508,-2.0502,-2.0507,-2.0507,-2.1306,-2.1753,-2.185,-2.2629,-2.3098,-2.3312,-2.3889,-2.4255,-2.4491,-2.5151,-2.5504,-2.5601,-2.5601,-2.5601,-2.5601,-2.5601,-2.5601,-2.5601,-2.5601,-2.5601,-2.5601,-2.5601,-2.5601,-2.5601,-2.5601,-2.5601,-2.5601,-2.5601,-2.5601,-2.5601,-2.5601,-2.5601,-2.5601,-2.5601,-2.5601,-2.5601,-2.5601,-2.5601,-2.5601,-2.5601,-2.5912,-2.7077,-3.0111,-3.0694,-3.0694,-3.0694,-3.0754,-3.0799,-3.0792,-3.0747,-3.0694,-3.0694,-2.8049,-2.6028,-2.564,-2.5601,-2.5601,-2.5601,-2.5601,-2.5601,-2.5601,-2.5601,-2.5593,-2.5603,-2.5666,-2.5686,-2.571,-2.5701,-2.6135,-2.6996,-2.7874,-2.8693,-2.9475,-3.0294,-3.0703,0.0,0.0,0.0,0.0,0.0,0.0,-1.3911,0.0,-1.2862,0.0,0.0,0.0,0.0,0.0,0.0,0.0,0.0,0.0,0.0,0.0,0.0,0.0,0.0,0.0,0.0,0.0,0.0,0.0,-1.8384,-1.8496,-1.9738,-2.0254,-2.0495,-2.0506,-2.0504,-2.0504,-2.0507,-2.1306,-2.1694,-2.1714,-2.2571,-2.3001,-2.302,-2.3387,-2.3811,-2.4313,-2.4685,-2.5132,-2.5601,-2.5601,-2.5601,-2.5601,-2.5601,-2.5601,-2.5601,-2.5601,-2.5601,-2.5601,-2.5601,-2.5601,-2.5601,-2.5601,-2.5601,-2.5601,-2.5601,-2.5601,-2.5601,-2.5601,-2.5601,-2.5601,-2.5601,-2.5601,-2.5601,-2.5601,-2.5601,-2.5601,-2.5601,-2.5601,-2.6611,-3.0033,-3.0694,-3.0694,-3.0694,-3.0719,-3.0752,-3.0796,-3.0778,-3.0033,-2.8043,-2.6517,-2.5601,-2.5601,-2.5601,-2.5601,-2.5601,-2.5593,-2.5598,-2.5601,-2.5599,-2.563,-2.5666,-2.5683,-2.5693,-2.5701,-2.6194,-2.6879,-2.7756,-2.8635,-2.9474,-3.0294,-3.0644,-3.08,-1.56,0.0,0.0,0.0,0.0,0.0,0.0,0.0,0.0,0.0,0.0,0.0,0.0,0.0,0.0,0.0,0.0,0.0,0.0,0.0,0.0,0.0,0.0,0.0,0.0,0.0,0.0,0.0,0.0,-1.7627,-1.9217,-1.9834,-2.0256,-2.0485,-2.0501,-2.05,-2.0499,-2.1075,-2.1364,-2.1384,-2.2008,-2.2318,-2.2318,-2.2532,-2.2998,-2.3614,-2.408,-2.4666,-2.5268,-2.5504,-2.5601,-2.5601,-2.5601,-2.5601,-2.5601,-2.5601,-2.5601,-2.5601,-2.5601,-2.5601,-2.5679,-2.6142,-2.5967,-2.5601,-2.5601,-2.5601,-2.5795,-2.6728,-2.632,-2.5601,-2.5601,-2.5601,-2.5601,-2.5601,-2.5601,-2.5601,-2.5601,-2.6339,-2.7738,-3.0228,-3.0694,-3.0704,-3.0722,-3.0717,-3.0719,-3.0792,-3.08,-2.9902,-2.7425,-2.7055,-2.7033,-2.7033,-2.6194,-2.5615,-2.5604,-2.6054,-2.6322,-2.6312,-2.6101,-2.6091,-2.6371,-2.6163,-2.6168,-2.641,-2.7035,-2.7797,-2.8654,-2.93,-3.0001,-3.08,-3.08,-3.08,0.0,0.0,0.0,-1.4772,0.0,0.0,0.0,0.0,-1.6537,0.0,0.0,0.0,0.0,0.0,-1.3689,-1.2841,0.0,0.0,0.0,0.0,0.0,0.0,0.0,0.0,0.0,0.0,0.0,0.0,0.0,0.0,-1.9127,-1.9263,-1.9624,-2.0477,-2.0506,-2.0508,-2.0506,-2.0521,-2.0546,-2.0546,-2.0565,-2.0585,-2.0604,-2.1384,-2.1753,-2.1889,-2.3578,-2.4313,-2.4411,-2.5249,-2.5601,-2.5601,-2.5601,-2.5601,-2.5601,-2.5601,-2.5601,-2.5601,-2.5601,-2.5601,-2.5873,-2.7482,-2.6919,-2.5601,-2.5601,-2.5601,-2.6281,-2.9606,-2.8146,-2.5601,-2.5601,-2.5601,-2.5601,-2.5601,-2.5601,-2.5601,-2.5601,-2.8204,-3.0577,-3.0674,-3.0694,-3.0716,-3.0788,-3.0735,-3.0719,-3.0792,-3.08,-3.0761,-3.0644,-3.0623,-3.0623,-3.0623,-2.7676,-2.5663,-2.561,-2.7215,-2.8193,-2.8121,-2.7394,-2.7306,-2.809,-2.7362,-2.7367,-2.8205,-2.8244,-2.8693,-2.9553,-2.9592,-3.0001,-3.08,-3.08,-3.08,0.0,0.0,-1.7799,-1.6635,0.0,0.0,0.0,0.0,0.0,0.0,0.0,0.0,0.0,0.0,-1.3902,-1.3612,-1.2628,0.0,0.0,0.0,0.0,0.0,0.0,0.0,0.0,0.0,0.0,0.0,-1.5137,0.0,0.0,-1.897,-1.9643,-2.0478,-2.05,-2.0503,-2.0508,-2.0502,-2.0507,-2.0507,-2.0507,-2.0507,-2.0507,-2.0779,-2.1209,-2.1753,-2.294,-2.3772,-2.4372,-2.5249,-2.5601,-2.5601,-2.5601,-2.5601,-2.5601,-2.5601,-2.5601,-2.5601,-2.5601,-2.5601,-2.5698,-2.6259,-2.6802,-2.7055,-2.5951,-2.7174,-2.9217,-3.0364,-2.9878,-2.8456,-2.6184,-2.5601,-2.5601,-2.5601,-2.5601,-2.5601,-2.5601,-2.8282,-3.0694,-3.0694,-3.0742,-3.0776,-3.0798,-3.0785,-3.0776,-3.0798,-3.08,-3.08,-3.08,-3.08,-3.08,-3.08,-2.9766,-2.9076,-2.9037,-2.8907,-2.8678,-2.8291,-2.7974,-2.7938,-2.8258,-2.8008,-2.7991,-2.8283,-2.8869,-2.9319,-2.9592,-3.0138,-3.0528,-3.08,-3.08,-3.08,-1.849,-1.8518,0.0,-1.8471,-1.7704,0.0,-1.4763,0.0,0.0,0.0,0.0,0.0,0.0,0.0,-1.4368,-1.4052,-1.2839,-1.1723,0.0,-1.1292,0.0,0.0,0.0,0.0,0.0,0.0,-1.386,-1.4517,-1.4233,0.0,0.0,0.0,-1.9227,-2.0056,-2.0357,-2.0498,-2.0499,-2.0495,-2.0497,-2.0507,-2.0799,-2.0934,-2.0934,-2.1248,-2.1675,-2.2202,-2.3076,-2.3772,-2.4372,-2.5249,-2.5601,-2.5601,-2.5601,-2.5601,-2.5601,-2.5601,-2.5601,-2.5601,-2.5601,-2.5601,-2.5679,-2.6064,-2.6666,-2.7249,-2.7369,-2.8515,-2.9894,-3.0538,-3.0694,-3.0189,-2.799,-2.7408,-2.7408,-2.7408,-2.7408,-2.7408,-2.7408,-2.9136,-3.0694,-3.0694,-3.0723,-3.0765,-3.0765,-3.0786,-3.08,-3.08,-3.08,-3.08,-3.08,-3.08,-3.08,-3.08,-3.08,-3.08,-3.08,-3.0129,-2.956,-2.9219,-2.8883,-2.8842,-2.918,-2.8908,-2.8908,-2.918,-2.9747,-3.0021,-3.0021,-3.0548,-3.08,-3.08,-3.08,-3.08]},{"header":{"parameterUnit":"m.s-1","parameterCategory":1,"la1":30.6,"la2":29.2853,"lo1":-89.7004,"lo2":-87.6739,"dy":0.0162,"dx":0.0183,"nx":112,"ny":82,"refTime":"2026-05-08T12:00:00:Z","depth":0,"parameterNumber":3,"parameterNumberName":"V-component_of_WINDS"},"data":[0.0,0.0,0.0,0.0,0.0,0.0,0.0,0.0,0.0,0.0,0.0,0.0,0.0,0.0,0.0,0.0,0.0,0.0,0.0,0.0,0.0,0.0,0.0,0.0,0.0,0.0,0.0,0.0,0.0,0.0,0.0,0.0,0.0,0.0,0.0,0.0,0.0,0.0,0.0,0.0,0.0,0.0,0.0,0.0,0.0,0.0,0.0,0.0,0.0,0.0,0.0,0.0,0.0,0.0,0.0,0.0,0.0,0.0,0.0,0.0,0.0,0.0,0.0,0.0,0.0,0.0,0.0,0.0,0.0,0.0,0.0,0.0,0.0,0.0,0.0,0.0,0.0,0.0,0.0,0.0,0.0,0.0,0.0,0.0,0.0,0.0,0.0,0.0,0.0,0.0,-0.1631,-0.2286,-0.2874,-0.3074,-0.2759,-0.2812,-0.2498,-0.1617,0.0,0.0,0.0,0.0,0.0,0.0,0.0,0.0,0.0,0.0,0.0,0.0,0.0,0.0,0.0,0.0,0.0,0.0,0.0,0.0,0.0,0.0,0.0,0.0,0.0,0.0,0.0,0.0,0.0,0.0,0.0,0.0,0.0,0.0,0.0,0.0,0.0,0.0,0.0,0.0,0.0,0.0,0.0,0.0,0.0,0.0,0.0,0.0,0.0,0.0,0.0,0.0,0.0,0.0,0.0,0.0,0.0,0.0,0.0,0.0,0.0,0.0,0.0,0.0,0.0,0.0,0.0,0.0,0.0,0.0,0.0,0.0,0.0,0.0,0.0,0.0,0.0,0.0,0.0,0.0,0.0,0.0,0.0,0.0,0.0,0.0,0.0,0.0,0.0,0.0,0.0,0.0,0.0,0.0,0.0,0.0,0.0,0.0,0.0,0.0,0.0,0.0,0.0,0.0,-0.1965,-0.2575,-0.2981,-0.3107,-0.2882,-0.2786,-0.2478,-0.188,0.0,0.0,0.0,0.0,0.0,0.0,0.0,0.0,0.0,0.0,0.0,0.0,0.0,0.0,0.0,0.0,0.0,0.0,0.0,0.0,0.0,0.0,0.0,0.0,0.0,0.0,0.0,0.0,0.0,0.0,0.0,0.0,0.0,0.0,0.0,0.0,0.0,0.0,0.0,0.0,0.0,0.0,0.0,0.0,0.0,0.0,0.0,0.0,0.0,0.0,0.0,0.0,0.0,0.0,0.0,0.0,0.0,0.0,0.0,0.0,0.0,0.0,0.0,0.0,0.0,0.0,0.0,0.0,0.0,0.0,0.0,0.0,0.0,0.0,0.0,0.0,0.0,0.0,0.0,0.0,0.0,0.0,0.0,0.0,0.0,0.0,0.0,0.0,0.0,0.0,0.0,0.0,0.0,0.0,0.0,0.0,0.0,0.0,0.0,0.0,0.0,0.0,0.0,-0.2067,-0.2278,-0.2653,-0.2997,-0.3098,-0.2818,-0.2739,-0.2428,-0.178,-0.1768,0.0,0.0,0.0,0.0,0.0,0.0,0.0,0.0,0.0,0.0,0.0,0.0,0.0,0.0,0.0,0.0,0.0,0.0,0.0,0.0,0.0,0.0,0.0,0.0,0.0,0.0,0.0,0.0,0.0,0.0,0.0,0.0,0.0,0.0,0.0,0.0,0.0,0.0,0.0,0.0,0.0,0.0,0.0,0.0,0.0,0.0,0.0,0.0,0.0,0.0,0.0,0.0,0.0,0.0,0.0,0.0,0.0,0.0,0.0,0.0,0.0,0.0,0.0,0.0,0.0,0.0,0.0,0.0,0.0,0.0,0.0,0.0,0.0,0.0,0.0,0.0,0.0,0.0,0.0,0.0,0.0,0.0,0.0,0.0,0.0,0.0,0.0,0.0,0.0,0.0,0.0,0.0,0.0,0.0,0.0,0.0,0.0,0.0,0.0,0.0,0.0,0.0,-0.2204,-0.2535,-0.2678,-0.296,-0.3017,-0.2722,-0.2616,-0.2278,-0.1645,-0.1604,0.0,0.0,0.0,0.0,0.0,0.0,0.0,0.0,0.0,0.0,0.0,0.0,0.0,0.0,0.0,0.0,0.0,0.0,0.0,0.0,0.0,0.0,0.0,0.0,0.0,0.0,0.0,0.0,0.0,0.0,0.0,0.0,0.0,0.0,0.0,0.0,0.0,0.0,0.0,0.0,0.0,0.0,0.0,0.0,0.0,0.0,0.0,0.0,0.0,0.0,0.0,0.0,0.0,0.0,0.0,0.0,0.0,0.0,0.0,0.0,0.0,0.0,0.0,0.0,0.0,0.0,0.0,0.0,0.0,0.0,0.0,0.0,0.0,0.0,0.0,0.0,0.0,0.0,0.0,0.0,0.0,0.0,0.0,0.0,0.0,0.0,0.0,0.0,0.0,0.0,0.0,0.0,0.0,0.0,0.0,0.0,0.0,0.0,0.0,0.0,0.0,0.0,-0.2237,-0.2678,-0.2704,-0.2828,-0.2864,-0.2706,-0.2359,-0.1983,-0.162,-0.1604,0.0,0.0,0.0,0.0,0.0,0.0,0.0,0.0,0.0,0.0,0.0,0.0,0.0,0.0,0.0,0.0,0.0,0.0,0.0,0.0,0.0,0.0,0.0,0.0,0.0,0.0,0.0,0.0,0.0,0.0,0.0,0.0,0.0,0.0,0.0,0.0,0.0,0.0,0.0,0.0,0.0,0.0,0.0,0.0,0.0,0.0,0.0,0.0,0.0,0.0,0.0,0.0,0.0,0.0,0.0,0.0,0.0,0.0,0.0,0.0,0.0,0.0,0.0,0.0,0.0,0.0,0.0,0.0,0.0,0.0,0.0,0.0,0.0,0.0,0.0,0.0,0.0,0.0,0.0,0.0,0.0,0.0,0.0,0.0,0.0,0.0,0.0,0.0,0.0,0.0,0.0,0.0,0.0,0.0,0.0,0.0,0.0,0.0,0.0,0.0,0.0,0.0,-0.2139,-0.2563,0.0,-0.2816,-0.2848,-0.2706,-0.2449,-0.2093,-0.1633,0.0,0.0,0.0,0.0,0.0,0.0,0.0,0.0,0.0,0.0,0.0,0.0,0.0,0.0,0.0,0.0,0.0,0.0,0.0,0.0,0.0,0.0,0.0,0.0,0.0,0.0,0.0,0.0,0.0,0.0,0.0,0.0,0.0,0.0,0.0,0.0,0.0,0.0,0.0,0.0,0.0,0.0,0.0,0.0,0.0,0.0,0.0,0.0,0.0,0.0,0.0,0.0,0.0,0.0,0.0,0.0,0.0,0.0,0.0,0.0,0.0,0.0,0.0,0.0,0.0,0.0,0.0,0.0,0.0,0.0,0.0,0.0,0.0,0.0,0.0,0.0,0.0,0.0,0.0,0.0,0.0,0.0,0.0,0.0,0.0,0.0,0.0,0.0,0.0,0.0,0.0,0.0,0.0,0.0,0.0,0.0,0.0,0.0,0.0,0.0,0.0,0.0,-0.1669,-0.2167,-0.2558,0.0,-0.2814,-0.2806,-0.2702,-0.2416,-0.2061,-0.1629,0.0,0.0,0.0,0.0,0.0,0.0,0.0,0.0,0.0,0.0,0.0,0.0,0.0,0.0,0.0,0.0,0.0,0.0,0.0,0.0,0.0,0.0,0.0,0.0,0.0,0.0,0.0,0.0,0.0,0.0,0.0,0.0,0.0,0.0,0.0,0.0,0.0,0.0,0.0,0.0,0.0,0.0,0.0,0.0,0.0,0.0,0.0,0.0,0.0,0.0,0.0,0.0,0.0,0.0,0.0,0.0,0.0,0.0,0.0,0.0,0.0,0.0,0.0,0.0,0.0,0.0,0.0,0.0,0.0,0.0,0.0,0.0,0.0,0.0,0.0,0.0,0.0,0.0,0.0,0.0,0.0,0.0,0.0,0.0,0.0,0.0,0.0,0.0,0.0,0.0,0.0,0.0,0.0,0.0,0.0,0.0,0.0,0.0,0.0,0.0,0.0,0.0,-0.186,-0.2367,-0.2745,-0.2882,-0.2782,-0.2708,-0.2708,-0.2207,-0.1813,0.0,0.0,0.0,0.0,0.0,0.0,0.0,0.0,0.0,0.0,0.0,0.0,0.0,0.0,0.0,0.0,0.0,0.0,0.0,0.0,0.0,0.0,0.0,0.0,0.0,0.0,0.0,0.0,0.0,0.0,0.0,0.0,0.0,0.0,0.0,0.0,0.0,0.0,0.0,0.0,0.0,0.0,0.0,0.0,0.0,0.0,0.0,0.0,0.0,0.0,0.0,0.0,0.0,0.0,0.0,0.0,0.0,0.0,0.0,0.0,0.0,0.0,0.0,0.0,0.0,0.0,0.0,0.0,0.0,0.0,0.0,0.0,0.0,0.0,0.0,0.0,0.0,0.0,0.0,0.0,0.0,0.0,0.0,0.0,0.0,0.0,0.0,0.0,0.0,0.0,0.0,0.0,0.0,0.0,0.0,0.0,0.0,0.0,0.0,0.0,0.0,0.0,0.0,-0.1933,-0.2391,-0.2745,-0.2882,-0.2782,-0.2708,-0.2708,-0.2291,-0.1919,-0.1624,0.0,0.0,0.0,0.0,0.0,0.0,0.0,0.0,0.0,0.0,0.0,0.0,0.0,0.0,0.0,0.0,0.0,0.0,0.0,0.0,0.0,0.0,0.0,0.0,0.0,0.0,0.0,0.0,0.0,0.0,0.0,0.0,0.0,0.0,0.0,0.0,0.0,0.0,0.0,0.0,0.0,0.0,0.0,0.0,0.0,0.0,0.0,0.0,0.0,0.0,0.0,0.0,0.0,0.0,0.0,0.0,0.0,0.0,0.0,0.0,0.0,0.0,0.0,0.0,0.0,0.0,0.0,0.0,0.0,0.0,0.0,0.0,0.0,0.0,0.0,0.0,0.0,0.0,0.0,0.0,0.0,0.0,0.0,0.0,0.0,0.0,0.0,0.0,0.0,0.0,0.0,0.0,0.0,0.0,0.0,0.0,0.0,0.0,0.0,0.0,0.0,0.0,-0.2009,-0.2351,-0.2692,-0.2994,-0.2826,-0.2708,-0.2708,-0.2404,-0.2038,-0.162,0.0,0.0,0.0,0.0,0.0,0.0,0.0,0.0,0.0,0.0,0.0,0.0,0.0,0.0,0.0,0.0,0.0,0.0,0.0,0.0,0.0,0.0,0.0,0.0,0.0,0.0,0.0,0.0,0.0,0.0,0.0,0.0,0.0,0.0,0.0,0.0,0.0,0.0,0.0,0.0,0.0,0.0,0.0,0.0,0.0,0.0,0.0,0.0,0.0,0.0,0.0,0.0,0.0,0.0,0.0,0.0,0.0,0.0,0.0,0.0,0.0,0.0,0.0,0.0,0.0,0.0,0.0,0.0,0.0,0.0,0.0,0.0,0.0,0.0,0.0,0.0,0.0,0.0,0.0,0.0,0.0,0.0,0.0,0.0,0.0,0.0,0.0,0.0,0.0,0.0,0.0,0.0,0.0,0.0,0.0,0.0,0.0,0.0,0.0,0.0,0.0,0.0,-0.2089,-0.2299,-0.2627,-0.3139,-0.2906,-0.2708,-0.2708,-0.2493,-0.216,-0.1661,0.0,0.0,0.0,0.0,0.0,0.0,0.0,0.0,0.0,0.0,0.0,0.0,0.0,0.0,0.0,0.0,0.0,0.0,0.0,0.0,0.0,0.0,0.0,0.0,0.0,0.0,0.0,0.0,0.0,0.0,0.0,0.0,0.0,0.0,0.0,0.0,0.0,0.0,0.0,0.0,0.0,0.0,0.0,0.0,0.0,0.0,0.0,0.0,0.0,0.0,0.0,0.0,0.0,0.0,0.0,0.0,0.0,0.0,0.0,0.0,-0.0761,0.0,0.0,0.0,0.0,0.0,0.0,0.0,0.0,0.0,0.0,0.0,0.0,0.0,0.0,0.0,0.0,0.0,0.0,0.0,0.0,0.0,0.0,0.0,0.0,0.0,0.0,0.0,0.0,0.0,0.0,0.0,0.0,0.0,0.0,0.0,0.0,0.0,0.0,0.0,0.0,0.0,-0.2153,-0.2441,-0.2788,-0.3167,-0.2906,-0.2708,-0.2708,-0.2371,-0.2066,-0.1846,-0.1467,0.0,0.0,0.0,0.0,0.0,0.0,0.0,0.0,0.0,0.0,0.0,0.0,0.0,0.0,0.0,0.0,0.0,0.0,0.0,0.0,0.0,0.0,0.0,0.0,0.0,0.0,0.0,0.0,0.0,0.0,0.0,0.0,0.0,0.0,0.0,0.0,0.0,0.0,0.0,0.0,0.0,0.0,0.0,0.0,0.0,0.0,0.0,0.0,0.0,0.0,0.0,0.0,0.0,0.0,0.0,0.0,0.0,0.0,0.0,0.0,-0.0986,0.0,0.0,0.0,0.0,0.0,0.0,0.0,0.0,0.0,0.0,0.0,0.0,0.0,0.0,0.0,0.0,0.0,0.0,0.0,0.0,0.0,0.0,0.0,0.0,0.0,0.0,0.0,0.0,0.0,0.0,0.0,0.0,0.0,0.0,0.0,0.0,0.0,0.0,0.0,0.0,-0.2433,-0.2528,-0.2758,-0.3289,-0.2965,-0.2708,-0.2708,-0.2416,-0.2108,-0.1778,-0.1532,0.0,0.0,0.0,0.0,0.0,0.0,0.0,0.0,0.0,0.0,0.0,0.0,0.0,0.0,0.0,0.0,0.0,0.0,0.0,0.0,0.0,0.0,0.0,0.0,0.0,0.0,0.0,0.0,0.0,0.0,0.0,0.0,0.0,0.0,0.0,0.0,0.0,0.0,0.0,0.0,0.0,0.0,0.0,0.0,0.0,0.0,0.0,0.0,0.0,0.0,0.0,0.0,0.0,-0.119,-0.119,-0.119,-0.119,-0.119,-0.119,-0.119,-0.1155,-0.1094,-0.1094,0.0,0.0,0.0,0.0,0.0,0.0,0.0,0.0,0.0,0.0,0.0,0.0,0.0,0.0,0.0,0.0,0.0,0.0,0.0,0.0,0.0,0.0,0.0,0.0,-0.2456,-0.2612,0.0,0.0,0.0,0.0,0.0,0.0,0.0,0.0,0.0,0.0,0.0,0.0,-0.2719,-0.264,-0.2766,-0.3377,-0.3048,-0.2736,-0.2662,-0.2452,-0.2138,-0.1681,-0.158,-0.1313,0.0,0.0,0.0,0.0,0.0,0.0,0.0,0.0,0.0,0.0,0.0,0.0,0.0,0.0,0.0,0.0,0.0,0.0,0.0,0.0,0.0,0.0,0.0,0.0,0.0,0.0,0.0,0.0,0.0,0.0,0.0,0.0,0.0087,0.0324,0.0,0.0,0.0,0.0,0.0,0.0,0.0,0.0,0.0,0.0,0.0,0.0,0.0,-0.1366,-0.1025,-0.1311,-0.1475,-0.1537,-0.1537,-0.1537,-0.1537,-0.1537,-0.1537,-0.1537,-0.1537,0.0,-0.1094,-0.1094,0.0,0.0,0.0,0.0,0.0,0.0,0.0,0.0,0.0,0.0,0.0,0.0,0.0,0.0,0.0,0.0,0.0,0.0,0.0,0.0,0.0,0.0,-0.247,-0.2588,-0.2668,-0.2682,0.0,-0.2535,-0.2334,-0.1951,-0.1603,0.0,0.0,0.0,0.0,0.0,0.0,0.0,-0.2753,-0.2919,-0.3064,-0.3229,-0.3127,-0.2878,-0.2478,-0.2208,-0.1997,-0.1865,-0.148,-0.1248,-0.1219,-0.0916,0.0,0.0,0.0,0.0,0.0,0.0,0.0,0.0,0.0,0.0,0.0,0.0,0.0,0.0,0.0,0.0,0.0,0.0,0.0,0.0,0.0,0.0,0.0,0.0,0.0,0.0,0.0,0.0,0.0,-0.031,-0.0577,-0.0454,-0.0369,-0.0368,0.0,0.0,0.0,0.0,0.0,0.0,0.0,0.0,0.0,-0.11,-0.1421,-0.1533,-0.1388,-0.1529,-0.1609,-0.1609,-0.1609,-0.1609,-0.1609,-0.1609,-0.1609,-0.1609,-0.1609,-0.1519,-0.1388,-0.1388,-0.1267,-0.1115,0.0,0.0,0.0,0.0,-0.1359,-0.1326,-0.1372,-0.1782,0.0,-0.2085,0.0,0.0,0.0,0.0,0.0,0.0,0.0,0.0,0.0,0.0,-0.2742,-0.2801,-0.2899,-0.2977,-0.2977,-0.2932,-0.2763,0.0,-0.2078,-0.1953,-0.1916,0.0,0.0,0.0,0.0,-0.2831,-0.3351,-0.3368,-0.3369,-0.3467,-0.3192,-0.2829,-0.2427,-0.2121,-0.1832,-0.1574,-0.137,-0.12,-0.1082,-0.0976,-0.0913,0.0,0.0,0.0,0.0,0.0,0.0,0.0,0.0,0.0,0.0,0.0,0.0,0.0,0.0,0.0,0.0,0.0,0.0,0.0,0.0,0.0,0.0,0.0,0.0,0.0,0.0,0.0,0.0,-0.0581,-0.0847,-0.1073,-0.1094,-0.1094,0.0,0.0,0.0,0.0,0.0,0.0,-0.1094,-0.1413,-0.1484,-0.1231,-0.1468,-0.1609,-0.1609,-0.1609,-0.1609,-0.1609,-0.1609,-0.1609,-0.1609,-0.1609,-0.1609,-0.1609,-0.1609,-0.1609,-0.1609,-0.1609,-0.145,-0.125,-0.1505,-0.1609,-0.1609,-0.1609,-0.1439,-0.126,-0.1515,-0.1609,-0.1564,-0.131,0.0,-0.1609,-0.1609,0.0,0.0,0.0,0.0,-0.1757,-0.2424,-0.2722,-0.2876,-0.2962,-0.3095,-0.3192,-0.3192,-0.3142,-0.2999,0.0,-0.2549,-0.2488,-0.2351,0.0,0.0,0.0,0.0,-0.3233,-0.3761,-0.3645,-0.3513,-0.3474,-0.3166,-0.2756,-0.2265,-0.2005,-0.1707,-0.1321,-0.1263,-0.1165,-0.096,-0.1045,-0.1003,-0.0806,0.0,0.0,0.0,0.0,0.0,0.0,0.0,0.0,0.0,0.0,0.0,0.0,0.0,0.0,0.0,0.0,0.0,0.0,0.0,0.0,0.0,0.0,0.0,0.0,0.0,0.0,0.0,0.0,0.0,-0.0999,-0.1094,0.0,0.0,0.0,0.0,-0.1554,-0.1279,-0.1094,-0.1094,-0.1413,-0.1601,-0.1582,-0.1599,-0.1609,-0.1609,-0.1609,-0.1609,-0.1609,-0.1609,-0.1609,-0.1609,-0.1609,-0.1609,-0.1609,-0.1609,-0.1609,-0.1609,-0.1609,-0.1597,-0.1582,-0.1601,-0.1609,-0.1609,-0.1609,-0.1597,-0.1584,-0.1603,-0.1609,-0.1605,-0.1586,-0.1592,-0.1609,-0.1609,-0.1594,0.0,0.0,-0.1611,-0.184,-0.2891,-0.2937,-0.2781,-0.3114,-0.3187,-0.3192,-0.3192,-0.2997,-0.2859,0.0,-0.2961,-0.2947,-0.319,0.0,-0.3166,-0.3422,-0.3473,-0.3499,-0.3605,-0.3605,-0.3411,-0.2895,-0.2995,-0.2723,-0.1811,-0.1776,-0.1662,-0.1321,-0.1185,-0.1103,-0.1088,-0.1099,-0.1095,-0.1083,-0.0845,0.0,0.0,0.0,0.0,0.0,0.0,0.0,0.0,0.0,0.0,0.0,0.0,0.0,0.0,0.0,0.0,0.0,0.0,0.0,0.0,0.0,0.0,0.0,0.0,0.0,0.0,0.0,0.0,-0.0992,-0.1094,0.0,-0.1094,-0.1295,-0.147,-0.1599,-0.1488,-0.1417,-0.1417,-0.1539,-0.1609,-0.1609,-0.1609,-0.1609,-0.1609,-0.1609,-0.1609,-0.1609,-0.1609,-0.1609,-0.1609,-0.1609,-0.1609,-0.1609,-0.1609,-0.1609,-0.1609,-0.1609,-0.1609,-0.1609,-0.1609,-0.1609,-0.1609,-0.1609,-0.1609,-0.1609,-0.1609,-0.1609,-0.1609,-0.1609,-0.1768,-0.2161,-0.3065,-0.3015,-0.2623,-0.2623,-0.2623,-0.277,-0.3363,-0.3278,-0.3091,-0.3341,-0.3297,-0.3192,-0.3192,-0.313,-0.3044,-0.2991,-0.2995,-0.3112,-0.3389,-0.357,-0.3665,-0.3631,-0.3739,-0.3771,-0.3615,-0.3493,-0.3234,-0.2791,-0.2638,-0.2341,-0.175,-0.1565,-0.1396,-0.1185,-0.1127,-0.1094,-0.1094,-0.1094,-0.1036,-0.0911,-0.0852,-0.0833,0.0,0.0,0.0,0.0,0.0,0.0,0.0,0.0,0.0,0.0,0.0,0.0,0.0,0.0,0.0,0.0,0.0,0.0,0.0,0.0,0.0,0.0,0.0,0.0,0.0,0.0,-0.0396,-0.1175,-0.1267,-0.1267,-0.1267,-0.1468,-0.1609,-0.1609,-0.1609,-0.1609,-0.1609,-0.1609,-0.1609,-0.1609,-0.1609,-0.1666,-0.1809,-0.1811,-0.1811,-0.1811,-0.1811,-0.1811,-0.1811,-0.1811,-0.1811,-0.1811,-0.1811,-0.1811,-0.1819,-0.1923,-0.1903,-0.178,-0.1656,-0.1609,-0.1609,-0.1609,-0.1609,-0.1609,-0.1609,-0.1609,-0.1609,-0.1609,-0.1772,-0.2199,-0.3268,-0.3404,-0.3261,-0.35,-0.3569,-0.3622,-0.3838,-0.3744,-0.3541,-0.3419,-0.3273,-0.3146,-0.3075,-0.2994,-0.2924,-0.2867,-0.2953,-0.3082,-0.3264,-0.3474,-0.3612,-0.3539,-0.3622,-0.3614,-0.3368,-0.32,-0.2931,-0.2479,-0.2289,-0.2013,-0.1565,-0.1388,-0.1241,-0.1105,-0.1094,-0.1094,-0.1094,-0.1056,-0.0974,-0.084,-0.0876,-0.0856,-0.0766,0.0,0.0,0.0,0.0,0.0,0.0,0.0,0.0,0.0,0.0,0.0,0.0,0.0,0.0,0.0,0.0,0.0,0.0,0.0,0.0,0.0,0.0,0.0,0.0405,-0.044,-0.1194,-0.1552,-0.1609,-0.1609,-0.1609,-0.1609,-0.1609,-0.1609,-0.1609,-0.1609,-0.1609,-0.1609,-0.1609,-0.1609,-0.1619,-0.1813,-0.2196,-0.2201,-0.2201,-0.2201,-0.2201,-0.2207,-0.2217,-0.2217,-0.2217,-0.2217,-0.2217,-0.2217,-0.2244,-0.2574,-0.2512,-0.218,-0.1768,-0.1625,-0.1625,-0.1625,-0.1625,-0.1625,-0.1625,-0.1625,-0.1625,-0.1625,-0.1625,-0.169,-0.209,-0.2657,-0.3317,-0.4035,-0.4228,-0.4228,-0.4228,-0.425,-0.4076,-0.336,-0.3126,-0.3036,-0.2831,-0.2577,-0.2471,-0.2735,-0.2834,-0.2884,-0.29,-0.29,-0.297,-0.3159,-0.3126,0.0,-0.2814,-0.2726,-0.2476,-0.1948,-0.1946,-0.1767,-0.1242,-0.1256,-0.1241,-0.1105,-0.1094,-0.1094,-0.1094,-0.0974,-0.0908,-0.0896,-0.0902,-0.0901,-0.0915,0.0,0.0,0.0,0.0,0.0,0.0,0.0,0.0,0.0,0.0,0.0,0.0,0.0,0.0,0.0,0.0,0.0,0.0,0.0,0.0,0.0,0.0405,0.0405,0.0405,0.0203,-0.0359,-0.1462,-0.1609,-0.1609,-0.1609,-0.1609,-0.1609,-0.1609,-0.1609,-0.1609,-0.1609,-0.1609,-0.1609,-0.1609,-0.1885,-0.2096,-0.2199,-0.2201,-0.2201,-0.2201,-0.2201,-0.2316,-0.257,-0.257,-0.257,-0.257,-0.257,-0.257,-0.2578,-0.265,-0.2634,-0.2533,-0.2168,-0.2026,-0.2026,-0.2026,-0.2026,-0.2026,-0.2026,-0.2026,-0.2026,-0.2026,-0.2026,-0.2065,-0.2169,-0.2322,-0.2508,-0.2717,-0.2776,-0.2776,-0.2776,-0.3129,-0.3408,-0.3001,-0.2786,-0.2643,-0.2539,-0.2457,-0.2374,-0.2311,-0.2314,-0.2477,-0.2957,-0.297,-0.2916,-0.297,-0.2891,0.0,-0.2471,-0.2294,-0.2036,-0.1645,-0.1544,-0.1417,-0.1217,-0.1172,-0.1139,-0.1105,-0.1094,-0.1094,-0.1094,-0.106,-0.0998,-0.0898,-0.0902,-0.0974,0.0,0.0,0.0,0.0,0.0,0.0,0.0,0.0,0.0,0.0,0.0,0.0,0.0,0.0,0.0,0.0,0.0,0.0,0.0,0.0,0.0,0.0,0.0301,0.0081,-0.0379,-0.04,-0.0686,-0.1507,-0.1609,-0.1659,-0.1795,-0.1811,-0.1811,-0.1811,-0.1676,-0.1609,-0.1609,-0.1609,-0.1678,-0.185,-0.2086,-0.2201,-0.2201,-0.2329,-0.2405,-0.2405,-0.2405,-0.2514,-0.2691,-0.2691,-0.2691,0.0,-0.2691,-0.2691,-0.2691,-0.2691,-0.2691,0.0,0.0,0.0,0.0,0.0,-0.2405,-0.2382,-0.2253,-0.2201,-0.2201,-0.2201,-0.2201,-0.2201,-0.2201,-0.2201,-0.2201,-0.2201,-0.2201,-0.2201,-0.2201,-0.2486,-0.2742,-0.2587,-0.2503,-0.242,-0.2298,-0.216,-0.2042,-0.1945,-0.1911,0.0,-0.2441,-0.249,-0.249,-0.249,-0.2361,-0.2228,-0.2073,-0.1928,-0.1742,-0.1523,-0.1435,-0.1335,-0.1208,-0.116,0.0,0.0,0.0,-0.1077,-0.1021,-0.1019,0.0,0.0,0.0,0.0,0.0,0.0,0.0,0.0,-0.1797,-0.183,0.0,0.0,0.0,0.0,0.0,0.0,0.0,0.0,0.0,0.0,0.0,0.0,0.0,0.0,0.0,0.0,0.0161,-0.0353,-0.1375,-0.1592,-0.1659,-0.1659,-0.1659,-0.1778,-0.2067,-0.2064,-0.2047,-0.2047,-0.1761,-0.1625,-0.1668,0.0,0.0,0.0,0.0,-0.2261,-0.2261,-0.2558,-0.2691,-0.2691,-0.2691,-0.2691,-0.2691,-0.2691,-0.2691,-0.2691,-0.2691,-0.2691,-0.2691,-0.2691,-0.2691,-0.2691,-0.2691,-0.2691,-0.2691,-0.2691,-0.2666,-0.2611,-0.2313,0.0,0.0,-0.2201,-0.2201,-0.2201,-0.2201,-0.2201,-0.2201,-0.2201,-0.2201,-0.2201,-0.2201,-0.2201,-0.2199,-0.2186,-0.2264,-0.2291,-0.21,-0.1822,-0.1621,-0.1678,-0.1642,-0.1625,-0.1676,-0.1795,-0.1861,-0.1861,-0.1761,-0.1692,-0.1692,-0.1642,-0.1576,-0.1508,0.0,0.0,-0.1212,-0.1196,-0.117,-0.11,-0.1094,-0.105,-0.0924,-0.092,-0.092,-0.092,-0.092,-0.0986,-0.1127,-0.1471,-0.1645,-0.1653,-0.1653,-0.1755,0.0,0.0,0.0,0.0,0.0,0.0,0.0,0.0,0.0,0.0,0.0,0.0,0.0,0.0,0.0,0.0126,0.0033,-0.0219,-0.0857,-0.1561,-0.1997,-0.1997,-0.1997,-0.2031,-0.21,-0.1861,-0.1692,-0.1692,-0.1642,-0.1737,-0.2076,-0.2451,-0.2512,-0.2221,-0.2461,-0.2614,-0.2614,-0.2656,-0.2691,-0.2691,0.0,0.0,-0.2691,-0.2691,-0.2691,-0.2691,-0.2691,-0.2691,-0.2691,-0.2691,-0.2691,-0.2691,-0.2691,-0.2691,-0.2691,-0.2691,-0.2533,-0.2294,-0.2224,-0.2201,-0.2201,-0.2201,-0.2201,-0.2201,-0.2201,-0.2201,0.0,-0.2201,-0.2201,-0.2201,-0.2201,-0.2201,-0.218,-0.2062,-0.2059,-0.2026,-0.1817,-0.1731,-0.1661,-0.1623,-0.1609,-0.1609,-0.1625,-0.1642,-0.1659,-0.1659,-0.1642,-0.1625,-0.1625,-0.1609,-0.1576,-0.1508,-0.1498,-0.1421,-0.1212,-0.1196,-0.117,-0.11,-0.1094,-0.1088,-0.106,-0.1058,-0.1058,-0.1058,-0.1058,-0.1121,-0.1263,-0.1655,-0.1903,-0.2,-0.2004,-0.2027,0.0,0.0,0.0,0.0,0.0,0.0,0.0,0.0,0.0,0.0,0.0,0.0449,0.0449,0.0,0.0437,0.0286,0.0118,-0.0101,-0.037,-0.1377,-0.21,-0.21,-0.21,-0.2031,-0.1861,-0.1845,-0.1845,-0.1845,-0.2092,-0.2346,-0.2546,-0.2779,-0.269,-0.2223,-0.2354,-0.2535,-0.2689,-0.2691,-0.2691,-0.2691,-0.2691,-0.2691,-0.2691,-0.2691,-0.2691,-0.2691,-0.2691,-0.2691,-0.2691,-0.2691,-0.2691,-0.2681,-0.2591,-0.2501,-0.2459,-0.2521,-0.2409,-0.2201,-0.2201,-0.2201,-0.2201,-0.2201,-0.2201,-0.2201,-0.2201,-0.2201,-0.2201,-0.2201,-0.2201,-0.2201,-0.2201,-0.2201,-0.2188,-0.2118,-0.2015,-0.1925,-0.1814,-0.1723,-0.1645,-0.16,-0.1609,-0.1609,-0.1609,-0.1609,-0.1609,-0.1609,-0.1609,-0.1609,-0.1609,-0.1609,-0.1592,-0.155,-0.1545,-0.149,-0.1358,-0.1262,-0.1188,-0.1155,-0.1121,-0.1094,-0.1094,-0.1094,-0.1094,-0.1094,-0.1128,-0.1189,-0.1248,-0.1715,-0.1988,-0.2054,-0.2289,-0.24,0.0,0.0,0.0,0.0,0.0,0.0,0.0,0.0594,0.0504,0.0504,0.0504,0.0504,0.0504,0.0522,0.0512,0.0423,0.0168,0.0,0.0,-0.0973,-0.1795,-0.2064,-0.21,-0.1997,-0.1726,-0.1947,-0.2137,-0.2245,-0.2648,-0.2868,-0.2821,-0.2868,-0.269,-0.2223,-0.2269,-0.2422,-0.2687,-0.2691,-0.2691,-0.2691,-0.2691,-0.2691,-0.2691,-0.2691,-0.2691,-0.2691,-0.2691,-0.2691,-0.2691,-0.2691,-0.2691,-0.2674,-0.2503,-0.2334,-0.2228,-0.2323,-0.23,-0.2201,-0.2201,-0.2201,-0.2201,-0.2201,-0.2201,-0.2201,-0.2201,-0.2201,-0.2201,-0.2201,-0.2201,-0.2201,-0.2201,-0.2201,-0.2196,-0.2178,-0.2036,-0.1918,-0.1862,-0.1737,-0.1612,-0.1611,-0.1609,-0.1609,-0.1609,-0.1609,-0.1609,-0.1609,-0.1609,-0.1609,-0.1609,-0.1609,-0.1609,-0.1609,-0.1609,-0.1568,-0.1464,-0.1303,-0.1188,-0.1184,-0.1124,-0.1094,-0.1094,-0.1111,-0.1121,-0.1121,-0.1188,-0.1222,-0.1222,-0.1737,-0.2008,-0.2064,-0.2506,-0.2717,0.1069,0.1053,0.1047,0.102,0.0877,0.0742,0.0,0.0,0.0504,0.0504,0.0504,0.0504,0.0504,0.0607,0.0539,0.0121,0.0017,0.0,0.0,-0.0134,-0.0705,-0.1947,-0.21,-0.2083,-0.2047,-0.2083,-0.2291,-0.2778,-0.286,-0.2798,-0.2551,-0.2776,-0.269,-0.2223,-0.249,-0.265,-0.2691,-0.2691,-0.2691,-0.2691,-0.2691,-0.2691,-0.2691,-0.2691,-0.2691,-0.2691,-0.2691,-0.2691,-0.2691,-0.2691,-0.2691,-0.2679,-0.255,-0.24,-0.2279,-0.2238,-0.2217,-0.2201,-0.2201,-0.2201,-0.2201,-0.2201,-0.2201,-0.2201,-0.2201,-0.2201,-0.2201,-0.2201,-0.2201,-0.2201,-0.2201,-0.2201,-0.2178,-0.2052,-0.1996,-0.1938,-0.1757,-0.1707,-0.1669,-0.1606,-0.1609,-0.1609,-0.1609,-0.1609,-0.1609,-0.1609,-0.1609,-0.1609,-0.1609,-0.1609,-0.1609,-0.1609,-0.1609,-0.1525,-0.1331,-0.1241,-0.1174,-0.1115,-0.11,-0.1094,-0.1094,-0.1161,-0.1192,-0.1192,-0.1255,-0.1288,-0.129,-0.1713,-0.2034,-0.2275,-0.2631,-0.2755,0.1093,0.1041,0.1003,0.1077,0.1018,0.087,0.0637,0.0533,0.0504,0.0504,0.0504,0.0504,0.0504,0.0617,0.0552,0.0,0.0,0.0,0.0,0.0,-0.0211,-0.0812,-0.1595,-0.21,-0.21,-0.2384,-0.265,-0.2874,-0.289,-0.2845,-0.2732,-0.2578,-0.2429,-0.2329,-0.2558,-0.2691,-0.2691,-0.2691,-0.2691,-0.2691,-0.2691,-0.2691,-0.2691,-0.2691,-0.2691,-0.2691,-0.2691,-0.2691,-0.2691,-0.2691,-0.2691,-0.2681,-0.2603,-0.2472,-0.2346,-0.229,-0.2242,-0.2201,-0.2201,-0.2201,-0.2201,-0.2201,-0.2201,-0.2201,-0.2201,-0.2201,-0.2201,-0.2201,-0.2201,-0.2201,-0.2201,-0.2201,-0.2176,-0.204,-0.1976,-0.1903,-0.1735,-0.1667,-0.1637,-0.1598,-0.1609,-0.1609,-0.1609,-0.1609,-0.1609,-0.1609,-0.1609,-0.1609,-0.1609,-0.1609,-0.1609,-0.1609,-0.1609,-0.1542,-0.142,-0.1313,-0.1236,-0.1158,-0.1125,-0.1094,-0.1094,-0.116,-0.1196,-0.1196,-0.1335,-0.141,-0.141,-0.1779,-0.2101,-0.2373,-0.2669,-0.2873,0.1153,0.1054,0.0981,0.1071,0.1144,0.1102,0.0808,0.0643,0.0551,0.0551,0.0526,0.0504,0.0504,0.0571,0.054,0.019,0.0134,0.0101,0.0017,0.0,-0.02,-0.0747,-0.1698,-0.2293,-0.2251,-0.2577,-0.2816,-0.2884,-0.289,-0.289,-0.2845,-0.2511,-0.2328,-0.2342,-0.257,-0.2691,-0.2691,-0.2691,-0.2691,-0.2691,-0.2691,-0.2691,-0.2691,-0.2691,-0.2691,-0.2691,-0.2691,-0.2691,-0.2691,-0.2691,-0.2691,-0.2681,-0.2618,-0.2539,-0.244,-0.2347,-0.2265,-0.2236,-0.2236,-0.2236,-0.2236,-0.2236,-0.2219,-0.2201,-0.2201,-0.2201,-0.2201,-0.2201,-0.2201,-0.2201,-0.2201,-0.2201,-0.2176,-0.204,-0.1948,-0.1856,-0.1727,-0.1655,-0.1609,-0.1609,-0.1609,-0.1609,-0.1609,-0.1609,-0.1609,-0.1609,-0.1609,-0.1609,-0.1609,-0.1609,-0.1609,-0.1609,-0.1609,-0.1574,-0.1506,-0.1384,-0.1266,-0.1202,-0.1135,-0.1107,-0.1132,-0.1198,-0.1245,-0.1284,-0.1437,-0.1533,-0.1533,-0.1777,-0.2028,-0.2294,-0.2563,-0.2828,0.1259,0.1201,0.1089,0.1093,0.1251,0.1378,0.1378,0.1025,0.0691,0.0691,0.0581,0.0504,0.0504,0.0507,0.0508,0.0488,0.0487,0.037,0.005,0.0,-0.069,-0.259,-0.2854,-0.2805,0.0,-0.2533,-0.2612,-0.2871,-0.289,-0.2845,-0.2709,-0.264,-0.2467,-0.2207,-0.2531,-0.2691,-0.2691,-0.2691,-0.2691,-0.2691,-0.2691,-0.2691,-0.2691,-0.2691,-0.2691,-0.2691,-0.2691,-0.2691,-0.2691,-0.2691,-0.2691,-0.2681,-0.2618,-0.2605,-0.258,-0.2372,-0.2302,-0.23,-0.23,-0.23,-0.23,-0.23,-0.2244,-0.2201,-0.2201,-0.2201,-0.2201,-0.2201,-0.2201,-0.2201,-0.2201,-0.2201,-0.2176,-0.204,-0.1948,-0.1856,-0.1727,-0.1655,-0.1609,-0.1609,-0.1609,-0.1609,-0.1609,-0.1609,-0.1609,-0.1609,-0.1609,-0.1609,-0.1609,-0.1609,-0.1609,-0.1609,-0.1609,-0.1574,-0.1506,-0.1384,-0.1266,-0.1202,-0.1135,-0.1124,-0.1188,-0.1265,-0.1353,-0.1487,-0.156,-0.1605,-0.1605,-0.1607,-0.1742,-0.2014,-0.2294,-0.256,0.1162,0.1204,0.1215,0.1114,0.1155,0.1238,0.1375,0.0963,0.0583,0.0681,0.0583,0.0504,0.0504,0.0504,0.0504,0.0504,0.0504,0.0387,0.005,-0.1115,-0.2159,-0.2827,-0.2773,0.0,0.0,0.0,0.0,-0.2767,-0.2843,-0.289,-0.2845,-0.264,-0.2517,-0.2472,-0.2454,-0.2504,-0.2626,-0.2628,-0.2659,-0.2691,-0.2691,-0.2691,-0.2691,-0.2691,-0.2691,-0.2691,-0.2691,-0.2691,-0.2691,-0.2691,-0.2691,-0.2687,-0.2686,-0.2634,-0.2592,-0.2417,-0.237,-0.2354,-0.2261,-0.2242,-0.2242,-0.2242,-0.2224,-0.2201,-0.2201,-0.2201,-0.2201,-0.2201,-0.2201,-0.2201,-0.2201,-0.2201,-0.2176,-0.204,-0.1974,-0.1946,-0.1856,-0.1746,-0.1663,-0.1663,-0.1632,-0.1609,-0.1609,-0.1609,-0.1609,-0.1609,-0.1609,-0.1609,-0.1609,-0.1609,-0.1609,-0.1609,-0.1609,-0.1574,-0.1506,-0.1454,-0.1382,-0.1277,-0.1243,-0.1241,-0.1271,-0.1372,-0.145,-0.1495,-0.1566,-0.1609,-0.1609,-0.1609,-0.1742,-0.1997,-0.2097,-0.2278,0.1166,0.1236,0.1288,0.1233,0.1204,0.1214,0.124,0.088,0.055,0.0623,0.0555,0.0504,0.0504,0.0504,0.0504,0.0504,0.0486,0.0392,0.0178,-0.1308,-0.2395,-0.246,-0.26,-0.2754,0.0,0.0,0.0,-0.2778,-0.2843,-0.289,-0.2821,-0.2632,-0.2546,-0.2567,-0.2467,-0.2461,-0.2607,-0.2614,-0.2661,-0.2691,-0.2691,-0.2691,-0.2691,-0.2691,-0.2691,-0.2691,-0.2691,-0.2691,-0.2691,-0.2691,-0.2691,-0.2691,-0.2691,-0.2684,-0.2616,-0.2464,-0.2392,-0.2397,-0.2273,-0.2246,-0.2246,-0.2246,-0.2224,-0.2201,-0.2201,-0.2201,-0.2201,-0.2201,-0.2201,-0.2201,-0.2201,-0.2201,-0.2184,-0.2102,-0.2042,-0.1982,-0.1944,-0.1814,-0.1707,-0.1707,-0.1653,-0.1609,-0.1609,-0.1609,-0.1609,-0.1609,-0.1609,-0.1609,-0.1609,-0.1609,-0.1609,-0.1609,-0.1609,-0.1586,-0.1531,-0.1516,-0.1458,-0.1384,-0.1321,-0.1317,-0.1363,-0.145,-0.1512,-0.1543,-0.158,-0.1609,-0.1609,-0.1609,-0.1692,-0.1861,-0.1964,-0.2097,0.1257,0.1297,0.1314,0.1384,0.1389,0.1316,0.107,0.0809,0.0573,0.0516,0.0502,0.0499,0.0,0.0,0.0504,0.0487,0.0442,0.0413,0.0415,-0.0617,-0.1454,0.0,0.0,0.0,0.0,0.0,0.0,-0.2909,0.0,-0.2834,-0.2725,-0.2642,-0.2576,-0.2504,-0.256,-0.2603,-0.2607,-0.2671,-0.2691,-0.2691,-0.2691,-0.2691,-0.2691,-0.2691,-0.2691,-0.2691,-0.2691,-0.2691,-0.2691,-0.2691,-0.2691,-0.2691,-0.2691,-0.2691,-0.2668,-0.2491,-0.2396,-0.238,-0.2313,-0.2302,-0.2298,-0.2298,-0.2242,-0.2201,-0.2201,-0.2201,-0.2201,-0.2201,-0.2201,-0.2201,-0.2201,-0.2201,-0.2201,-0.2201,-0.211,-0.2004,-0.2004,-0.1861,-0.1715,-0.1715,-0.1657,-0.1609,-0.1609,-0.1609,-0.1609,-0.1609,-0.1609,-0.1609,-0.1609,-0.1609,-0.1609,-0.1609,-0.1609,-0.1609,-0.1609,-0.1535,-0.1504,-0.1504,-0.1392,-0.1369,-0.1502,-0.1504,-0.1543,-0.1607,-0.1609,-0.1609,-0.1609,-0.1609,-0.1609,-0.1609,-0.1861,-0.1981,0.1175,0.1253,0.1375,0.1403,0.1277,0.1203,0.1286,0.0929,0.0573,0.0516,0.0456,0.043,0.0427,0.0463,0.0471,0.037,0.046,0.0,0.0625,-0.0243,0.0,-0.1628,0.0,-0.249,-0.2923,-0.298,0.0,0.0,-0.2887,-0.285,-0.2912,-0.2719,-0.2582,-0.2582,-0.2505,-0.251,-0.2607,-0.2671,-0.2691,-0.2691,-0.2691,-0.2691,-0.2691,-0.2691,-0.2691,-0.2691,-0.2691,-0.2691,-0.2691,-0.2691,-0.2691,-0.2691,-0.2691,-0.2691,-0.2676,-0.2589,-0.2476,-0.238,-0.2313,-0.2263,-0.2234,-0.2234,-0.2217,-0.2201,-0.2201,-0.2201,-0.2201,-0.2201,-0.2201,-0.2201,-0.2201,-0.2201,-0.2201,-0.2201,-0.2182,-0.2143,-0.2143,-0.1997,-0.1848,-0.1848,-0.1717,-0.1609,-0.1609,-0.1609,-0.1609,-0.1609,-0.1609,-0.1609,-0.1609,-0.1609,-0.1609,-0.1609,-0.1609,-0.1609,-0.1609,-0.1588,-0.1576,-0.1576,-0.1538,-0.1535,-0.1574,-0.1576,-0.1586,-0.1609,-0.1609,-0.1609,-0.1609,-0.1609,-0.1609,-0.1609,-0.1676,-0.1709,0.1243,0.131,0.1411,0.1411,0.1321,0.1216,0.1156,0.0918,0.0688,0.0492,0.0419,0.0394,0.0404,0.0457,0.0479,0.0,0.0,0.0,0.0654,-0.0219,-0.1006,0.0,-0.2034,0.0,-0.2966,-0.2952,-0.2973,0.0,-0.2971,-0.2859,-0.2821,-0.2713,-0.2633,-0.2607,-0.2569,-0.2562,-0.2642,-0.2694,-0.2691,-0.2691,-0.2691,-0.2691,-0.2691,-0.2691,-0.2691,-0.2691,0.0,-0.2691,-0.2691,-0.2691,-0.2691,-0.2691,-0.2691,-0.2691,-0.2679,-0.2616,-0.2548,-0.2458,-0.2352,-0.2273,-0.2251,-0.2211,-0.2201,-0.2201,-0.2201,-0.2201,-0.2201,-0.2201,-0.2201,-0.2201,-0.2201,-0.2201,-0.2201,-0.2201,-0.2201,-0.2201,-0.2201,-0.2063,-0.1917,-0.1837,-0.1707,-0.1609,-0.1609,-0.1609,-0.1609,-0.1609,-0.1609,-0.1609,-0.1609,-0.1609,-0.1609,-0.1609,-0.1609,-0.1609,-0.1609,-0.1609,-0.1609,-0.1609,-0.1609,-0.1609,-0.1609,-0.1609,-0.1609,-0.1609,-0.1609,-0.1609,-0.1609,-0.1609,-0.1609,-0.1609,-0.1609,-0.1609,0.1392,0.1411,0.1411,0.1411,0.1411,0.1302,0.0933,0.0862,0.0784,0.0468,0.0406,0.0412,0.0393,0.0442,0.0485,0.0474,0.0,0.0581,0.0589,-0.0274,-0.0935,-0.1074,-0.2036,-0.2761,-0.2989,-0.2905,-0.2921,-0.3139,-0.3045,-0.2894,-0.266,-0.2687,-0.2679,-0.2626,-0.2677,-0.2691,-0.2691,-0.2691,-0.2691,-0.2691,-0.2691,-0.2691,-0.2691,-0.2691,-0.2691,-0.2691,-0.2691,0.0,-0.2691,-0.2691,-0.2691,-0.2691,-0.2691,-0.2691,-0.2681,-0.2628,-0.2617,-0.2584,-0.2397,-0.2325,-0.2292,-0.2228,-0.2201,-0.2201,-0.2201,-0.2201,-0.2201,-0.2201,-0.2201,-0.2201,-0.2201,-0.2201,-0.2201,-0.2201,-0.2201,-0.2201,-0.2201,-0.2094,-0.1929,-0.1741,-0.1653,-0.1609,-0.1609,-0.1609,-0.1609,-0.1609,-0.1609,-0.1609,-0.1609,-0.1609,-0.1609,-0.1609,-0.1609,-0.1609,-0.1609,-0.1609,-0.1609,-0.1609,-0.1609,-0.1609,-0.1609,-0.1609,-0.1609,-0.1609,-0.1609,-0.1609,-0.1609,-0.1609,-0.1609,-0.1609,-0.1609,-0.1609,0.1407,0.1411,0.1411,0.1411,0.1411,0.1332,0.1095,0.0883,0.0674,0.0449,0.0444,0.0447,0.0337,0.0369,0.0399,0.0338,0.0431,0.0518,0.0525,0.035,-0.0108,0.0,-0.1387,-0.196,-0.2904,-0.2973,0.0,0.0,0.0,-0.2893,-0.2838,-0.2743,-0.2694,-0.2694,-0.2683,-0.2691,-0.2691,-0.2691,-0.2691,-0.2691,-0.2691,-0.2691,-0.2691,-0.2691,-0.2691,-0.2691,-0.2691,0.0,-0.2691,-0.2691,-0.2691,-0.2691,-0.2691,-0.2691,-0.2689,-0.27,-0.2647,-0.2603,-0.2569,-0.2434,-0.2292,-0.2228,-0.2201,-0.2201,-0.2201,-0.2201,-0.2201,-0.2201,-0.2201,-0.2201,-0.2201,-0.2201,-0.2201,-0.2201,-0.2201,-0.2201,-0.2201,-0.2044,-0.1872,-0.1729,-0.1653,-0.1609,-0.1609,-0.1609,-0.1609,-0.1609,-0.1609,-0.1609,-0.1609,-0.1609,-0.1609,-0.1609,-0.1609,-0.1609,-0.1609,-0.1609,-0.1609,-0.1609,-0.1609,-0.1609,-0.1609,-0.1609,-0.1609,-0.1609,-0.1609,-0.1609,-0.1609,-0.1609,-0.1609,-0.1609,-0.1609,-0.1609,0.1411,0.1411,0.1411,0.1411,0.1365,0.1279,0.1053,0.0,0.0,0.0447,0.0457,0.0462,0.0321,0.035,0.0384,0.0358,0.0431,0.0518,0.0541,0.0079,-0.0478,-0.1044,-0.1655,-0.229,-0.2931,-0.2926,-0.2885,-0.2901,0.0,-0.2805,-0.2805,-0.2747,-0.2691,-0.2691,-0.2691,-0.2691,-0.2691,-0.2691,-0.2691,-0.2691,-0.2691,-0.2691,-0.2691,-0.2691,-0.2691,-0.2691,-0.2691,0.0,-0.2691,-0.2691,-0.2691,-0.2691,-0.2691,-0.2691,-0.2691,-0.2691,-0.2692,-0.2647,-0.2624,-0.2492,-0.2338,-0.2273,-0.2236,-0.2209,-0.223,-0.2236,-0.2201,-0.2201,-0.2201,-0.2201,-0.2201,-0.2201,-0.2201,-0.2201,-0.2201,-0.2201,-0.2201,-0.2032,-0.1887,-0.1825,-0.1685,-0.1609,-0.1609,-0.1609,-0.1609,-0.1609,-0.1609,-0.1609,-0.1609,-0.1609,-0.1609,-0.1609,-0.1609,-0.1609,-0.1609,-0.1609,-0.1609,-0.1609,-0.1609,-0.1609,-0.1609,-0.1609,-0.1609,-0.1609,-0.1609,-0.1609,-0.1609,-0.1609,-0.1609,-0.1609,-0.1609,-0.1609,0.1411,0.1411,0.1411,0.1411,0.1326,0.1201,0.0971,0.0858,0.0725,0.0476,0.0463,0.0462,0.0324,0.0354,0.0397,0.0404,0.0449,0.0473,0.0477,-0.0264,-0.0909,-0.116,-0.1936,0.0,-0.2879,-0.2823,0.0,-0.2845,0.0,0.0,-0.2691,-0.2691,-0.2691,-0.2691,-0.2691,-0.2691,-0.2691,-0.2691,-0.2691,-0.2691,-0.2691,-0.2691,-0.2691,-0.2691,-0.2691,-0.2691,-0.2691,0.0,0.0,-0.2691,-0.2691,-0.2691,-0.2691,-0.2691,-0.2691,-0.2691,-0.2691,-0.2681,-0.2636,-0.2511,-0.2384,-0.238,-0.2279,-0.2213,-0.2257,-0.2253,-0.2201,-0.2201,-0.2201,-0.2201,-0.2201,-0.2201,-0.2201,-0.2201,-0.2201,-0.2201,-0.2201,-0.2048,-0.1925,-0.1906,-0.175,-0.1614,-0.1594,-0.1609,-0.1609,-0.1609,-0.1609,-0.1609,-0.1609,-0.1609,-0.1609,-0.1609,-0.1609,-0.1609,-0.1609,-0.1609,-0.1609,-0.1609,-0.1609,-0.1609,-0.1609,-0.1609,-0.1609,-0.1609,-0.1609,-0.1609,-0.1609,-0.1609,-0.1609,-0.1609,-0.1609,-0.1609,0.1411,0.1411,0.1411,0.1411,0.1262,0.1101,0.1005,0.0,0.0735,0.0529,0.0494,0.0459,0.0326,0.035,0.0396,0.0401,0.0406,0.0327,0.0083,-0.0074,-0.05,-0.1364,0.0,0.0,-0.2577,-0.262,0.0,0.0,0.0,0.0,-0.2691,-0.2691,-0.2691,-0.2691,-0.2691,-0.2691,-0.2691,-0.2691,-0.2691,-0.2691,-0.2691,-0.2691,-0.2691,-0.2691,-0.2691,-0.2691,-0.2691,0.0,0.0,-0.2691,-0.2691,-0.2691,-0.2691,-0.2691,-0.2691,-0.2691,-0.2691,-0.2689,-0.2681,-0.2564,-0.2429,-0.2531,-0.2409,-0.2201,-0.2209,-0.2207,-0.2201,-0.2201,-0.2201,-0.2201,-0.2201,-0.2201,-0.2201,-0.2201,-0.2201,-0.2201,-0.2201,-0.2098,-0.198,-0.1916,-0.1782,-0.1669,-0.1606,-0.1609,-0.1609,-0.1609,-0.1609,-0.1609,-0.1609,-0.1609,-0.1609,-0.1609,-0.1609,-0.1609,-0.1609,-0.1609,-0.1609,-0.1609,-0.1609,-0.1609,-0.1609,-0.1609,-0.1609,-0.1609,-0.1609,-0.1609,-0.1609,-0.1609,-0.1609,-0.1609,-0.1609,-0.1609,0.1411,0.1411,0.1411,0.1411,0.127,0.1133,0.1019,0.0928,0.0801,0.06,0.0529,0.0471,0.038,0.0345,0.0353,0.0396,0.0361,0.0322,0.0252,0.0016,-0.041,-0.1114,-0.1468,0.0,0.0,0.0,-0.2624,0.0,0.0,0.0,-0.2691,-0.2691,-0.2691,-0.2691,-0.2691,-0.2691,-0.2691,-0.2691,-0.2691,-0.2691,-0.2691,-0.2691,-0.2691,-0.2691,-0.2691,-0.2691,-0.2691,0.0,0.0,-0.2636,-0.2603,-0.2527,-0.2527,-0.2527,-0.2534,-0.2616,-0.2636,-0.2644,-0.27,-0.257,-0.2398,-0.246,-0.2352,-0.2209,-0.2238,-0.224,-0.2201,-0.2201,-0.2201,-0.2201,-0.2201,-0.2201,-0.2201,-0.2201,-0.2201,-0.2201,-0.2201,-0.2104,-0.1986,-0.197,-0.1826,-0.1697,-0.1661,-0.1628,-0.1609,-0.1609,-0.1609,-0.1609,-0.1609,-0.1609,-0.1609,-0.1609,-0.1609,-0.1609,-0.1609,-0.1609,-0.1609,-0.1609,-0.1609,-0.1609,-0.1609,-0.1609,-0.1609,-0.1609,-0.1609,-0.1609,-0.1609,-0.1609,-0.1609,-0.1609,-0.1609,-0.162,0.1392,0.1387,0.1363,0.1373,0.1278,0.1144,0.1027,0.0944,0.0837,0.0646,0.0549,0.0478,0.0408,0.0344,0.0311,0.0364,0.0344,0.0309,0.0261,-0.0015,-0.0416,-0.1,0.0,-0.187,0.0,-0.2579,0.0,0.0,0.0,0.0,-0.2691,-0.2691,-0.2691,-0.2691,-0.2691,-0.2691,-0.2691,-0.2691,-0.2691,-0.2691,-0.2691,-0.2691,-0.2691,-0.2691,-0.2691,-0.2689,-0.2652,0.0,0.0,-0.2552,-0.2474,-0.2392,-0.2392,-0.2392,-0.2404,-0.2548,-0.2607,-0.262,-0.2688,-0.257,-0.2392,-0.2392,-0.2299,-0.2211,-0.2248,-0.2249,-0.2201,-0.2201,-0.2201,-0.2201,-0.2201,-0.2201,-0.2201,-0.2201,-0.2201,-0.2201,-0.2201,-0.2127,-0.205,-0.2002,-0.1893,-0.1771,-0.1717,-0.1655,-0.1622,-0.1596,-0.1609,-0.1609,-0.1609,-0.1609,-0.1609,-0.1609,-0.1609,-0.1609,-0.1609,-0.1609,-0.1609,-0.1609,-0.1609,-0.1609,-0.1609,-0.1609,-0.1609,-0.1609,-0.1616,-0.163,-0.1632,-0.1676,-0.1688,-0.1688,-0.1688,-0.1719,0.1348,0.1349,0.1309,0.1307,0.1196,0.1079,0.1016,0.0953,0.0848,0.0638,0.0546,0.0482,0.0412,0.0344,0.0304,0.0305,0.0353,0.0284,-0.0042,-0.0156,-0.0445,0.0,0.0,-0.1716,-0.2241,0.0,0.0,0.0,0.0,0.0,-0.2691,-0.2691,-0.2691,-0.2691,-0.2691,-0.2691,-0.2691,-0.2691,-0.2691,-0.2691,-0.2691,-0.2691,-0.2691,-0.2691,-0.2691,0.0,0.0,0.0,0.0,-0.2456,-0.2394,-0.2392,-0.2392,-0.2392,-0.2404,-0.2548,-0.2607,-0.262,-0.2688,-0.257,-0.2392,-0.2392,-0.2299,-0.2201,-0.2201,-0.2201,-0.2201,-0.2201,-0.2201,-0.2201,-0.2201,-0.2201,-0.2201,-0.2201,-0.2201,-0.2201,-0.2201,-0.2199,-0.2149,-0.2035,-0.1996,-0.1938,-0.1739,-0.1707,-0.1675,-0.1604,-0.1609,-0.1609,-0.1609,-0.1609,-0.1609,-0.1609,-0.1609,-0.1609,-0.1609,-0.1609,-0.1609,-0.1609,-0.1609,-0.1609,-0.1609,-0.1609,-0.1609,-0.1609,-0.1661,-0.1707,-0.1707,-0.1833,-0.1898,-0.1898,-0.1898,-0.1927,0.1258,0.1253,0.1227,0.1178,0.11,0.1014,0.0952,0.0838,0.0726,0.0621,0.0506,0.0421,0.04,0.0349,0.0318,0.0358,0.0387,0.0281,-0.0055,0.0,0.0,-0.1244,-0.1787,-0.2191,0.0,0.0,0.0,0.0,0.0,0.0,-0.2691,-0.2691,-0.2691,-0.2691,-0.2691,-0.2691,-0.2691,-0.2691,-0.2691,-0.2691,-0.2691,-0.2691,-0.2691,-0.2691,-0.2691,0.0,0.0,0.0,0.0,-0.2456,-0.238,-0.2323,-0.2323,-0.2323,-0.2327,-0.238,-0.2432,-0.2464,-0.2495,-0.2425,-0.2323,-0.2323,-0.2271,-0.2201,-0.2201,-0.2201,-0.2201,-0.2201,-0.2201,-0.2201,-0.2201,-0.2201,-0.2201,-0.2201,-0.2201,-0.2201,-0.2201,-0.2201,-0.219,-0.2139,-0.2062,-0.1978,-0.1921,-0.1859,-0.1807,-0.1679,-0.1665,-0.1643,-0.16,-0.1609,-0.1609,-0.1609,-0.1609,-0.1609,-0.1609,-0.1609,-0.1609,-0.1609,-0.1609,-0.1609,-0.1609,-0.1609,-0.162,-0.1665,-0.1693,-0.1737,-0.1837,-0.1887,-0.1902,-0.1902,-0.1946,-0.197,0.112,0.1085,0.1078,0.1063,0.1011,0.0951,0.0875,0.0795,0.0717,0.0617,0.0515,0.0429,0.0407,0.0348,0.0316,0.0353,0.028,0.0135,0.0,0.0,0.0,-0.1351,0.0,0.0,0.0,0.0,0.0,0.0,0.0,0.0,-0.2691,-0.2691,-0.2691,-0.2691,-0.2691,-0.2691,-0.2691,-0.2691,-0.2691,-0.2691,-0.2691,-0.2691,-0.2691,-0.2691,-0.2691,0.0,0.0,0.0,0.0,-0.2456,-0.2385,-0.2331,-0.2331,-0.2311,-0.2312,-0.2382,-0.2401,-0.2374,-0.2444,-0.2387,-0.2304,-0.2304,-0.2248,-0.2201,-0.2201,-0.2201,-0.2201,-0.2201,-0.2201,-0.2201,-0.2201,-0.2201,-0.2201,-0.2201,-0.2201,-0.2201,-0.2201,-0.2201,-0.2201,-0.2201,-0.2131,-0.206,-0.2002,-0.197,-0.1901,-0.179,-0.1729,-0.1687,-0.1649,-0.1612,-0.1609,-0.1609,-0.1609,-0.1609,-0.1609,-0.1609,-0.1609,-0.1609,-0.1609,-0.1609,-0.1609,-0.1609,-0.1634,-0.1705,-0.1741,-0.1822,-0.1933,-0.1988,-0.2005,-0.2007,-0.2065,-0.207,0.0,0.0897,0.0902,0.0969,0.094,0.0868,0.0811,0.0786,0.0,0.0616,0.0538,0.0477,0.041,0.0329,0.029,0.0305,0.007,-0.013,0.0,-0.0524,0.0,0.0,-0.1932,0.0,0.0,0.0,0.0,0.0,0.0,0.0,-0.2691,-0.2691,-0.2691,-0.2691,-0.2691,-0.2691,-0.2691,-0.2691,-0.2691,-0.2691,-0.2691,-0.2691,-0.2691,-0.2691,-0.2691,0.0,0.0,0.0,0.0,-0.2464,-0.2402,-0.2402,-0.2402,-0.237,-0.2335,-0.25,-0.2453,-0.2329,-0.2522,-0.2444,-0.2304,-0.2304,-0.2246,-0.2176,-0.2176,-0.2178,-0.2201,-0.2201,-0.2201,-0.2201,-0.2201,-0.2201,-0.2201,-0.2201,-0.2201,-0.2201,-0.2201,-0.2201,-0.2201,-0.2201,-0.2201,-0.2149,-0.2042,-0.2006,-0.1997,-0.1925,-0.18,-0.1725,-0.1719,-0.1657,-0.16,-0.16,-0.1596,-0.1609,-0.1609,-0.1609,-0.1609,-0.1609,-0.1609,-0.1609,-0.1609,-0.1598,-0.1643,-0.1717,-0.1852,-0.1942,-0.2006,-0.2135,-0.2201,-0.2201,-0.2201,-0.2203,0.0875,0.0,0.0819,0.0778,0.076,0.0746,0.0,0.0647,0.0563,0.053,0.0465,0.0423,0.0403,0.0217,0.0151,0.0412,0.0014,-0.0376,-0.0541,0.0,0.0,-0.2017,-0.2176,0.0,0.0,0.0,0.0,0.0,0.0,-0.2691,-0.2691,-0.2691,-0.2691,-0.2691,-0.2691,-0.2691,-0.2691,-0.2691,-0.2691,-0.2691,-0.2691,-0.2691,-0.2691,-0.2691,-0.2691,0.0,0.0,0.0,-0.268,-0.2587,-0.2548,-0.2548,-0.2548,-0.2492,-0.2383,-0.238,-0.2341,-0.2302,-0.2303,-0.2288,-0.2304,-0.2304,-0.2108,-0.1884,-0.1884,-0.2042,-0.2201,-0.2201,-0.2201,-0.2201,-0.2201,-0.2201,-0.2201,-0.2201,-0.2201,-0.2201,-0.2201,-0.2201,-0.2201,-0.2201,-0.2201,-0.2192,-0.2149,-0.2145,-0.2114,-0.2001,-0.1948,-0.1909,-0.1858,-0.175,-0.1675,-0.1675,-0.1632,-0.1609,-0.1609,-0.1609,-0.1609,-0.1609,-0.1609,-0.1609,-0.1609,-0.1657,-0.1738,-0.1848,-0.203,-0.2144,-0.2145,-0.2188,-0.2201,-0.2201,-0.2201,-0.2236,0.0888,0.0826,0.0797,0.0754,0.0727,0.0705,0.0742,0.0616,0.0503,0.0502,0.045,0.0357,0.0199,0.0049,-0.0037,-0.0014,-0.0466,0.0,0.0,0.0,-0.2052,-0.2188,0.0,0.0,0.0,0.0,0.0,0.0,0.0,-0.2691,-0.2691,-0.2691,-0.2691,-0.2691,-0.2691,-0.2691,-0.2691,-0.2691,-0.2691,-0.2691,-0.2691,-0.2691,-0.2691,-0.2691,-0.2691,0.0,0.0,0.0,-0.2687,-0.2665,-0.2644,-0.2644,-0.2644,-0.2536,-0.2392,-0.2434,-0.2352,-0.2244,-0.2238,-0.224,-0.2229,-0.2152,-0.1969,-0.1772,-0.1658,-0.1794,-0.202,-0.202,-0.2109,-0.2201,-0.2201,-0.2201,-0.2201,-0.2201,-0.2201,-0.2201,-0.2201,-0.2201,-0.2201,-0.2201,-0.2201,-0.2201,-0.2201,-0.2201,-0.2182,-0.211,-0.2046,-0.198,-0.1952,-0.1864,-0.1772,-0.1711,-0.1665,-0.1637,-0.1611,-0.1609,-0.1609,-0.1609,-0.163,-0.1653,-0.1653,-0.174,-0.1832,-0.1942,-0.2106,-0.2201,-0.2201,-0.2201,-0.2201,-0.2201,-0.224,-0.2261,0.0953,0.0867,0.0813,0.0796,0.075,0.0734,0.0793,0.0642,0.0505,0.0518,0.0458,0.0293,-0.0038,-0.0128,0.0,-0.0562,0.0,0.0,-0.1945,-0.2008,-0.2068,0.0,0.0,0.0,0.0,0.0,0.0,0.0,0.0,-0.2676,-0.2689,-0.2676,-0.2676,-0.2691,-0.2691,-0.2691,-0.2691,-0.2691,-0.2691,-0.2691,-0.2691,-0.2691,-0.2691,-0.2691,-0.2691,-0.2691,0.0,0.0,-0.2691,-0.2691,-0.2691,-0.2691,-0.2691,-0.2587,-0.2446,-0.2537,-0.2415,-0.2253,-0.2316,-0.229,-0.2207,-0.1998,-0.1849,-0.1718,-0.1436,-0.1524,-0.1748,-0.1748,-0.1951,-0.2201,-0.2201,-0.2201,-0.2201,-0.2201,-0.2201,-0.2201,-0.2201,-0.2201,-0.2201,-0.2201,-0.2201,-0.2201,-0.2201,-0.2201,-0.2201,-0.2201,-0.211,-0.204,-0.204,-0.196,-0.1872,-0.1757,-0.1737,-0.1715,-0.1656,-0.165,-0.1643,-0.1612,-0.1665,-0.1721,-0.1747,-0.1862,-0.1946,-0.2037,-0.2137,-0.2201,-0.2201,-0.2201,-0.2207,-0.2221,-0.2271,-0.2319,0.1008,0.0939,0.0857,0.0746,0.075,0.0782,0.0802,0.0646,0.052,0.0576,0.0485,0.0293,-0.0041,-0.0234,-0.0423,0.0,0.0,-0.1598,0.0,0.0,0.0,0.0,0.0,0.0,0.0,0.0,0.0,0.0,0.0,-0.2636,-0.2687,-0.2644,-0.2638,-0.2689,-0.2691,-0.2691,-0.2691,-0.2691,-0.2691,-0.2691,-0.2691,-0.2691,-0.2691,-0.2691,-0.2691,-0.2691,0.0,-0.2691,-0.2691,-0.2691,-0.2691,-0.2691,-0.2691,-0.2655,-0.2552,-0.2462,-0.2411,-0.2391,-0.2506,-0.2479,-0.2329,-0.2142,-0.1875,-0.1572,-0.1245,-0.1299,-0.1456,-0.1456,-0.1817,-0.2201,-0.2201,-0.2201,-0.2201,-0.2201,-0.2201,-0.2201,-0.2201,-0.2201,-0.2201,-0.2201,-0.2201,-0.2201,-0.2201,-0.2201,-0.2201,-0.2201,-0.2188,-0.2178,-0.2178,-0.2054,-0.1972,-0.1958,-0.1907,-0.1875,-0.1861,-0.1859,-0.1807,-0.1693,-0.1701,-0.1775,-0.195,-0.1968,-0.204,-0.2176,-0.2192,-0.2201,-0.2201,-0.2201,-0.2238,-0.2286,-0.2298,-0.2389,0.0879,0.0839,0.0826,0.073,0.0775,0.0862,0.0895,0.0756,0.0626,0.07,0.0428,0.0096,0.0,0.0,-0.1003,-0.1348,0.0,-0.1843,0.0,0.0,0.0,0.0,0.0,0.0,0.0,0.0,0.0,0.0,0.0,0.0,-0.254,-0.2576,-0.2628,-0.2642,-0.2692,-0.2691,-0.2691,-0.2691,-0.2691,-0.2691,-0.2691,-0.2691,-0.2691,-0.2691,-0.2691,-0.2691,0.0,-0.2691,-0.2691,-0.2691,-0.2691,-0.2691,-0.2691,-0.2663,-0.2597,-0.2452,-0.2392,-0.2429,-0.255,-0.2521,-0.2367,-0.2164,-0.1866,-0.1537,-0.1202,-0.1232,-0.1411,-0.1411,-0.1794,-0.2201,-0.2201,-0.2201,-0.2201,-0.2201,-0.2201,-0.2201,-0.2201,-0.2201,-0.2201,-0.2201,-0.2201,-0.2201,-0.2201,-0.2201,-0.2201,-0.2201,-0.2201,-0.2201,-0.2201,-0.2141,-0.2072,-0.2002,-0.198,-0.1935,-0.1906,-0.1902,-0.1884,-0.1873,-0.1826,-0.1901,-0.2106,-0.2114,-0.2133,-0.2199,-0.2201,-0.2201,-0.2201,-0.2201,-0.2244,-0.2306,-0.2331,-0.2451,0.0789,0.075,0.0768,0.0752,0.0817,0.088,0.0862,0.0721,0.0601,0.0617,0.0224,-0.0196,0.0,-0.1018,0.0,-0.1939,-0.2035,-0.2074,0.0,0.0,0.0,0.0,0.0,0.0,0.0,0.0,0.0,0.0,0.0,0.0,-0.239,-0.251,-0.2558,-0.2607,-0.2671,-0.2691,-0.2691,-0.2691,-0.2691,-0.2691,-0.2691,-0.2691,-0.2691,-0.2691,-0.2691,-0.2691,-0.2691,-0.2691,-0.2691,-0.2691,-0.2691,-0.2691,-0.2691,-0.2663,-0.2601,-0.2499,-0.2468,-0.2462,-0.2581,-0.2566,-0.2427,-0.2199,-0.1902,-0.158,-0.1307,-0.1337,-0.1452,-0.1545,-0.1877,-0.2226,-0.2205,-0.2201,-0.2201,-0.2201,-0.2201,-0.2201,-0.2201,-0.2201,-0.2201,-0.2201,-0.2201,-0.2201,-0.2201,-0.2201,-0.2201,-0.2201,-0.2201,-0.2201,-0.2201,-0.2201,-0.2171,-0.2058,-0.205,-0.2021,-0.1972,-0.1945,-0.1954,-0.2044,-0.1964,-0.2007,-0.2194,-0.2201,-0.2201,-0.2201,-0.2201,-0.2201,-0.2201,-0.2201,-0.2232,-0.2315,-0.2385,-0.2478,0.0827,0.0751,0.074,0.0857,0.0846,0.0749,0.0494,0.0379,0.0278,0.0087,-0.0215,-0.0547,0.0,-0.1401,-0.1897,-0.198,-0.2112,0.0,0.0,0.0,0.0,0.0,0.0,0.0,0.0,0.0,0.0,0.0,0.0,0.0,-0.2388,-0.2398,-0.2466,-0.2605,-0.2671,-0.2691,-0.2691,-0.2691,-0.2691,-0.2691,-0.2691,-0.2691,-0.2691,-0.2691,-0.2691,-0.2691,-0.2691,-0.2691,-0.2691,-0.2691,-0.2691,-0.2691,-0.2691,-0.2663,-0.2617,-0.2669,-0.2644,-0.2585,-0.2675,-0.2676,-0.2629,-0.2302,-0.1959,-0.1681,-0.1672,-0.1627,-0.1652,-0.1974,-0.2166,-0.2277,-0.2219,-0.2201,-0.2201,-0.2201,-0.2201,-0.2201,-0.2201,-0.2201,-0.2201,-0.2201,-0.2201,-0.2201,-0.2201,-0.2201,-0.2201,-0.2201,-0.2201,-0.2201,-0.2201,-0.2201,-0.2199,-0.219,-0.219,-0.2186,-0.218,-0.2058,-0.2048,-0.2184,-0.206,-0.2052,-0.2196,-0.2201,-0.2201,-0.2201,-0.2201,-0.2201,-0.2201,-0.2201,-0.2265,-0.2382,-0.2388,-0.2511,0.0786,0.0724,0.0727,0.0819,0.085,0.0795,0.0522,0.0477,0.041,0.0169,-0.0343,-0.0918,-0.1472,0.0,-0.1997,-0.211,0.0,0.0,0.0,0.0,0.0,0.0,0.0,0.0,0.0,0.0,0.0,0.0,0.0,0.0,0.0,-0.2305,-0.2374,-0.2466,-0.2585,-0.2661,-0.2689,-0.2691,-0.2691,-0.2691,-0.2691,-0.2691,-0.2691,-0.2691,-0.2691,-0.2691,-0.2691,-0.2691,-0.2691,-0.2691,-0.2691,-0.2691,-0.2691,-0.2698,-0.2671,-0.2679,-0.2696,-0.2671,-0.2679,-0.2691,-0.2676,-0.2502,-0.2262,-0.2009,-0.1961,-0.194,-0.1938,-0.2064,-0.2217,-0.2358,-0.2325,-0.23,-0.2257,-0.2257,-0.2257,-0.2242,-0.2211,-0.2201,-0.2201,-0.2201,-0.2201,-0.2201,-0.2201,-0.2201,-0.2201,-0.2201,-0.2201,-0.2201,-0.2201,-0.2201,-0.2201,-0.2201,-0.2201,-0.2201,-0.2201,-0.2145,-0.2141,-0.2199,-0.2068,-0.206,-0.2196,-0.2201,-0.2201,-0.2201,-0.2201,-0.2201,-0.2201,-0.2253,-0.2321,-0.2394,-0.2476,-0.2597,0.0764,0.0698,0.0727,0.0813,0.0783,0.0672,0.0437,0.0408,0.0336,-0.002,-0.0587,-0.1238,-0.1938,0.0,0.0,0.0,0.0,0.0,0.0,0.0,0.0,0.0,0.0,0.0,0.0,0.0,0.0,0.0,0.0,0.0,0.0,-0.2259,-0.2323,-0.2388,-0.2533,-0.2626,-0.2689,-0.2691,-0.2691,-0.2691,-0.2691,-0.2691,-0.2691,-0.2691,-0.2691,-0.2691,-0.2691,-0.2691,-0.2691,-0.2691,-0.2691,-0.2691,-0.2691,-0.2691,-0.2691,-0.2691,-0.2691,-0.2691,-0.2691,-0.2691,-0.2681,-0.2644,-0.2433,-0.2207,-0.2258,-0.2215,-0.2163,-0.2267,-0.2378,-0.2466,-0.2497,-0.2415,-0.2323,-0.2323,-0.2327,-0.229,-0.223,-0.2219,-0.2201,-0.2201,-0.2201,-0.2201,-0.2201,-0.2201,-0.2201,-0.2201,-0.2201,-0.2201,-0.2201,-0.2201,-0.2201,-0.2201,-0.2201,-0.2201,-0.2201,-0.2201,-0.2201,-0.2201,-0.2118,-0.2112,-0.2199,-0.2201,-0.2201,-0.2201,-0.2226,-0.224,-0.224,-0.2306,-0.237,-0.2462,-0.2552,-0.263,0.0775,0.0698,0.0738,0.0867,0.0647,0.035,0.0142,0.0091,-0.0057,-0.0591,-0.1019,-0.149,-0.2093,-0.2102,0.0,-0.2184,0.0,0.0,0.0,0.0,0.0,0.0,0.0,0.0,0.0,0.0,0.0,0.0,0.0,0.0,0.0,-0.2259,-0.2323,-0.2388,-0.2533,-0.2626,-0.2689,-0.2691,-0.2691,-0.2691,-0.2691,-0.2691,-0.2691,-0.2691,-0.2691,-0.2691,-0.2691,-0.2691,-0.2691,-0.2691,-0.2691,-0.2691,-0.2691,-0.2691,-0.2691,-0.2691,-0.2691,-0.2691,-0.2691,-0.2691,-0.2691,-0.2691,-0.2465,-0.2268,-0.2605,-0.2465,-0.2268,-0.2605,-0.2653,-0.2603,-0.2696,-0.2556,-0.2394,-0.2394,-0.235,-0.2306,-0.2304,-0.2238,-0.2201,-0.2201,-0.2201,-0.2201,-0.2201,-0.2201,-0.2201,-0.2201,-0.2201,-0.2201,-0.2201,-0.2201,-0.2201,-0.2201,-0.2201,-0.2201,-0.2201,-0.2201,-0.2201,-0.2201,-0.2201,-0.2201,-0.2201,-0.2201,-0.2201,-0.2201,-0.2261,-0.2304,-0.2306,-0.2374,-0.2466,-0.2607,-0.2609,-0.263,0.0764,0.0738,0.0808,0.0944,0.0761,0.0483,0.0277,0.002,-0.0371,-0.1061,-0.1287,-0.1545,-0.2105,-0.2178,0.0,0.0,0.0,0.0,0.0,0.0,0.0,0.0,0.0,0.0,0.0,0.0,0.0,0.0,0.0,0.0,0.0,-0.2259,-0.2323,-0.2388,-0.2533,-0.2626,-0.2689,-0.2691,-0.2691,-0.2691,-0.2691,-0.2691,-0.2691,-0.2691,-0.2691,-0.2691,-0.2691,-0.2691,-0.2691,-0.2691,-0.2691,-0.2691,-0.2691,-0.2691,-0.2691,-0.2691,-0.2691,-0.2691,-0.2691,-0.2691,-0.2691,-0.2691,-0.2635,-0.2577,-0.2663,-0.2635,-0.2577,-0.2663,-0.2698,-0.2684,-0.2683,-0.265,-0.2593,-0.2556,-0.2444,-0.236,-0.2319,-0.2238,-0.2201,-0.2201,-0.2201,-0.2201,-0.2201,-0.2201,-0.2201,-0.2201,-0.2201,-0.2201,-0.2201,-0.2201,-0.2201,-0.2201,-0.2201,-0.2201,-0.2201,-0.2201,-0.2201,-0.2201,-0.2201,-0.2201,-0.2201,-0.2201,-0.2228,-0.2265,-0.2292,-0.2313,-0.2376,-0.2494,-0.2554,-0.2609,-0.2649,-0.2692,0.0783,0.0783,0.0876,0.1038,0.073,0.032,-0.0021,0.0,0.0,0.0,-0.1411,-0.1569,-0.2109,-0.2201,0.0,0.0,0.0,0.0,0.0,0.0,0.0,0.0,0.0,0.0,0.0,0.0,0.0,0.0,0.0,0.0,0.0,-0.2259,-0.2323,-0.2388,-0.2533,-0.2626,-0.2689,-0.2691,-0.2691,-0.2691,-0.2691,-0.2691,-0.2691,-0.2691,-0.2691,-0.2691,-0.2691,-0.2691,-0.2691,-0.2691,-0.2691,-0.2691,-0.2691,-0.2691,-0.2691,-0.2691,-0.2691,-0.2691,-0.2691,-0.2691,-0.2691,-0.2691,-0.2691,-0.2691,-0.2691,-0.2691,-0.2691,-0.2691,-0.2691,-0.2691,-0.2691,-0.2691,-0.2676,-0.2649,-0.2564,-0.2448,-0.2354,-0.229,-0.224,-0.2207,-0.2201,-0.2201,-0.2201,-0.2201,-0.2201,-0.2201,-0.2201,-0.2201,-0.2201,-0.2201,-0.2201,-0.2201,-0.2201,-0.2219,-0.2244,-0.2205,-0.2215,-0.2249,-0.2219,-0.2215,-0.2249,-0.2217,-0.224,-0.2302,-0.2317,-0.238,-0.2472,-0.2591,-0.2636,-0.2636,-0.2694,-0.2691,0.0847,0.0862,0.0953,0.1158,0.0663,0.0,-0.0569,-0.0697,-0.0831,-0.1277,0.0,-0.1547,-0.2064,-0.2178,0.0,0.0,0.0,0.0,0.0,0.0,0.0,0.0,0.0,0.0,0.0,0.0,0.0,0.0,0.0,0.0,0.0,-0.2267,-0.2331,-0.2388,-0.2541,-0.2634,-0.2689,-0.2691,-0.2691,-0.2691,-0.2691,-0.2691,-0.2691,-0.2691,-0.2691,-0.2691,-0.2691,-0.2691,-0.2691,-0.2691,-0.2691,-0.2691,-0.2691,-0.2691,-0.2691,-0.2691,-0.2691,-0.2691,-0.2691,-0.2691,-0.2691,-0.2691,-0.2691,-0.2691,-0.2691,-0.2691,-0.2691,-0.2691,-0.2691,-0.2691,-0.2691,-0.2691,-0.2691,-0.2691,-0.2649,-0.2558,-0.2448,-0.2354,-0.2286,-0.2228,-0.2205,-0.2201,-0.2201,-0.2201,-0.2201,-0.2201,-0.2201,-0.2201,-0.2201,-0.2201,-0.2201,-0.2201,-0.2201,-0.2236,-0.2329,-0.229,-0.2253,-0.2312,-0.224,-0.223,-0.2314,-0.2234,-0.2257,-0.2329,-0.2387,-0.2474,-0.262,-0.2677,-0.2691,-0.2691,-0.2691,-0.2691,0.0946,0.0928,0.0,0.1158,0.0755,0.0152,-0.0536,-0.0697,-0.0786,-0.1098,-0.1299,-0.15,-0.1817,0.0,0.0,0.0,0.0,0.0,0.0,0.0,0.0,0.0,0.0,0.0,0.0,0.0,0.0,0.0,0.0,0.0,-0.2201,-0.2303,-0.2397,-0.239,-0.2576,-0.2698,-0.2691,-0.2691,-0.2691,0.0,-0.2691,-0.2691,-0.2691,-0.2691,-0.2691,-0.2691,-0.2691,-0.2691,-0.2691,-0.2691,-0.2691,-0.2691,-0.2691,-0.2691,-0.2691,-0.2691,-0.2691,-0.2691,-0.2691,-0.2691,-0.2691,-0.2691,-0.2691,-0.2691,-0.2691,-0.2691,-0.2691,-0.2691,-0.2691,-0.2691,-0.2691,-0.2691,-0.2691,-0.2691,-0.2649,-0.2603,-0.2556,-0.2417,-0.2307,-0.2288,-0.2246,-0.2201,-0.2201,-0.2201,-0.2201,-0.2201,-0.2201,-0.2201,-0.2201,-0.2201,-0.2201,-0.2201,-0.2201,-0.2304,-0.2587,-0.2591,-0.2521,-0.2397,-0.2305,-0.2299,-0.2387,-0.2327,-0.2356,-0.2544,-0.2541,-0.2597,-0.269,-0.2681,-0.2691,-0.2691,-0.2691,-0.2691,0.0921,0.0928,0.0,0.0867,0.0,0.0281,-0.0513,-0.0697,-0.0742,-0.0876,-0.1098,-0.1366,-0.1725,0.0,0.0,0.0,0.0,0.0,0.0,0.0,0.0,0.0,0.0,0.0,0.0,0.0,0.0,0.0,0.0,-0.2201,-0.2201,-0.2304,-0.2372,-0.239,-0.2554,-0.2653,-0.2653,-0.2653,-0.2653,-0.2653,-0.2653,-0.2675,-0.2691,-0.2691,-0.2691,-0.2691,-0.2691,-0.2691,-0.2691,-0.2691,-0.2691,-0.2691,-0.2691,-0.2691,-0.2691,-0.2691,-0.2691,-0.2691,-0.2691,-0.2691,-0.2691,-0.2691,-0.2691,-0.2691,-0.2691,-0.2691,-0.2691,-0.2691,-0.2691,-0.2691,-0.2691,-0.2691,-0.2691,-0.2691,-0.2682,-0.263,-0.2574,-0.2519,-0.2448,-0.2281,-0.2232,-0.2201,-0.2201,-0.2201,-0.2201,-0.2201,-0.2201,-0.2201,-0.2201,-0.2201,-0.2267,-0.2418,-0.2436,-0.2512,-0.2674,-0.2691,-0.265,-0.2554,-0.2441,-0.2406,-0.2437,-0.2455,-0.2481,-0.2605,-0.2607,-0.2626,-0.2691,-0.2691,-0.2691,-0.2691,-0.2691,-0.2691,0.0862,0.0905,0.0848,0.0573,0.0612,0.0,-0.0489,-0.0697,-0.0697,-0.0697,-0.092,-0.1208,0.0,0.0,0.0,0.0,0.0,0.0,0.0,0.0,0.0,0.0,0.0,0.0,0.0,0.0,0.0,0.0,0.0,-0.2201,-0.2201,-0.2259,-0.2315,-0.2391,-0.2508,-0.2558,-0.2558,-0.2599,-0.2599,-0.2558,-0.2601,-0.263,-0.2691,-0.2691,-0.2691,-0.2691,-0.2691,-0.2691,-0.2691,-0.2691,-0.2691,-0.2691,-0.2691,-0.2691,-0.2691,-0.2691,-0.2691,-0.2691,-0.2691,-0.2691,-0.2691,-0.2691,-0.2691,-0.2691,-0.2691,-0.2691,-0.2691,-0.2691,-0.2691,-0.2691,-0.2691,-0.2691,-0.2691,-0.2691,-0.2691,-0.2664,-0.2564,-0.2619,-0.262,-0.2288,-0.2221,-0.2201,-0.2201,-0.2201,-0.2201,-0.2201,-0.2201,-0.2201,-0.2201,-0.2201,-0.2316,-0.2652,-0.2691,-0.2691,-0.2691,-0.2691,-0.2691,-0.2691,-0.2599,-0.2542,-0.2542,-0.2593,-0.2605,-0.2605,-0.2605,-0.2642,-0.2691,-0.2691,-0.2691,-0.2691,-0.2691,-0.2691,0.085,0.0,0.0912,0.0,0.0899,0.0954,0.0,0.0,-0.0697,0.0,-0.092,0.0,0.0,0.0,0.0,0.0,0.0,0.0,0.0,0.0,0.0,0.0,0.0,0.0,0.0,0.0,0.0,0.0,-0.2201,-0.2201,-0.2201,-0.2259,-0.231,-0.2323,-0.2389,-0.2436,-0.2436,-0.2541,-0.2541,-0.2436,-0.2543,-0.263,-0.2691,-0.2691,-0.2691,-0.2691,-0.2691,-0.2691,-0.2691,-0.2691,-0.2691,-0.2691,-0.2691,-0.2691,-0.2691,-0.2691,-0.2691,-0.2691,-0.2691,-0.2691,-0.2691,-0.2691,-0.2691,-0.2691,-0.2691,-0.2691,-0.2691,-0.2691,-0.2691,-0.2691,-0.2691,-0.2691,-0.2691,-0.2691,-0.2691,-0.2687,-0.267,-0.2679,-0.263,-0.2423,-0.2281,-0.2201,-0.2201,-0.2201,-0.2201,-0.2201,-0.2201,-0.2201,-0.2201,-0.2201,-0.2316,-0.2652,-0.2691,-0.2691,-0.2691,-0.2691,-0.2691,-0.2691,-0.2676,-0.2666,-0.2666,-0.267,-0.27,-0.27,-0.27,-0.2679,-0.2691,-0.2691,-0.2691,-0.2691,-0.2691,-0.2691,0.081,0.0919,0.0973,0.0,0.1034,0.1011,0.011,-0.0404,-0.0697,-0.0697,0.0,0.0,0.0,0.0,0.0,0.0,0.0,0.0,0.0,0.0,0.0,0.0,0.0,0.0,0.0,0.0,0.0,0.0,-0.2201,-0.2201,-0.2201,-0.2236,-0.2255,-0.2304,-0.2319,-0.2342,-0.2342,-0.2405,-0.2405,-0.2344,-0.2512,-0.2574,-0.254,-0.2618,-0.2642,-0.2644,-0.2696,-0.269,-0.2647,-0.2698,-0.2691,-0.2691,-0.2691,-0.2691,-0.2691,-0.2691,-0.2691,-0.2691,-0.2691,-0.2691,-0.2691,-0.2691,-0.2691,-0.2691,-0.2691,-0.2691,-0.2691,-0.2691,-0.2691,-0.2691,-0.2691,-0.2691,-0.2691,-0.2691,-0.2691,-0.2691,-0.2691,-0.2691,-0.2666,-0.2587,-0.2507,-0.2415,-0.2236,-0.2201,-0.2269,-0.2451,-0.2481,-0.2481,-0.2481,-0.2481,-0.2541,-0.2674,-0.2691,-0.2691,-0.2691,-0.2691,-0.2691,-0.2691,-0.2691,-0.2691,-0.2691,-0.2691,-0.2691,-0.2691,-0.2691,-0.2691,-0.2691,-0.2691,-0.2691,-0.2691,-0.2493,-0.241,0.076,0.0813,0.0884,0.1064,0.1093,0.0965,0.0,0.0,-0.0572,0.0,0.0,0.0,0.0,0.0,0.0,0.0,0.0,0.0,0.0,0.0,0.0,0.0,0.0,0.0,0.0,0.0,0.0,0.0,-0.2201,-0.2201,-0.2201,-0.2201,-0.223,-0.2271,-0.2273,-0.2273,-0.2273,-0.2273,-0.2296,-0.2317,-0.2479,-0.2523,-0.2456,-0.2601,-0.2644,-0.2604,-0.2644,-0.2644,-0.2613,-0.2655,-0.2698,-0.2691,-0.2691,-0.2691,-0.2691,-0.2691,-0.2691,-0.2691,-0.2691,-0.2691,-0.2691,-0.2691,-0.2691,-0.2691,-0.2691,-0.2691,-0.2691,-0.2691,-0.2691,-0.2691,-0.2691,-0.2691,-0.2691,-0.2691,-0.2691,-0.2691,-0.2691,-0.2691,-0.2691,-0.2691,-0.2691,-0.2632,-0.2362,-0.2316,-0.2407,-0.265,-0.2691,-0.2691,-0.2691,-0.2691,-0.2691,-0.2691,-0.2691,-0.2691,-0.2691,-0.2691,-0.2691,-0.2691,-0.2691,-0.2691,-0.2691,-0.2691,-0.2691,-0.2691,-0.2691,-0.2691,-0.2691,-0.2691,-0.2663,-0.2577,-0.2324,-0.2155,0.0689,0.0572,0.0539,0.099,0.1093,0.0962,0.0,0.0,0.0,0.0,0.0,0.0,0.0,0.0,0.0,0.0,0.0,0.0,0.0,0.0,0.0,0.0,0.0,0.0,0.0,0.0,0.0,0.0,-0.2201,-0.2201,-0.2201,-0.2201,-0.2203,-0.2207,-0.2207,-0.2207,-0.2207,-0.2207,-0.2269,-0.2384,-0.2394,-0.2468,-0.2603,-0.2808,-0.2779,-0.2608,-0.2602,-0.2611,-0.2607,-0.2613,-0.2638,-0.2691,-0.2691,-0.2691,-0.2691,-0.2691,-0.2691,-0.2691,-0.2691,-0.2691,-0.2691,-0.2691,-0.2691,-0.2691,-0.2691,-0.2691,-0.2691,-0.2691,-0.2691,-0.2691,-0.2691,-0.2691,-0.2691,-0.2691,-0.2691,-0.2691,-0.2691,-0.2691,-0.2691,-0.2691,-0.2691,-0.2685,-0.2666,-0.2662,-0.267,-0.2687,-0.2691,-0.2691,-0.2691,-0.2691,-0.2691,-0.2691,-0.2691,-0.2691,-0.2691,-0.2691,-0.2691,-0.2691,-0.2691,-0.2691,-0.2691,-0.2691,-0.2691,-0.2691,-0.2691,-0.2691,-0.2691,-0.2691,-0.2549,-0.224,-0.2212,-0.2071,0.0694,0.0646,0.0,0.1169,0.1202,0.0992,0.0588,0.0187,-0.0165,0.0,0.0,0.0,0.0,0.0,0.0,0.0,0.0,0.0,0.0,0.0,0.0,0.0,0.0,0.0,0.0,0.0,0.0,0.0,0.0,-0.2201,-0.2201,-0.2201,-0.2201,-0.2201,-0.2201,-0.2201,-0.2201,-0.2292,-0.2299,-0.2275,-0.2448,-0.2486,-0.2409,-0.2615,-0.2667,-0.2602,-0.2698,-0.2733,-0.2736,-0.2862,-0.2934,-0.2938,-0.2858,-0.2833,-0.2833,-0.2719,-0.2691,-0.2691,-0.2691,-0.2691,-0.2691,-0.2691,-0.2691,-0.2691,-0.2691,-0.2691,-0.2691,-0.2691,-0.2691,-0.2691,-0.2691,-0.2691,-0.2691,-0.2691,-0.2691,-0.2691,-0.2691,-0.2691,-0.2691,-0.2691,-0.2691,-0.2691,-0.2691,-0.2691,-0.2691,-0.2691,-0.2691,-0.2691,-0.2691,-0.2691,-0.2691,-0.2691,-0.2691,-0.2691,-0.2691,-0.2691,-0.2691,-0.2691,-0.2691,-0.2691,-0.2691,-0.2691,-0.2691,-0.2691,-0.2691,-0.2691,-0.2691,-0.2691,-0.2521,-0.2184,-0.2015,-0.1812,0.0783,0.0752,0.0806,0.0,0.0,0.1038,0.076,0.0,0.0,0.0,0.0,0.0,0.0,0.0,0.0,0.0,0.0,0.0,0.0,0.0,0.0,0.0,0.0,0.0,0.0,0.0,0.0,0.0,0.0,0.0,-0.2201,-0.2201,-0.2201,-0.2201,-0.2201,-0.2201,-0.2201,-0.2294,-0.2308,-0.2246,-0.2434,-0.2486,-0.2403,-0.261,-0.2684,-0.2647,-0.2842,-0.2913,-0.2885,-0.3021,-0.3072,-0.3077,-0.2942,-0.2888,-0.2888,-0.2747,-0.2691,-0.2691,-0.2691,-0.2691,-0.2691,-0.2691,-0.2691,-0.2691,-0.2691,-0.2691,-0.2691,-0.2691,-0.2691,-0.2691,-0.2691,-0.2781,-0.284,-0.2719,-0.2691,-0.2691,-0.2691,-0.2691,-0.2691,-0.2691,-0.2691,-0.2691,-0.2691,-0.2691,-0.2691,-0.2691,-0.2691,-0.2691,-0.2691,-0.2691,-0.2691,-0.2691,-0.2691,-0.2691,-0.2691,-0.2691,-0.2691,-0.2691,-0.2691,-0.2691,-0.2691,-0.2691,-0.2691,-0.2691,-0.2691,-0.2635,-0.2521,-0.2521,-0.238,-0.2071,-0.1764,-0.1493,0.0,0.0,0.0,0.0,0.0,0.0,0.0933,0.0,0.0,0.0,0.0,0.0,0.0,0.0,0.0,0.0,0.0,0.0,0.0,0.0,0.0,0.0,0.0,0.0,0.0,0.0,0.0,0.0,-0.1794,-0.1906,-0.2176,-0.2201,-0.2201,-0.2201,-0.2201,-0.2201,-0.2201,-0.2203,-0.2246,-0.2306,-0.2376,-0.2468,-0.2611,-0.2815,-0.2836,-0.2717,-0.3059,-0.311,-0.3004,-0.2999,-0.3062,-0.3105,-0.297,-0.2916,-0.2888,-0.2747,-0.2691,-0.2691,-0.2691,-0.2691,-0.2691,-0.2691,-0.2691,-0.2691,-0.2691,-0.2691,-0.2691,-0.2691,-0.2691,-0.2691,-0.2691,-0.295,-0.3089,-0.2774,-0.2691,-0.2691,-0.2691,-0.2691,-0.2691,-0.2691,-0.2691,-0.2691,-0.2691,-0.2691,-0.2691,-0.2691,-0.2691,-0.2691,-0.2691,-0.2691,-0.2691,-0.2691,-0.2691,-0.2691,-0.2691,-0.2691,-0.2691,-0.2691,-0.2691,-0.2691,-0.2691,-0.2691,-0.2691,-0.2691,-0.2691,-0.2521,-0.2212,-0.2212,-0.2071,-0.179,-0.1432,-0.1194,0.1184,0.0,0.0,0.0,0.0,0.0,0.0,0.0,0.0,0.0,0.0,0.0,0.0,0.0,0.0,0.0,0.0,0.0,0.0,0.0,0.0,0.0,0.0,0.0,0.0,0.0,0.0,0.0,-0.1681,-0.1839,-0.1906,-0.2087,-0.2201,-0.2201,-0.2201,-0.2201,-0.2201,-0.2238,-0.2281,-0.2306,-0.2467,-0.2556,-0.2611,-0.2705,-0.279,-0.2849,-0.2929,-0.3092,-0.3277,-0.3302,-0.3307,-0.3299,-0.3105,-0.2998,-0.2888,-0.2747,-0.2691,-0.2691,-0.2691,-0.2691,-0.2691,-0.2691,-0.2691,-0.2691,-0.2691,-0.2691,-0.2691,-0.2691,-0.2691,-0.2691,-0.2691,-0.2764,-0.2813,-0.2713,-0.2691,-0.2691,-0.2691,-0.2691,-0.2691,-0.2691,-0.2691,-0.2691,-0.2691,-0.2691,-0.2691,-0.2691,-0.2691,-0.2691,-0.2691,-0.2691,-0.2691,-0.2691,-0.2691,-0.2691,-0.2691,-0.2691,-0.2691,-0.2691,-0.2691,-0.2691,-0.2691,-0.2691,-0.2691,-0.2691,-0.2691,-0.2521,-0.2212,-0.2212,-0.1931,-0.1431,-0.1208,-0.1063,0.1267,0.1454,0.1535,0.1405,0.0,0.0,0.0,0.1055,0.0,0.0,0.0,0.0,0.0,0.0,0.0,0.0,0.0,0.0,0.0,0.0,0.0,0.0,0.0,0.0,0.0,-0.0942,-0.1031,-0.1254,-0.1411,-0.1591,-0.1794,-0.2064,-0.2201,-0.2201,-0.2201,-0.2201,-0.2201,-0.2251,-0.229,-0.2338,-0.2432,-0.2527,-0.2636,-0.2589,-0.2674,-0.2828,-0.2774,-0.292,-0.3183,-0.3211,-0.3312,-0.3385,-0.3107,-0.297,-0.2888,-0.2747,-0.2691,-0.2691,-0.2691,-0.2691,-0.2691,-0.2691,-0.2691,-0.2691,-0.2691,-0.2691,-0.2691,-0.2691,-0.2691,-0.2691,-0.2691,-0.2691,-0.2691,-0.2691,-0.2691,-0.2691,-0.2691,-0.2691,-0.2691,-0.2691,-0.2691,-0.2691,-0.2691,-0.2691,-0.2691,-0.2691,-0.2691,-0.2691,-0.2691,-0.2691,-0.2691,-0.2691,-0.2691,-0.2691,-0.2691,-0.2691,-0.2691,-0.2691,-0.2691,-0.2691,-0.2691,-0.2691,-0.2691,-0.2691,-0.2549,-0.2268,-0.1821,-0.1959,-0.1721,-0.1119,-0.1056,-0.0995,0.132,0.1573,0.1781,0.1618,0.1501,0.0,0.132,0.1307,0.1222,0.0,0.0,0.0,0.0,0.0,0.0,0.0,0.0,0.0,0.0,0.0,0.0,0.0,0.0,0.0,-0.0697,-0.0697,-0.0808,-0.1075,-0.1119,-0.1321,-0.1772,-0.202,-0.2176,-0.2201,-0.2201,-0.2201,-0.2201,-0.2209,-0.2275,-0.239,-0.2346,-0.2471,-0.2685,-0.2523,-0.2536,-0.2708,-0.2624,-0.2726,-0.291,-0.2959,-0.3108,-0.3304,-0.3028,-0.2888,-0.286,-0.2747,-0.2691,-0.2691,-0.2691,-0.2691,-0.2691,-0.2691,-0.2691,-0.2691,-0.2691,-0.2691,-0.2691,-0.2691,-0.2691,-0.2701,-0.274,-0.2719,-0.2691,-0.2691,-0.2691,-0.2691,-0.2691,-0.2691,-0.2703,-0.2742,-0.275,-0.2693,-0.255,-0.2664,-0.275,-0.275,-0.275,-0.2736,-0.2697,-0.2691,-0.2691,-0.2691,-0.2691,-0.2691,-0.2691,-0.2691,-0.2691,-0.2691,-0.2691,-0.2691,-0.2691,-0.2691,-0.2691,-0.2635,-0.2296,-0.1849,-0.1291,-0.1574,-0.1429,-0.0914,-0.0977,-0.1008,0.1684,0.1797,0.1804,0.1515,0.0,0.0,0.1338,0.1343,0.135,0.0,0.0,0.0,0.0,0.0,0.0,0.0,0.0,0.0,0.0,0.0,0.0,0.0,0.0,0.0,-0.0697,-0.0697,-0.0808,-0.1075,-0.1254,-0.1478,-0.1794,-0.1861,-0.1973,-0.2201,-0.2201,-0.2201,-0.2201,-0.2246,-0.2311,-0.2394,-0.25,-0.2595,-0.2689,-0.2654,-0.2656,-0.2689,-0.2682,-0.2771,-0.2888,-0.2811,-0.2843,-0.3,-0.2916,-0.2833,-0.2747,-0.2719,-0.2691,-0.2691,-0.2691,-0.2691,-0.2691,-0.2691,-0.2691,-0.2691,-0.2691,-0.2691,-0.2691,-0.2691,-0.2691,-0.2756,-0.3046,-0.2907,-0.2691,-0.2691,-0.2691,-0.2691,-0.2691,-0.2691,-0.2777,-0.3066,-0.3089,-0.2731,-0.1593,-0.234,-0.3089,-0.3089,-0.3089,-0.3017,-0.2728,-0.2691,-0.2691,-0.2691,-0.2691,-0.2691,-0.2691,-0.2691,-0.2691,-0.2691,-0.2691,-0.2691,-0.2691,-0.2691,-0.2577,-0.2296,-0.1765,-0.143,-0.1291,-0.1152,-0.1024,-0.0915,-0.0968,-0.0996,0.1859,0.192,0.1945,0.1756,0.0,0.0,0.0,0.1392,0.1388,0.1519,0.0,0.0,0.0,0.0,0.0,0.0,0.0,0.0,0.0,0.0,0.0,0.0,0.0,0.0,-0.0674,-0.0697,-0.0808,-0.1075,-0.1186,-0.1344,-0.1591,-0.1725,-0.1861,-0.1997,-0.2131,-0.2201,-0.2201,-0.2263,-0.2327,-0.2394,-0.2464,-0.2558,-0.2687,-0.2597,-0.2605,-0.2689,-0.2669,-0.2705,-0.2805,-0.2719,-0.2747,-0.2805,-0.2805,-0.2747,-0.2691,-0.2691,-0.2691,-0.2691,-0.2691,-0.2691,-0.2691,-0.2691,-0.2691,-0.2691,-0.2691,-0.2691,-0.2691,-0.2691,-0.2691,-0.2732,-0.2913,-0.2826,-0.2691,-0.2691,-0.2691,-0.2691,-0.2691,-0.2832,-0.3011,-0.3158,-0.3192,-0.2991,-0.2284,-0.215,-0.2386,-0.3092,-0.3192,-0.3128,-0.2981,-0.2958,-0.2889,-0.2709,-0.2691,-0.2691,-0.2691,-0.2691,-0.2691,-0.2691,-0.2691,-0.2691,-0.2691,-0.2549,-0.2242,-0.1765,-0.1458,-0.1244,-0.1093,-0.101,-0.0936,-0.0936,-0.0981,-0.1008,0.0,0.2085,0.0,0.0,0.0,0.1838,0.0,0.0,0.0,0.1747,0.0,0.0,0.0,0.0,0.0,0.0,0.0,0.0,0.0,0.0,0.0,0.0,0.0,0.0,0.0,-0.0595,-0.075,-0.1007,-0.1103,-0.1189,-0.1343,-0.1636,-0.1794,-0.1794,-0.2064,-0.2201,-0.2201,-0.2263,-0.2317,-0.2391,-0.2384,-0.2495,-0.2634,-0.2503,-0.2525,-0.269,-0.2632,-0.2651,-0.2691,-0.2691,-0.2691,-0.2691,-0.2691,-0.2691,-0.2691,-0.2691,-0.2691,-0.2691,-0.2691,-0.2691,-0.2691,-0.2691,-0.2691,-0.2691,-0.2691,-0.2691,-0.2691,-0.2691,-0.2691,-0.2691,-0.2691,-0.2691,-0.2691,-0.2691,-0.2691,-0.2691,-0.2691,-0.2919,-0.3111,-0.318,-0.3192,-0.3192,-0.3192,-0.2016,-0.1479,-0.2621,-0.3025,-0.3192,-0.3192,-0.3134,-0.3011,-0.2721,-0.2691,-0.2691,-0.2691,-0.2691,-0.2691,-0.2691,-0.2691,-0.2663,-0.2605,-0.224,-0.1793,-0.1319,-0.1262,-0.1112,-0.0913,-0.0973,-0.0991,-0.0998,-0.1028,-0.1054,0.0,0.0,0.0,0.0,0.2041,0.0,0.0,0.0,0.1905,0.1824,0.0,0.0,0.0,0.0,0.0,0.0,0.0,0.0,0.0,0.0,0.0,0.0,0.0,0.0,0.0,-0.0184,-0.0517,-0.0737,-0.1084,-0.1237,-0.1137,-0.1547,-0.1794,-0.1794,-0.2064,-0.2201,-0.2201,-0.2263,-0.231,-0.2321,-0.2378,-0.2402,-0.2424,-0.2537,-0.2603,-0.2601,-0.2671,-0.2681,-0.2691,-0.2691,-0.2691,-0.2691,-0.2691,-0.2691,-0.2691,-0.2691,-0.2691,-0.2691,-0.2691,-0.2691,-0.2691,-0.2691,-0.2691,-0.2691,-0.2691,-0.2691,-0.2691,-0.2691,-0.2691,-0.2691,-0.2691,-0.2691,-0.2691,-0.2691,-0.2691,-0.2691,-0.2691,-0.2723,-0.2846,-0.3132,-0.3192,-0.3192,-0.3192,-0.2016,-0.1143,-0.1311,-0.2386,-0.3192,-0.3192,-0.2948,-0.2736,-0.2695,-0.2691,-0.2691,-0.2691,-0.2691,-0.2691,-0.2691,-0.2691,-0.2577,-0.2268,-0.171,-0.1374,-0.1291,-0.1066,-0.0941,-0.0913,-0.0973,-0.1002,-0.0997,-0.1058,-0.1106,0.0,0.0,0.0,0.0,0.0,0.0,0.1924,0.0,0.1808,0.0,0.0,0.0,0.0,0.0,0.0,0.0,0.0,0.0,0.0,0.0,0.0,0.0,0.0,0.0,0.0,0.0,0.0,0.0,-0.0722,-0.0848,-0.1034,-0.1261,-0.1456,-0.1569,-0.1839,-0.2042,-0.2201,-0.2263,-0.2304,-0.2306,-0.2372,-0.2392,-0.2394,-0.2458,-0.2529,-0.2609,-0.2622,-0.2669,-0.2691,-0.2691,-0.2691,-0.2691,-0.2691,-0.2691,-0.2691,-0.2691,-0.2691,-0.2691,-0.2691,-0.2691,-0.2691,-0.2691,-0.2691,-0.2691,-0.2691,-0.2691,-0.2691,-0.2691,-0.2691,-0.2691,-0.2691,-0.2691,-0.2691,-0.2691,-0.2691,-0.2691,-0.2691,-0.2691,-0.2797,-0.3124,-0.3192,-0.3192,-0.3192,-0.2721,-0.2049,-0.121,-0.1613,-0.1968,-0.1869,-0.2349,-0.2691,-0.2691,-0.2691,-0.2691,-0.2691,-0.238,-0.2324,-0.2691,-0.2521,-0.2186,-0.171,-0.143,-0.1234,-0.1066,-0.0943,-0.0909,-0.0969,-0.1,-0.1029,-0.1058,-0.1104,-0.1109,0.2962,0.0,0.0,0.0,0.0,0.0,0.0,0.0,0.0,0.0,0.0,0.0,0.0,0.0,0.0,0.0,0.0,0.0,0.0,0.0,0.0,0.0,0.0,0.0,0.0,0.0,0.0,0.0,0.0,-0.0596,-0.0902,-0.1083,-0.1217,-0.132,-0.1636,-0.1884,-0.2087,-0.2215,-0.2269,-0.2271,-0.2313,-0.2346,-0.2346,-0.2368,-0.2417,-0.2534,-0.2584,-0.262,-0.2684,-0.2681,-0.2691,-0.2691,-0.2691,-0.2691,-0.2691,-0.2691,-0.2691,-0.2691,-0.2691,-0.2691,-0.2699,-0.2776,-0.2758,-0.2691,-0.2691,-0.2691,-0.2711,-0.2809,-0.2766,-0.2691,-0.2691,-0.2691,-0.2691,-0.2691,-0.2691,-0.2691,-0.2691,-0.2768,-0.2915,-0.3144,-0.3192,-0.3092,-0.2688,-0.2958,-0.2721,-0.1311,-0.1109,-0.1077,-0.0958,-0.1714,-0.2276,-0.2276,-0.2234,-0.2354,-0.2663,-0.2022,-0.1841,-0.2447,-0.2169,-0.1796,-0.1353,-0.1228,-0.1114,-0.0922,-0.0915,-0.094,-0.1001,-0.0991,-0.1048,-0.1109,-0.1109,-0.1109,0.0,0.0,0.0,0.2605,0.0,0.0,0.0,0.0,0.2324,0.0,0.0,0.0,0.0,0.0,0.1954,0.1819,0.0,0.0,0.0,0.0,0.0,0.0,0.0,0.0,0.0,0.0,0.0,0.0,0.0,0.0,-0.071,-0.1136,-0.1308,-0.1118,-0.1569,-0.1794,-0.1817,-0.2066,-0.2205,-0.2205,-0.2207,-0.2209,-0.2211,-0.2271,-0.231,-0.2325,-0.2504,-0.2609,-0.262,-0.2682,-0.2691,-0.2691,-0.2691,-0.2691,-0.2691,-0.2691,-0.2691,-0.2691,-0.2691,-0.2691,-0.2719,-0.2919,-0.2859,-0.2691,-0.2691,-0.2691,-0.2762,-0.3079,-0.2958,-0.2691,-0.2691,-0.2691,-0.2691,-0.2691,-0.2691,-0.2691,-0.2691,-0.2964,-0.318,-0.319,-0.3192,-0.2755,-0.1412,-0.2284,-0.2721,-0.1311,-0.1109,-0.1108,-0.1104,-0.1136,-0.1136,-0.1136,-0.1027,-0.1429,-0.2607,-0.1665,-0.1293,-0.1874,-0.1615,-0.1431,-0.1411,-0.1075,-0.0926,-0.0985,-0.0986,-0.1002,-0.1,-0.1001,-0.1048,-0.1109,-0.1109,-0.1109,0.0,0.0,0.342,0.3271,0.0,0.0,0.0,0.0,0.0,0.0,0.0,0.0,0.0,0.0,0.1985,0.1943,0.1789,0.0,0.0,0.0,0.0,0.0,0.0,0.0,0.0,0.0,0.0,0.0,0.0033,0.0,0.0,-0.0725,-0.0986,-0.1096,-0.1389,-0.1614,-0.1794,-0.2064,-0.2201,-0.2201,-0.2201,-0.2201,-0.2201,-0.223,-0.2253,-0.231,-0.2411,-0.2525,-0.2615,-0.2682,-0.2691,-0.2691,-0.2691,-0.2691,-0.2691,-0.2691,-0.2691,-0.2691,-0.2691,-0.2691,-0.2701,-0.2789,-0.2847,-0.2873,-0.2728,-0.2856,-0.3039,-0.3158,-0.3107,-0.2991,-0.2752,-0.2691,-0.2691,-0.2691,-0.2691,-0.2691,-0.2691,-0.2973,-0.3192,-0.3192,-0.2453,-0.1647,-0.1176,-0.1479,-0.1647,-0.1176,-0.1109,-0.1109,-0.1109,-0.1109,-0.1109,-0.1109,-0.1072,-0.1206,-0.1617,-0.1483,-0.1377,-0.1297,-0.1374,-0.1311,-0.1141,-0.1039,-0.0977,-0.0988,-0.1008,-0.0992,-0.1001,-0.1052,-0.1066,-0.1109,-0.1109,-0.1109,0.4036,0.381,0.0,0.4032,0.3602,0.0,0.2173,0.0,0.0,0.0,0.0,0.0,0.0,0.0,0.2035,0.2037,0.1833,0.1634,0.0,0.1462,0.0,0.0,0.0,0.0,0.0,0.0,0.0863,0.065,0.0373,0.0,0.0,0.0,-0.065,-0.0941,-0.1178,-0.1411,-0.1658,-0.1928,-0.2109,-0.2201,-0.2232,-0.2246,-0.2246,-0.2257,-0.2302,-0.2334,-0.2425,-0.2525,-0.2615,-0.2682,-0.2691,-0.2691,-0.2691,-0.2691,-0.2691,-0.2691,-0.2691,-0.2691,-0.2691,-0.2691,-0.2699,-0.2768,-0.2832,-0.2894,-0.2877,-0.2997,-0.3142,-0.3176,-0.3192,-0.314,-0.2942,-0.2881,-0.2881,-0.2881,-0.2881,-0.2881,-0.2881,-0.3062,-0.3192,-0.3192,-0.2452,-0.1848,-0.1848,-0.1445,-0.1109,-0.1109,-0.1109,-0.1109,-0.1109,-0.1109,-0.1109,-0.1109,-0.1109,-0.1109,-0.1109,-0.1283,-0.1323,-0.1052,-0.1166,-0.1196,-0.1051,-0.1009,-0.1009,-0.1051,-0.1039,-0.1048,-0.1048,-0.1067,-0.1109,-0.1109,-0.1109,-0.1109]}]]